<?xml version="1.0" encoding="UTF-8" standalone="no" ?>
<gpx xmlns="http://www.topografix.com/GPX/1/1" xmlns:xsi="http://www.w3.org/2001/XMLSchema-instance" xsi:schemaLocation="http://www.topografix.com/GPX/1/1 http://www.topografix.com/GPX/1/1/gpx.xsd" version="1.1" creator="VisuGPX - https://www.visugpx.com">
  <metadata>
    <name>La sauve Variante</name>
    <desc><![CDATA[Randonnée VTT]]></desc>
  </metadata>
  <trk>
    <name><![CDATA[la sauve ovs]]></name>
    <trkseg>
      <trkpt lat="44.76993" lon="-0.31201">
        <ele>77</ele>
        <time>2013-11-16T13:17:45Z</time>
      </trkpt>
      <trkpt lat="44.76998" lon="-0.31199">
        <ele>76</ele>
        <time>2013-11-16T13:17:46Z</time>
      </trkpt>
      <trkpt lat="44.77004" lon="-0.31198">
        <ele>75</ele>
        <time>2013-11-16T13:17:47Z</time>
      </trkpt>
      <trkpt lat="44.77009" lon="-0.31197">
        <ele>75</ele>
        <time>2013-11-16T13:17:48Z</time>
      </trkpt>
      <trkpt lat="44.77014" lon="-0.31198">
        <ele>74</ele>
        <time>2013-11-16T13:17:49Z</time>
      </trkpt>
      <trkpt lat="44.77018" lon="-0.312">
        <ele>74</ele>
        <time>2013-11-16T13:17:50Z</time>
      </trkpt>
      <trkpt lat="44.77023" lon="-0.31204">
        <ele>73</ele>
        <time>2013-11-16T13:17:51Z</time>
      </trkpt>
      <trkpt lat="44.77028" lon="-0.31209">
        <ele>72</ele>
        <time>2013-11-16T13:17:52Z</time>
      </trkpt>
      <trkpt lat="44.77034" lon="-0.31214">
        <ele>71</ele>
        <time>2013-11-16T13:17:53Z</time>
      </trkpt>
      <trkpt lat="44.7704" lon="-0.31216">
        <ele>71</ele>
        <time>2013-11-16T13:17:54Z</time>
      </trkpt>
      <trkpt lat="44.77046" lon="-0.31217">
        <ele>70</ele>
        <time>2013-11-16T13:17:55Z</time>
      </trkpt>
      <trkpt lat="44.77052" lon="-0.31217">
        <ele>69</ele>
        <time>2013-11-16T13:17:56Z</time>
      </trkpt>
      <trkpt lat="44.77058" lon="-0.31216">
        <ele>69</ele>
        <time>2013-11-16T13:17:57Z</time>
      </trkpt>
      <trkpt lat="44.77064" lon="-0.31214">
        <ele>69</ele>
        <time>2013-11-16T13:17:58Z</time>
      </trkpt>
      <trkpt lat="44.77068" lon="-0.31212">
        <ele>69</ele>
        <time>2013-11-16T13:17:59Z</time>
      </trkpt>
      <trkpt lat="44.77072" lon="-0.31209">
        <ele>69</ele>
        <time>2013-11-16T13:18:00Z</time>
      </trkpt>
      <trkpt lat="44.77075" lon="-0.31207">
        <ele>69</ele>
        <time>2013-11-16T13:18:01Z</time>
      </trkpt>
      <trkpt lat="44.77077" lon="-0.31204">
        <ele>69</ele>
        <time>2013-11-16T13:18:02Z</time>
      </trkpt>
      <trkpt lat="44.77097" lon="-0.31183">
        <ele>69</ele>
        <time>2013-11-16T13:18:09Z</time>
      </trkpt>
      <trkpt lat="44.7712" lon="-0.31168">
        <ele>70</ele>
        <time>2013-11-16T13:18:17Z</time>
      </trkpt>
      <trkpt lat="44.77133" lon="-0.31182">
        <ele>69</ele>
        <time>2013-11-16T13:18:22Z</time>
      </trkpt>
      <trkpt lat="44.77134" lon="-0.31208">
        <ele>68</ele>
        <time>2013-11-16T13:18:27Z</time>
      </trkpt>
      <trkpt lat="44.77134" lon="-0.31217">
        <ele>68</ele>
        <time>2013-11-16T13:18:29Z</time>
      </trkpt>
      <trkpt lat="44.7714" lon="-0.31231">
        <ele>68</ele>
        <time>2013-11-16T13:18:34Z</time>
      </trkpt>
      <trkpt lat="44.77141" lon="-0.31235">
        <ele>68</ele>
        <time>2013-11-16T13:18:35Z</time>
      </trkpt>
      <trkpt lat="44.77151" lon="-0.31257">
        <ele>69</ele>
        <time>2013-11-16T13:18:42Z</time>
      </trkpt>
      <trkpt lat="44.7717" lon="-0.31267">
        <ele>69</ele>
        <time>2013-11-16T13:18:49Z</time>
      </trkpt>
      <trkpt lat="44.77192" lon="-0.31281">
        <ele>68</ele>
        <time>2013-11-16T13:18:56Z</time>
      </trkpt>
      <trkpt lat="44.77215" lon="-0.313">
        <ele>68</ele>
        <time>2013-11-16T13:19:04Z</time>
      </trkpt>
      <trkpt lat="44.7723" lon="-0.31318">
        <ele>67</ele>
        <time>2013-11-16T13:19:11Z</time>
      </trkpt>
      <trkpt lat="44.77233" lon="-0.31325">
        <ele>67</ele>
        <time>2013-11-16T13:19:13Z</time>
      </trkpt>
      <trkpt lat="44.77246" lon="-0.31322">
        <ele>66</ele>
        <time>2013-11-16T13:19:20Z</time>
      </trkpt>
      <trkpt lat="44.77259" lon="-0.31317">
        <ele>66</ele>
        <time>2013-11-16T13:19:26Z</time>
      </trkpt>
      <trkpt lat="44.77272" lon="-0.31315">
        <ele>65</ele>
        <time>2013-11-16T13:19:33Z</time>
      </trkpt>
      <trkpt lat="44.77285" lon="-0.31314">
        <ele>65</ele>
        <time>2013-11-16T13:19:40Z</time>
      </trkpt>
      <trkpt lat="44.77287" lon="-0.31313">
        <ele>65</ele>
        <time>2013-11-16T13:19:41Z</time>
      </trkpt>
      <trkpt lat="44.773" lon="-0.31321">
        <ele>66</ele>
        <time>2013-11-16T13:19:47Z</time>
      </trkpt>
      <trkpt lat="44.77305" lon="-0.31331">
        <ele>65</ele>
        <time>2013-11-16T13:19:52Z</time>
      </trkpt>
      <trkpt lat="44.77311" lon="-0.31348">
        <ele>65</ele>
        <time>2013-11-16T13:19:58Z</time>
      </trkpt>
      <trkpt lat="44.77314" lon="-0.31355">
        <ele>65</ele>
        <time>2013-11-16T13:20:00Z</time>
      </trkpt>
      <trkpt lat="44.77319" lon="-0.31371">
        <ele>64</ele>
        <time>2013-11-16T13:20:05Z</time>
      </trkpt>
      <trkpt lat="44.77327" lon="-0.31394">
        <ele>65</ele>
        <time>2013-11-16T13:20:12Z</time>
      </trkpt>
      <trkpt lat="44.77331" lon="-0.31404">
        <ele>65</ele>
        <time>2013-11-16T13:20:15Z</time>
      </trkpt>
      <trkpt lat="44.77335" lon="-0.31415">
        <ele>66</ele>
        <time>2013-11-16T13:20:19Z</time>
      </trkpt>
      <trkpt lat="44.77339" lon="-0.3143">
        <ele>66</ele>
        <time>2013-11-16T13:20:24Z</time>
      </trkpt>
      <trkpt lat="44.77344" lon="-0.31442">
        <ele>66</ele>
        <time>2013-11-16T13:20:30Z</time>
      </trkpt>
      <trkpt lat="44.77346" lon="-0.31448">
        <ele>67</ele>
        <time>2013-11-16T13:20:37Z</time>
      </trkpt>
      <trkpt lat="44.77346" lon="-0.31454">
        <ele>66</ele>
        <time>2013-11-16T13:20:53Z</time>
      </trkpt>
      <trkpt lat="44.77346" lon="-0.31456">
        <ele>66</ele>
        <time>2013-11-16T13:21:08Z</time>
      </trkpt>
      <trkpt lat="44.77346" lon="-0.31456">
        <ele>66</ele>
        <time>2013-11-16T13:21:21Z</time>
      </trkpt>
      <trkpt lat="44.77345" lon="-0.31457">
        <ele>66</ele>
        <time>2013-11-16T13:21:29Z</time>
      </trkpt>
      <trkpt lat="44.77345" lon="-0.31458">
        <ele>66</ele>
        <time>2013-11-16T13:21:37Z</time>
      </trkpt>
      <trkpt lat="44.77346" lon="-0.3146">
        <ele>66</ele>
        <time>2013-11-16T13:21:51Z</time>
      </trkpt>
      <trkpt lat="44.77355" lon="-0.31478">
        <ele>66</ele>
        <time>2013-11-16T13:21:58Z</time>
      </trkpt>
      <trkpt lat="44.77371" lon="-0.31498">
        <ele>68</ele>
        <time>2013-11-16T13:22:05Z</time>
      </trkpt>
      <trkpt lat="44.77376" lon="-0.31502">
        <ele>68</ele>
        <time>2013-11-16T13:22:07Z</time>
      </trkpt>
      <trkpt lat="44.77394" lon="-0.31516">
        <ele>70</ele>
        <time>2013-11-16T13:22:14Z</time>
      </trkpt>
      <trkpt lat="44.774" lon="-0.3152">
        <ele>70</ele>
        <time>2013-11-16T13:22:16Z</time>
      </trkpt>
      <trkpt lat="44.77419" lon="-0.31527">
        <ele>71</ele>
        <time>2013-11-16T13:22:22Z</time>
      </trkpt>
      <trkpt lat="44.77428" lon="-0.31532">
        <ele>71</ele>
        <time>2013-11-16T13:22:25Z</time>
      </trkpt>
      <trkpt lat="44.77447" lon="-0.31547">
        <ele>70</ele>
        <time>2013-11-16T13:22:33Z</time>
      </trkpt>
      <trkpt lat="44.77464" lon="-0.31559">
        <ele>70</ele>
        <time>2013-11-16T13:22:40Z</time>
      </trkpt>
      <trkpt lat="44.77478" lon="-0.3157">
        <ele>69</ele>
        <time>2013-11-16T13:22:46Z</time>
      </trkpt>
      <trkpt lat="44.77483" lon="-0.31575">
        <ele>69</ele>
        <time>2013-11-16T13:22:48Z</time>
      </trkpt>
      <trkpt lat="44.77493" lon="-0.31592">
        <ele>68</ele>
        <time>2013-11-16T13:22:52Z</time>
      </trkpt>
      <trkpt lat="44.77496" lon="-0.31597">
        <ele>68</ele>
        <time>2013-11-16T13:22:53Z</time>
      </trkpt>
      <trkpt lat="44.77499" lon="-0.31601">
        <ele>68</ele>
        <time>2013-11-16T13:22:54Z</time>
      </trkpt>
      <trkpt lat="44.77502" lon="-0.31604">
        <ele>68</ele>
        <time>2013-11-16T13:22:55Z</time>
      </trkpt>
      <trkpt lat="44.77519" lon="-0.3162">
        <ele>67</ele>
        <time>2013-11-16T13:23:00Z</time>
      </trkpt>
      <trkpt lat="44.77542" lon="-0.31627">
        <ele>67</ele>
        <time>2013-11-16T13:23:07Z</time>
      </trkpt>
      <trkpt lat="44.77559" lon="-0.31627">
        <ele>68</ele>
        <time>2013-11-16T13:23:13Z</time>
      </trkpt>
      <trkpt lat="44.77579" lon="-0.3162">
        <ele>70</ele>
        <time>2013-11-16T13:23:19Z</time>
      </trkpt>
      <trkpt lat="44.77598" lon="-0.31619">
        <ele>70</ele>
        <time>2013-11-16T13:23:25Z</time>
      </trkpt>
      <trkpt lat="44.77616" lon="-0.31619">
        <ele>71</ele>
        <time>2013-11-16T13:23:32Z</time>
      </trkpt>
      <trkpt lat="44.77631" lon="-0.31622">
        <ele>71</ele>
        <time>2013-11-16T13:23:37Z</time>
      </trkpt>
      <trkpt lat="44.77633" lon="-0.31622">
        <ele>71</ele>
        <time>2013-11-16T13:23:38Z</time>
      </trkpt>
      <trkpt lat="44.77634" lon="-0.31621">
        <ele>71</ele>
        <time>2013-11-16T13:23:39Z</time>
      </trkpt>
      <trkpt lat="44.77636" lon="-0.31621">
        <ele>71</ele>
        <time>2013-11-16T13:23:40Z</time>
      </trkpt>
      <trkpt lat="44.77638" lon="-0.3162">
        <ele>71</ele>
        <time>2013-11-16T13:23:41Z</time>
      </trkpt>
      <trkpt lat="44.77639" lon="-0.31619">
        <ele>71</ele>
        <time>2013-11-16T13:23:42Z</time>
      </trkpt>
      <trkpt lat="44.77641" lon="-0.31619">
        <ele>71</ele>
        <time>2013-11-16T13:23:43Z</time>
      </trkpt>
      <trkpt lat="44.77654" lon="-0.31618">
        <ele>71</ele>
        <time>2013-11-16T13:23:50Z</time>
      </trkpt>
      <trkpt lat="44.77667" lon="-0.31613">
        <ele>71</ele>
        <time>2013-11-16T13:23:56Z</time>
      </trkpt>
      <trkpt lat="44.77675" lon="-0.31611">
        <ele>70</ele>
        <time>2013-11-16T13:24:00Z</time>
      </trkpt>
      <trkpt lat="44.7769" lon="-0.31611">
        <ele>69</ele>
        <time>2013-11-16T13:24:07Z</time>
      </trkpt>
      <trkpt lat="44.77701" lon="-0.31609">
        <ele>69</ele>
        <time>2013-11-16T13:24:12Z</time>
      </trkpt>
      <trkpt lat="44.77718" lon="-0.31601">
        <ele>68</ele>
        <time>2013-11-16T13:24:19Z</time>
      </trkpt>
      <trkpt lat="44.77726" lon="-0.31599">
        <ele>68</ele>
        <time>2013-11-16T13:24:22Z</time>
      </trkpt>
      <trkpt lat="44.77733" lon="-0.31595">
        <ele>68</ele>
        <time>2013-11-16T13:24:26Z</time>
      </trkpt>
      <trkpt lat="44.77752" lon="-0.31596">
        <ele>68</ele>
        <time>2013-11-16T13:24:34Z</time>
      </trkpt>
      <trkpt lat="44.7777" lon="-0.31602">
        <ele>69</ele>
        <time>2013-11-16T13:24:42Z</time>
      </trkpt>
      <trkpt lat="44.77782" lon="-0.31606">
        <ele>69</ele>
        <time>2013-11-16T13:24:48Z</time>
      </trkpt>
      <trkpt lat="44.77797" lon="-0.31609">
        <ele>70</ele>
        <time>2013-11-16T13:24:55Z</time>
      </trkpt>
      <trkpt lat="44.77813" lon="-0.31613">
        <ele>71</ele>
        <time>2013-11-16T13:25:02Z</time>
      </trkpt>
      <trkpt lat="44.77829" lon="-0.31621">
        <ele>71</ele>
        <time>2013-11-16T13:25:08Z</time>
      </trkpt>
      <trkpt lat="44.77845" lon="-0.31628">
        <ele>72</ele>
        <time>2013-11-16T13:25:16Z</time>
      </trkpt>
      <trkpt lat="44.77862" lon="-0.31634">
        <ele>72</ele>
        <time>2013-11-16T13:25:24Z</time>
      </trkpt>
      <trkpt lat="44.77876" lon="-0.31638">
        <ele>71</ele>
        <time>2013-11-16T13:25:32Z</time>
      </trkpt>
      <trkpt lat="44.77878" lon="-0.31638">
        <ele>71</ele>
        <time>2013-11-16T13:25:39Z</time>
      </trkpt>
      <trkpt lat="44.77879" lon="-0.31639">
        <ele>71</ele>
        <time>2013-11-16T13:25:46Z</time>
      </trkpt>
      <trkpt lat="44.77879" lon="-0.31638">
        <ele>71</ele>
        <time>2013-11-16T13:26:03Z</time>
      </trkpt>
      <trkpt lat="44.77879" lon="-0.31639">
        <ele>71</ele>
        <time>2013-11-16T13:26:17Z</time>
      </trkpt>
      <trkpt lat="44.77879" lon="-0.31639">
        <ele>71</ele>
        <time>2013-11-16T13:26:34Z</time>
      </trkpt>
      <trkpt lat="44.77878" lon="-0.31639">
        <ele>71</ele>
        <time>2013-11-16T13:26:53Z</time>
      </trkpt>
      <trkpt lat="44.77878" lon="-0.31638">
        <ele>71</ele>
        <time>2013-11-16T13:27:11Z</time>
      </trkpt>
      <trkpt lat="44.77878" lon="-0.31638">
        <ele>71</ele>
        <time>2013-11-16T13:27:25Z</time>
      </trkpt>
      <trkpt lat="44.7788" lon="-0.31638">
        <ele>71</ele>
        <time>2013-11-16T13:27:30Z</time>
      </trkpt>
      <trkpt lat="44.77887" lon="-0.31635">
        <ele>71</ele>
        <time>2013-11-16T13:27:34Z</time>
      </trkpt>
      <trkpt lat="44.77903" lon="-0.31641">
        <ele>70</ele>
        <time>2013-11-16T13:27:40Z</time>
      </trkpt>
      <trkpt lat="44.77922" lon="-0.31652">
        <ele>69</ele>
        <time>2013-11-16T13:27:47Z</time>
      </trkpt>
      <trkpt lat="44.7794" lon="-0.31662">
        <ele>69</ele>
        <time>2013-11-16T13:27:54Z</time>
      </trkpt>
      <trkpt lat="44.77959" lon="-0.31667">
        <ele>68</ele>
        <time>2013-11-16T13:28:00Z</time>
      </trkpt>
      <trkpt lat="44.77978" lon="-0.31675">
        <ele>67</ele>
        <time>2013-11-16T13:28:06Z</time>
      </trkpt>
      <trkpt lat="44.78" lon="-0.31686">
        <ele>67</ele>
        <time>2013-11-16T13:28:14Z</time>
      </trkpt>
      <trkpt lat="44.78016" lon="-0.31694">
        <ele>67</ele>
        <time>2013-11-16T13:28:21Z</time>
      </trkpt>
      <trkpt lat="44.78037" lon="-0.31706">
        <ele>66</ele>
        <time>2013-11-16T13:28:30Z</time>
      </trkpt>
      <trkpt lat="44.78054" lon="-0.31716">
        <ele>66</ele>
        <time>2013-11-16T13:28:38Z</time>
      </trkpt>
      <trkpt lat="44.78077" lon="-0.3173">
        <ele>66</ele>
        <time>2013-11-16T13:28:48Z</time>
      </trkpt>
      <trkpt lat="44.7809" lon="-0.31735">
        <ele>66</ele>
        <time>2013-11-16T13:28:54Z</time>
      </trkpt>
      <trkpt lat="44.78101" lon="-0.31738">
        <ele>66</ele>
        <time>2013-11-16T13:29:01Z</time>
      </trkpt>
      <trkpt lat="44.78122" lon="-0.31742">
        <ele>67</ele>
        <time>2013-11-16T13:29:09Z</time>
      </trkpt>
      <trkpt lat="44.78138" lon="-0.31739">
        <ele>67</ele>
        <time>2013-11-16T13:29:15Z</time>
      </trkpt>
      <trkpt lat="44.78161" lon="-0.31736">
        <ele>67</ele>
        <time>2013-11-16T13:29:23Z</time>
      </trkpt>
      <trkpt lat="44.78184" lon="-0.31736">
        <ele>67</ele>
        <time>2013-11-16T13:29:31Z</time>
      </trkpt>
      <trkpt lat="44.78206" lon="-0.3174">
        <ele>67</ele>
        <time>2013-11-16T13:29:39Z</time>
      </trkpt>
      <trkpt lat="44.78221" lon="-0.31745">
        <ele>67</ele>
        <time>2013-11-16T13:29:45Z</time>
      </trkpt>
      <trkpt lat="44.78228" lon="-0.31747">
        <ele>67</ele>
        <time>2013-11-16T13:29:48Z</time>
      </trkpt>
      <trkpt lat="44.7825" lon="-0.31745">
        <ele>67</ele>
        <time>2013-11-16T13:29:54Z</time>
      </trkpt>
      <trkpt lat="44.78254" lon="-0.31746">
        <ele>67</ele>
        <time>2013-11-16T13:29:55Z</time>
      </trkpt>
      <trkpt lat="44.78289" lon="-0.31751">
        <ele>66</ele>
        <time>2013-11-16T13:30:05Z</time>
      </trkpt>
      <trkpt lat="44.78304" lon="-0.31757">
        <ele>66</ele>
        <time>2013-11-16T13:30:10Z</time>
      </trkpt>
      <trkpt lat="44.7832" lon="-0.31757">
        <ele>66</ele>
        <time>2013-11-16T13:30:15Z</time>
      </trkpt>
      <trkpt lat="44.78332" lon="-0.31763">
        <ele>65</ele>
        <time>2013-11-16T13:30:19Z</time>
      </trkpt>
      <trkpt lat="44.78357" lon="-0.31762">
        <ele>64</ele>
        <time>2013-11-16T13:30:26Z</time>
      </trkpt>
      <trkpt lat="44.78381" lon="-0.31761">
        <ele>63</ele>
        <time>2013-11-16T13:30:32Z</time>
      </trkpt>
      <trkpt lat="44.78401" lon="-0.31754">
        <ele>62</ele>
        <time>2013-11-16T13:30:38Z</time>
      </trkpt>
      <trkpt lat="44.78423" lon="-0.31746">
        <ele>60</ele>
        <time>2013-11-16T13:30:45Z</time>
      </trkpt>
      <trkpt lat="44.78431" lon="-0.31744">
        <ele>60</ele>
        <time>2013-11-16T13:30:48Z</time>
      </trkpt>
      <trkpt lat="44.78457" lon="-0.31753">
        <ele>60</ele>
        <time>2013-11-16T13:30:55Z</time>
      </trkpt>
      <trkpt lat="44.78476" lon="-0.31754">
        <ele>60</ele>
        <time>2013-11-16T13:31:00Z</time>
      </trkpt>
      <trkpt lat="44.78497" lon="-0.31758">
        <ele>60</ele>
        <time>2013-11-16T13:31:07Z</time>
      </trkpt>
      <trkpt lat="44.78512" lon="-0.31763">
        <ele>61</ele>
        <time>2013-11-16T13:31:13Z</time>
      </trkpt>
      <trkpt lat="44.78531" lon="-0.31771">
        <ele>61</ele>
        <time>2013-11-16T13:31:20Z</time>
      </trkpt>
      <trkpt lat="44.78548" lon="-0.31781">
        <ele>62</ele>
        <time>2013-11-16T13:31:27Z</time>
      </trkpt>
      <trkpt lat="44.78567" lon="-0.3179">
        <ele>63</ele>
        <time>2013-11-16T13:31:34Z</time>
      </trkpt>
      <trkpt lat="44.78586" lon="-0.31794">
        <ele>64</ele>
        <time>2013-11-16T13:31:39Z</time>
      </trkpt>
      <trkpt lat="44.78611" lon="-0.318">
        <ele>65</ele>
        <time>2013-11-16T13:31:47Z</time>
      </trkpt>
      <trkpt lat="44.78629" lon="-0.31802">
        <ele>65</ele>
        <time>2013-11-16T13:31:55Z</time>
      </trkpt>
      <trkpt lat="44.78646" lon="-0.31804">
        <ele>66</ele>
        <time>2013-11-16T13:32:04Z</time>
      </trkpt>
      <trkpt lat="44.7865" lon="-0.31803">
        <ele>66</ele>
        <time>2013-11-16T13:32:06Z</time>
      </trkpt>
      <trkpt lat="44.78653" lon="-0.31793">
        <ele>66</ele>
        <time>2013-11-16T13:32:12Z</time>
      </trkpt>
      <trkpt lat="44.78655" lon="-0.31788">
        <ele>66</ele>
        <time>2013-11-16T13:32:19Z</time>
      </trkpt>
      <trkpt lat="44.78655" lon="-0.31787">
        <ele>66</ele>
        <time>2013-11-16T13:32:29Z</time>
      </trkpt>
      <trkpt lat="44.78655" lon="-0.31787">
        <ele>66</ele>
        <time>2013-11-16T13:32:44Z</time>
      </trkpt>
      <trkpt lat="44.78656" lon="-0.31788">
        <ele>66</ele>
        <time>2013-11-16T13:32:53Z</time>
      </trkpt>
      <trkpt lat="44.78656" lon="-0.31788">
        <ele>66</ele>
        <time>2013-11-16T13:33:07Z</time>
      </trkpt>
      <trkpt lat="44.78656" lon="-0.31789">
        <ele>66</ele>
        <time>2013-11-16T13:33:22Z</time>
      </trkpt>
      <trkpt lat="44.78656" lon="-0.31789">
        <ele>66</ele>
        <time>2013-11-16T13:33:33Z</time>
      </trkpt>
      <trkpt lat="44.78656" lon="-0.31789">
        <ele>66</ele>
        <time>2013-11-16T13:33:44Z</time>
      </trkpt>
      <trkpt lat="44.78656" lon="-0.31789">
        <ele>66</ele>
        <time>2013-11-16T13:33:59Z</time>
      </trkpt>
      <trkpt lat="44.78656" lon="-0.31788">
        <ele>66</ele>
        <time>2013-11-16T13:34:07Z</time>
      </trkpt>
      <trkpt lat="44.78656" lon="-0.31788">
        <ele>66</ele>
        <time>2013-11-16T13:34:08Z</time>
      </trkpt>
      <trkpt lat="44.78655" lon="-0.31784">
        <ele>66</ele>
        <time>2013-11-16T13:34:14Z</time>
      </trkpt>
      <trkpt lat="44.78655" lon="-0.31783">
        <ele>66</ele>
        <time>2013-11-16T13:34:20Z</time>
      </trkpt>
      <trkpt lat="44.78655" lon="-0.31783">
        <ele>66</ele>
        <time>2013-11-16T13:34:37Z</time>
      </trkpt>
      <trkpt lat="44.78656" lon="-0.31783">
        <ele>66</ele>
        <time>2013-11-16T13:34:51Z</time>
      </trkpt>
      <trkpt lat="44.78656" lon="-0.31783">
        <ele>66</ele>
        <time>2013-11-16T13:35:03Z</time>
      </trkpt>
      <trkpt lat="44.78656" lon="-0.31783">
        <ele>66</ele>
        <time>2013-11-16T13:35:16Z</time>
      </trkpt>
      <trkpt lat="44.78656" lon="-0.31783">
        <ele>66</ele>
        <time>2013-11-16T13:35:23Z</time>
      </trkpt>
      <trkpt lat="44.7866" lon="-0.31773">
        <ele>66</ele>
        <time>2013-11-16T13:35:29Z</time>
      </trkpt>
      <trkpt lat="44.78664" lon="-0.31748">
        <ele>66</ele>
        <time>2013-11-16T13:35:37Z</time>
      </trkpt>
      <trkpt lat="44.78671" lon="-0.31718">
        <ele>66</ele>
        <time>2013-11-16T13:35:45Z</time>
      </trkpt>
      <trkpt lat="44.78677" lon="-0.31698">
        <ele>66</ele>
        <time>2013-11-16T13:35:51Z</time>
      </trkpt>
      <trkpt lat="44.78681" lon="-0.31682">
        <ele>66</ele>
        <time>2013-11-16T13:35:56Z</time>
      </trkpt>
      <trkpt lat="44.78682" lon="-0.31673">
        <ele>67</ele>
        <time>2013-11-16T13:36:00Z</time>
      </trkpt>
      <trkpt lat="44.78688" lon="-0.31649">
        <ele>67</ele>
        <time>2013-11-16T13:36:07Z</time>
      </trkpt>
      <trkpt lat="44.78691" lon="-0.31636">
        <ele>67</ele>
        <time>2013-11-16T13:36:11Z</time>
      </trkpt>
      <trkpt lat="44.78694" lon="-0.31625">
        <ele>68</ele>
        <time>2013-11-16T13:36:17Z</time>
      </trkpt>
      <trkpt lat="44.78696" lon="-0.31622">
        <ele>68</ele>
        <time>2013-11-16T13:36:30Z</time>
      </trkpt>
      <trkpt lat="44.78695" lon="-0.31621">
        <ele>68</ele>
        <time>2013-11-16T13:36:42Z</time>
      </trkpt>
      <trkpt lat="44.78695" lon="-0.31621">
        <ele>68</ele>
        <time>2013-11-16T13:36:55Z</time>
      </trkpt>
      <trkpt lat="44.78695" lon="-0.31621">
        <ele>68</ele>
        <time>2013-11-16T13:36:57Z</time>
      </trkpt>
      <trkpt lat="44.78696" lon="-0.31603">
        <ele>68</ele>
        <time>2013-11-16T13:37:04Z</time>
      </trkpt>
      <trkpt lat="44.78698" lon="-0.31585">
        <ele>68</ele>
        <time>2013-11-16T13:37:09Z</time>
      </trkpt>
      <trkpt lat="44.787" lon="-0.3156">
        <ele>69</ele>
        <time>2013-11-16T13:37:15Z</time>
      </trkpt>
      <trkpt lat="44.787" lon="-0.31533">
        <ele>69</ele>
        <time>2013-11-16T13:37:22Z</time>
      </trkpt>
      <trkpt lat="44.78699" lon="-0.31505">
        <ele>70</ele>
        <time>2013-11-16T13:37:29Z</time>
      </trkpt>
      <trkpt lat="44.78698" lon="-0.31477">
        <ele>70</ele>
        <time>2013-11-16T13:37:36Z</time>
      </trkpt>
      <trkpt lat="44.78696" lon="-0.31435">
        <ele>72</ele>
        <time>2013-11-16T13:37:47Z</time>
      </trkpt>
      <trkpt lat="44.78694" lon="-0.31403">
        <ele>72</ele>
        <time>2013-11-16T13:37:56Z</time>
      </trkpt>
      <trkpt lat="44.78691" lon="-0.31373">
        <ele>72</ele>
        <time>2013-11-16T13:38:04Z</time>
      </trkpt>
      <trkpt lat="44.78688" lon="-0.31341">
        <ele>72</ele>
        <time>2013-11-16T13:38:13Z</time>
      </trkpt>
      <trkpt lat="44.78686" lon="-0.31311">
        <ele>72</ele>
        <time>2013-11-16T13:38:21Z</time>
      </trkpt>
      <trkpt lat="44.78686" lon="-0.31277">
        <ele>72</ele>
        <time>2013-11-16T13:38:29Z</time>
      </trkpt>
      <trkpt lat="44.78688" lon="-0.31235">
        <ele>71</ele>
        <time>2013-11-16T13:38:37Z</time>
      </trkpt>
      <trkpt lat="44.78691" lon="-0.3118">
        <ele>70</ele>
        <time>2013-11-16T13:38:45Z</time>
      </trkpt>
      <trkpt lat="44.78695" lon="-0.31113">
        <ele>69</ele>
        <time>2013-11-16T13:38:53Z</time>
      </trkpt>
      <trkpt lat="44.78698" lon="-0.31045">
        <ele>70</ele>
        <time>2013-11-16T13:39:01Z</time>
      </trkpt>
      <trkpt lat="44.78703" lon="-0.30992">
        <ele>70</ele>
        <time>2013-11-16T13:39:08Z</time>
      </trkpt>
      <trkpt lat="44.78707" lon="-0.30946">
        <ele>70</ele>
        <time>2013-11-16T13:39:16Z</time>
      </trkpt>
      <trkpt lat="44.7871" lon="-0.30905">
        <ele>70</ele>
        <time>2013-11-16T13:39:24Z</time>
      </trkpt>
      <trkpt lat="44.78713" lon="-0.3085">
        <ele>71</ele>
        <time>2013-11-16T13:39:33Z</time>
      </trkpt>
      <trkpt lat="44.78717" lon="-0.30793">
        <ele>71</ele>
        <time>2013-11-16T13:39:42Z</time>
      </trkpt>
      <trkpt lat="44.78719" lon="-0.30746">
        <ele>72</ele>
        <time>2013-11-16T13:39:50Z</time>
      </trkpt>
      <trkpt lat="44.78721" lon="-0.30715">
        <ele>72</ele>
        <time>2013-11-16T13:39:56Z</time>
      </trkpt>
      <trkpt lat="44.78725" lon="-0.30687">
        <ele>72</ele>
        <time>2013-11-16T13:40:03Z</time>
      </trkpt>
      <trkpt lat="44.78725" lon="-0.3066">
        <ele>72</ele>
        <time>2013-11-16T13:40:09Z</time>
      </trkpt>
      <trkpt lat="44.78728" lon="-0.30624">
        <ele>71</ele>
        <time>2013-11-16T13:40:16Z</time>
      </trkpt>
      <trkpt lat="44.7873" lon="-0.30584">
        <ele>71</ele>
        <time>2013-11-16T13:40:24Z</time>
      </trkpt>
      <trkpt lat="44.78732" lon="-0.30551">
        <ele>72</ele>
        <time>2013-11-16T13:40:30Z</time>
      </trkpt>
      <trkpt lat="44.78732" lon="-0.30533">
        <ele>72</ele>
        <time>2013-11-16T13:40:33Z</time>
      </trkpt>
      <trkpt lat="44.78731" lon="-0.30527">
        <ele>72</ele>
        <time>2013-11-16T13:40:34Z</time>
      </trkpt>
      <trkpt lat="44.78732" lon="-0.30487">
        <ele>72</ele>
        <time>2013-11-16T13:40:42Z</time>
      </trkpt>
      <trkpt lat="44.78732" lon="-0.30461">
        <ele>72</ele>
        <time>2013-11-16T13:40:49Z</time>
      </trkpt>
      <trkpt lat="44.78731" lon="-0.30441">
        <ele>73</ele>
        <time>2013-11-16T13:40:54Z</time>
      </trkpt>
      <trkpt lat="44.78729" lon="-0.30431">
        <ele>73</ele>
        <time>2013-11-16T13:40:56Z</time>
      </trkpt>
      <trkpt lat="44.78728" lon="-0.30425">
        <ele>73</ele>
        <time>2013-11-16T13:40:57Z</time>
      </trkpt>
      <trkpt lat="44.78727" lon="-0.30382">
        <ele>73</ele>
        <time>2013-11-16T13:41:05Z</time>
      </trkpt>
      <trkpt lat="44.78729" lon="-0.30356">
        <ele>73</ele>
        <time>2013-11-16T13:41:12Z</time>
      </trkpt>
      <trkpt lat="44.7873" lon="-0.30344">
        <ele>73</ele>
        <time>2013-11-16T13:41:18Z</time>
      </trkpt>
      <trkpt lat="44.7873" lon="-0.30343">
        <ele>73</ele>
        <time>2013-11-16T13:41:22Z</time>
      </trkpt>
      <trkpt lat="44.7873" lon="-0.30344">
        <ele>73</ele>
        <time>2013-11-16T13:41:31Z</time>
      </trkpt>
      <trkpt lat="44.78729" lon="-0.30344">
        <ele>73</ele>
        <time>2013-11-16T13:41:39Z</time>
      </trkpt>
      <trkpt lat="44.78728" lon="-0.30343">
        <ele>73</ele>
        <time>2013-11-16T13:41:51Z</time>
      </trkpt>
      <trkpt lat="44.78728" lon="-0.30343">
        <ele>73</ele>
        <time>2013-11-16T13:41:58Z</time>
      </trkpt>
      <trkpt lat="44.78728" lon="-0.30342">
        <ele>73</ele>
        <time>2013-11-16T13:42:11Z</time>
      </trkpt>
      <trkpt lat="44.78727" lon="-0.30335">
        <ele>73</ele>
        <time>2013-11-16T13:42:19Z</time>
      </trkpt>
      <trkpt lat="44.78727" lon="-0.30328">
        <ele>73</ele>
        <time>2013-11-16T13:42:26Z</time>
      </trkpt>
      <trkpt lat="44.78726" lon="-0.3032">
        <ele>73</ele>
        <time>2013-11-16T13:42:33Z</time>
      </trkpt>
      <trkpt lat="44.78726" lon="-0.3031">
        <ele>74</ele>
        <time>2013-11-16T13:42:42Z</time>
      </trkpt>
      <trkpt lat="44.78725" lon="-0.30306">
        <ele>74</ele>
        <time>2013-11-16T13:42:48Z</time>
      </trkpt>
      <trkpt lat="44.78726" lon="-0.30303">
        <ele>74</ele>
        <time>2013-11-16T13:42:53Z</time>
      </trkpt>
      <trkpt lat="44.78725" lon="-0.30293">
        <ele>74</ele>
        <time>2013-11-16T13:43:01Z</time>
      </trkpt>
      <trkpt lat="44.78723" lon="-0.3029">
        <ele>74</ele>
        <time>2013-11-16T13:43:08Z</time>
      </trkpt>
      <trkpt lat="44.7872" lon="-0.30283">
        <ele>74</ele>
        <time>2013-11-16T13:43:15Z</time>
      </trkpt>
      <trkpt lat="44.78719" lon="-0.30278">
        <ele>74</ele>
        <time>2013-11-16T13:43:23Z</time>
      </trkpt>
      <trkpt lat="44.78719" lon="-0.30275">
        <ele>74</ele>
        <time>2013-11-16T13:43:33Z</time>
      </trkpt>
      <trkpt lat="44.78718" lon="-0.30273">
        <ele>74</ele>
        <time>2013-11-16T13:43:42Z</time>
      </trkpt>
      <trkpt lat="44.78718" lon="-0.30272">
        <ele>74</ele>
        <time>2013-11-16T13:43:53Z</time>
      </trkpt>
      <trkpt lat="44.78718" lon="-0.30271">
        <ele>74</ele>
        <time>2013-11-16T13:44:10Z</time>
      </trkpt>
      <trkpt lat="44.78718" lon="-0.30271">
        <ele>74</ele>
        <time>2013-11-16T13:44:25Z</time>
      </trkpt>
      <trkpt lat="44.78718" lon="-0.3027">
        <ele>74</ele>
        <time>2013-11-16T13:44:33Z</time>
      </trkpt>
      <trkpt lat="44.78718" lon="-0.3027">
        <ele>74</ele>
        <time>2013-11-16T13:44:49Z</time>
      </trkpt>
      <trkpt lat="44.78718" lon="-0.3027">
        <ele>74</ele>
        <time>2013-11-16T13:45:00Z</time>
      </trkpt>
      <trkpt lat="44.78718" lon="-0.30267">
        <ele>74</ele>
        <time>2013-11-16T13:45:07Z</time>
      </trkpt>
      <trkpt lat="44.78717" lon="-0.30259">
        <ele>74</ele>
        <time>2013-11-16T13:45:11Z</time>
      </trkpt>
      <trkpt lat="44.78715" lon="-0.30246">
        <ele>74</ele>
        <time>2013-11-16T13:45:19Z</time>
      </trkpt>
      <trkpt lat="44.78713" lon="-0.30236">
        <ele>74</ele>
        <time>2013-11-16T13:45:25Z</time>
      </trkpt>
      <trkpt lat="44.78712" lon="-0.30223">
        <ele>75</ele>
        <time>2013-11-16T13:45:30Z</time>
      </trkpt>
      <trkpt lat="44.78711" lon="-0.30198">
        <ele>75</ele>
        <time>2013-11-16T13:45:37Z</time>
      </trkpt>
      <trkpt lat="44.78712" lon="-0.30174">
        <ele>76</ele>
        <time>2013-11-16T13:45:44Z</time>
      </trkpt>
      <trkpt lat="44.78711" lon="-0.30171">
        <ele>76</ele>
        <time>2013-11-16T13:45:45Z</time>
      </trkpt>
      <trkpt lat="44.78711" lon="-0.30164">
        <ele>76</ele>
        <time>2013-11-16T13:45:51Z</time>
      </trkpt>
      <trkpt lat="44.78709" lon="-0.30159">
        <ele>76</ele>
        <time>2013-11-16T13:45:57Z</time>
      </trkpt>
      <trkpt lat="44.78706" lon="-0.30157">
        <ele>76</ele>
        <time>2013-11-16T13:46:00Z</time>
      </trkpt>
      <trkpt lat="44.78705" lon="-0.30155">
        <ele>76</ele>
        <time>2013-11-16T13:46:02Z</time>
      </trkpt>
      <trkpt lat="44.78703" lon="-0.30147">
        <ele>76</ele>
        <time>2013-11-16T13:46:08Z</time>
      </trkpt>
      <trkpt lat="44.78703" lon="-0.30144">
        <ele>76</ele>
        <time>2013-11-16T13:46:14Z</time>
      </trkpt>
      <trkpt lat="44.78703" lon="-0.3014">
        <ele>76</ele>
        <time>2013-11-16T13:46:21Z</time>
      </trkpt>
      <trkpt lat="44.78702" lon="-0.30118">
        <ele>76</ele>
        <time>2013-11-16T13:46:29Z</time>
      </trkpt>
      <trkpt lat="44.78707" lon="-0.30106">
        <ele>76</ele>
        <time>2013-11-16T13:46:34Z</time>
      </trkpt>
      <trkpt lat="44.78709" lon="-0.30106">
        <ele>76</ele>
        <time>2013-11-16T13:46:36Z</time>
      </trkpt>
      <trkpt lat="44.78714" lon="-0.30102">
        <ele>77</ele>
        <time>2013-11-16T13:46:40Z</time>
      </trkpt>
      <trkpt lat="44.78712" lon="-0.30093">
        <ele>77</ele>
        <time>2013-11-16T13:46:46Z</time>
      </trkpt>
      <trkpt lat="44.78712" lon="-0.30078">
        <ele>77</ele>
        <time>2013-11-16T13:46:54Z</time>
      </trkpt>
      <trkpt lat="44.78711" lon="-0.30071">
        <ele>77</ele>
        <time>2013-11-16T13:46:57Z</time>
      </trkpt>
      <trkpt lat="44.78708" lon="-0.30047">
        <ele>78</ele>
        <time>2013-11-16T13:47:06Z</time>
      </trkpt>
      <trkpt lat="44.7871" lon="-0.30023">
        <ele>79</ele>
        <time>2013-11-16T13:47:11Z</time>
      </trkpt>
      <trkpt lat="44.78709" lon="-0.30009">
        <ele>79</ele>
        <time>2013-11-16T13:47:15Z</time>
      </trkpt>
      <trkpt lat="44.78706" lon="-0.29989">
        <ele>80</ele>
        <time>2013-11-16T13:47:21Z</time>
      </trkpt>
      <trkpt lat="44.78704" lon="-0.29956">
        <ele>80</ele>
        <time>2013-11-16T13:47:30Z</time>
      </trkpt>
      <trkpt lat="44.78705" lon="-0.29925">
        <ele>81</ele>
        <time>2013-11-16T13:47:38Z</time>
      </trkpt>
      <trkpt lat="44.78704" lon="-0.2989">
        <ele>81</ele>
        <time>2013-11-16T13:47:47Z</time>
      </trkpt>
      <trkpt lat="44.78702" lon="-0.29867">
        <ele>82</ele>
        <time>2013-11-16T13:47:54Z</time>
      </trkpt>
      <trkpt lat="44.78698" lon="-0.29842">
        <ele>82</ele>
        <time>2013-11-16T13:48:01Z</time>
      </trkpt>
      <trkpt lat="44.78694" lon="-0.29821">
        <ele>83</ele>
        <time>2013-11-16T13:48:07Z</time>
      </trkpt>
      <trkpt lat="44.78692" lon="-0.29784">
        <ele>84</ele>
        <time>2013-11-16T13:48:16Z</time>
      </trkpt>
      <trkpt lat="44.78687" lon="-0.29752">
        <ele>84</ele>
        <time>2013-11-16T13:48:24Z</time>
      </trkpt>
      <trkpt lat="44.78682" lon="-0.2974">
        <ele>84</ele>
        <time>2013-11-16T13:48:31Z</time>
      </trkpt>
      <trkpt lat="44.78682" lon="-0.29739">
        <ele>84</ele>
        <time>2013-11-16T13:48:39Z</time>
      </trkpt>
      <trkpt lat="44.78682" lon="-0.29738">
        <ele>84</ele>
        <time>2013-11-16T13:48:44Z</time>
      </trkpt>
      <trkpt lat="44.78682" lon="-0.29739">
        <ele>84</ele>
        <time>2013-11-16T13:48:55Z</time>
      </trkpt>
      <trkpt lat="44.78683" lon="-0.29739">
        <ele>84</ele>
        <time>2013-11-16T13:49:10Z</time>
      </trkpt>
      <trkpt lat="44.78683" lon="-0.29739">
        <ele>84</ele>
        <time>2013-11-16T13:49:20Z</time>
      </trkpt>
      <trkpt lat="44.78682" lon="-0.29738">
        <ele>84</ele>
        <time>2013-11-16T13:49:34Z</time>
      </trkpt>
      <trkpt lat="44.78682" lon="-0.29738">
        <ele>84</ele>
        <time>2013-11-16T13:49:46Z</time>
      </trkpt>
      <trkpt lat="44.78682" lon="-0.29737">
        <ele>84</ele>
        <time>2013-11-16T13:49:52Z</time>
      </trkpt>
      <trkpt lat="44.78682" lon="-0.29737">
        <ele>84</ele>
        <time>2013-11-16T13:50:07Z</time>
      </trkpt>
      <trkpt lat="44.78682" lon="-0.29736">
        <ele>84</ele>
        <time>2013-11-16T13:50:19Z</time>
      </trkpt>
      <trkpt lat="44.78682" lon="-0.29736">
        <ele>84</ele>
        <time>2013-11-16T13:50:30Z</time>
      </trkpt>
      <trkpt lat="44.78682" lon="-0.29736">
        <ele>84</ele>
        <time>2013-11-16T13:50:41Z</time>
      </trkpt>
      <trkpt lat="44.78681" lon="-0.29735">
        <ele>84</ele>
        <time>2013-11-16T13:50:56Z</time>
      </trkpt>
      <trkpt lat="44.78673" lon="-0.29734">
        <ele>84</ele>
        <time>2013-11-16T13:51:02Z</time>
      </trkpt>
      <trkpt lat="44.78654" lon="-0.29746">
        <ele>83</ele>
        <time>2013-11-16T13:51:10Z</time>
      </trkpt>
      <trkpt lat="44.78627" lon="-0.29762">
        <ele>82</ele>
        <time>2013-11-16T13:51:18Z</time>
      </trkpt>
      <trkpt lat="44.78617" lon="-0.29769">
        <ele>82</ele>
        <time>2013-11-16T13:51:21Z</time>
      </trkpt>
      <trkpt lat="44.78583" lon="-0.29793">
        <ele>81</ele>
        <time>2013-11-16T13:51:30Z</time>
      </trkpt>
      <trkpt lat="44.78546" lon="-0.29815">
        <ele>81</ele>
        <time>2013-11-16T13:51:40Z</time>
      </trkpt>
      <trkpt lat="44.78523" lon="-0.29829">
        <ele>81</ele>
        <time>2013-11-16T13:51:47Z</time>
      </trkpt>
      <trkpt lat="44.78522" lon="-0.29831">
        <ele>81</ele>
        <time>2013-11-16T13:51:48Z</time>
      </trkpt>
      <trkpt lat="44.78521" lon="-0.2983">
        <ele>81</ele>
        <time>2013-11-16T13:51:49Z</time>
      </trkpt>
      <trkpt lat="44.78521" lon="-0.29826">
        <ele>81</ele>
        <time>2013-11-16T13:51:52Z</time>
      </trkpt>
      <trkpt lat="44.78535" lon="-0.29819">
        <ele>81</ele>
        <time>2013-11-16T13:52:01Z</time>
      </trkpt>
      <trkpt lat="44.7855" lon="-0.2981">
        <ele>81</ele>
        <time>2013-11-16T13:52:08Z</time>
      </trkpt>
      <trkpt lat="44.78579" lon="-0.29792">
        <ele>81</ele>
        <time>2013-11-16T13:52:19Z</time>
      </trkpt>
      <trkpt lat="44.78593" lon="-0.29783">
        <ele>82</ele>
        <time>2013-11-16T13:52:26Z</time>
      </trkpt>
      <trkpt lat="44.78594" lon="-0.29782">
        <ele>82</ele>
        <time>2013-11-16T13:52:32Z</time>
      </trkpt>
      <trkpt lat="44.78594" lon="-0.29782">
        <ele>82</ele>
        <time>2013-11-16T13:52:42Z</time>
      </trkpt>
      <trkpt lat="44.78594" lon="-0.29781">
        <ele>82</ele>
        <time>2013-11-16T13:52:52Z</time>
      </trkpt>
      <trkpt lat="44.78593" lon="-0.29781">
        <ele>82</ele>
        <time>2013-11-16T13:53:07Z</time>
      </trkpt>
      <trkpt lat="44.78593" lon="-0.29781">
        <ele>82</ele>
        <time>2013-11-16T13:53:20Z</time>
      </trkpt>
      <trkpt lat="44.78593" lon="-0.29779">
        <ele>82</ele>
        <time>2013-11-16T13:53:26Z</time>
      </trkpt>
      <trkpt lat="44.78594" lon="-0.29779">
        <ele>82</ele>
        <time>2013-11-16T13:53:33Z</time>
      </trkpt>
      <trkpt lat="44.78594" lon="-0.2978">
        <ele>82</ele>
        <time>2013-11-16T13:53:51Z</time>
      </trkpt>
      <trkpt lat="44.78594" lon="-0.2978">
        <ele>82</ele>
        <time>2013-11-16T13:54:10Z</time>
      </trkpt>
      <trkpt lat="44.78594" lon="-0.2978">
        <ele>82</ele>
        <time>2013-11-16T13:54:28Z</time>
      </trkpt>
      <trkpt lat="44.78594" lon="-0.29781">
        <ele>82</ele>
        <time>2013-11-16T13:54:49Z</time>
      </trkpt>
      <trkpt lat="44.78594" lon="-0.2978">
        <ele>82</ele>
        <time>2013-11-16T13:55:07Z</time>
      </trkpt>
      <trkpt lat="44.78594" lon="-0.2978">
        <ele>82</ele>
        <time>2013-11-16T13:55:27Z</time>
      </trkpt>
      <trkpt lat="44.78594" lon="-0.2978">
        <ele>82</ele>
        <time>2013-11-16T13:55:37Z</time>
      </trkpt>
      <trkpt lat="44.78594" lon="-0.2978">
        <ele>82</ele>
        <time>2013-11-16T13:55:46Z</time>
      </trkpt>
      <trkpt lat="44.78594" lon="-0.29779">
        <ele>82</ele>
        <time>2013-11-16T13:56:00Z</time>
      </trkpt>
      <trkpt lat="44.78594" lon="-0.29779">
        <ele>82</ele>
        <time>2013-11-16T13:56:15Z</time>
      </trkpt>
      <trkpt lat="44.78593" lon="-0.29779">
        <ele>82</ele>
        <time>2013-11-16T13:56:32Z</time>
      </trkpt>
      <trkpt lat="44.78593" lon="-0.29779">
        <ele>82</ele>
        <time>2013-11-16T13:56:44Z</time>
      </trkpt>
      <trkpt lat="44.78593" lon="-0.2978">
        <ele>81</ele>
        <time>2013-11-16T13:57:02Z</time>
      </trkpt>
      <trkpt lat="44.78592" lon="-0.2978">
        <ele>81</ele>
        <time>2013-11-16T13:57:18Z</time>
      </trkpt>
      <trkpt lat="44.78593" lon="-0.2978">
        <ele>81</ele>
        <time>2013-11-16T13:57:35Z</time>
      </trkpt>
      <trkpt lat="44.78592" lon="-0.2978">
        <ele>81</ele>
        <time>2013-11-16T13:57:55Z</time>
      </trkpt>
      <trkpt lat="44.78593" lon="-0.29781">
        <ele>81</ele>
        <time>2013-11-16T13:58:13Z</time>
      </trkpt>
      <trkpt lat="44.78593" lon="-0.29782">
        <ele>81</ele>
        <time>2013-11-16T13:58:32Z</time>
      </trkpt>
      <trkpt lat="44.78593" lon="-0.29782">
        <ele>82</ele>
        <time>2013-11-16T13:58:43Z</time>
      </trkpt>
      <trkpt lat="44.78594" lon="-0.29781">
        <ele>82</ele>
        <time>2013-11-16T13:58:56Z</time>
      </trkpt>
      <trkpt lat="44.78594" lon="-0.29781">
        <ele>82</ele>
        <time>2013-11-16T13:59:09Z</time>
      </trkpt>
      <trkpt lat="44.78594" lon="-0.2978">
        <ele>82</ele>
        <time>2013-11-16T13:59:28Z</time>
      </trkpt>
      <trkpt lat="44.78593" lon="-0.2978">
        <ele>82</ele>
        <time>2013-11-16T13:59:46Z</time>
      </trkpt>
      <trkpt lat="44.78593" lon="-0.2978">
        <ele>81</ele>
        <time>2013-11-16T14:00:01Z</time>
      </trkpt>
      <trkpt lat="44.78593" lon="-0.2978">
        <ele>81</ele>
        <time>2013-11-16T14:00:22Z</time>
      </trkpt>
      <trkpt lat="44.78593" lon="-0.2978">
        <ele>81</ele>
        <time>2013-11-16T14:00:35Z</time>
      </trkpt>
      <trkpt lat="44.78593" lon="-0.2978">
        <ele>81</ele>
        <time>2013-11-16T14:00:53Z</time>
      </trkpt>
      <trkpt lat="44.78593" lon="-0.2978">
        <ele>82</ele>
        <time>2013-11-16T14:01:12Z</time>
      </trkpt>
      <trkpt lat="44.78593" lon="-0.2978">
        <ele>82</ele>
        <time>2013-11-16T14:01:33Z</time>
      </trkpt>
      <trkpt lat="44.78594" lon="-0.29781">
        <ele>82</ele>
        <time>2013-11-16T14:01:59Z</time>
      </trkpt>
      <trkpt lat="44.78594" lon="-0.29781">
        <ele>82</ele>
        <time>2013-11-16T14:02:19Z</time>
      </trkpt>
      <trkpt lat="44.78593" lon="-0.29781">
        <ele>82</ele>
        <time>2013-11-16T14:02:43Z</time>
      </trkpt>
      <trkpt lat="44.78593" lon="-0.29781">
        <ele>81</ele>
        <time>2013-11-16T14:03:02Z</time>
      </trkpt>
      <trkpt lat="44.78593" lon="-0.29782">
        <ele>82</ele>
        <time>2013-11-16T14:03:20Z</time>
      </trkpt>
      <trkpt lat="44.78593" lon="-0.29781">
        <ele>82</ele>
        <time>2013-11-16T14:03:39Z</time>
      </trkpt>
      <trkpt lat="44.78593" lon="-0.2978">
        <ele>82</ele>
        <time>2013-11-16T14:03:58Z</time>
      </trkpt>
      <trkpt lat="44.78593" lon="-0.2978">
        <ele>82</ele>
        <time>2013-11-16T14:04:18Z</time>
      </trkpt>
      <trkpt lat="44.78593" lon="-0.29781">
        <ele>82</ele>
        <time>2013-11-16T14:04:27Z</time>
      </trkpt>
      <trkpt lat="44.78595" lon="-0.29784">
        <ele>82</ele>
        <time>2013-11-16T14:04:34Z</time>
      </trkpt>
      <trkpt lat="44.78595" lon="-0.29785">
        <ele>82</ele>
        <time>2013-11-16T14:04:37Z</time>
      </trkpt>
      <trkpt lat="44.78589" lon="-0.29788">
        <ele>81</ele>
        <time>2013-11-16T14:04:42Z</time>
      </trkpt>
      <trkpt lat="44.7858" lon="-0.29795">
        <ele>81</ele>
        <time>2013-11-16T14:04:50Z</time>
      </trkpt>
      <trkpt lat="44.78564" lon="-0.29805">
        <ele>81</ele>
        <time>2013-11-16T14:04:58Z</time>
      </trkpt>
      <trkpt lat="44.78545" lon="-0.29814">
        <ele>81</ele>
        <time>2013-11-16T14:05:05Z</time>
      </trkpt>
      <trkpt lat="44.78523" lon="-0.29828">
        <ele>81</ele>
        <time>2013-11-16T14:05:12Z</time>
      </trkpt>
      <trkpt lat="44.78497" lon="-0.29843">
        <ele>82</ele>
        <time>2013-11-16T14:05:21Z</time>
      </trkpt>
      <trkpt lat="44.78471" lon="-0.2986">
        <ele>82</ele>
        <time>2013-11-16T14:05:30Z</time>
      </trkpt>
      <trkpt lat="44.7844" lon="-0.29883">
        <ele>83</ele>
        <time>2013-11-16T14:05:40Z</time>
      </trkpt>
      <trkpt lat="44.78411" lon="-0.29905">
        <ele>84</ele>
        <time>2013-11-16T14:05:49Z</time>
      </trkpt>
      <trkpt lat="44.78388" lon="-0.29927">
        <ele>84</ele>
        <time>2013-11-16T14:05:57Z</time>
      </trkpt>
      <trkpt lat="44.78363" lon="-0.29951">
        <ele>85</ele>
        <time>2013-11-16T14:06:06Z</time>
      </trkpt>
      <trkpt lat="44.78336" lon="-0.29979">
        <ele>86</ele>
        <time>2013-11-16T14:06:16Z</time>
      </trkpt>
      <trkpt lat="44.78314" lon="-0.3">
        <ele>86</ele>
        <time>2013-11-16T14:06:24Z</time>
      </trkpt>
      <trkpt lat="44.78287" lon="-0.30019">
        <ele>86</ele>
        <time>2013-11-16T14:06:33Z</time>
      </trkpt>
      <trkpt lat="44.78258" lon="-0.30031">
        <ele>89</ele>
        <time>2013-11-16T14:06:42Z</time>
      </trkpt>
      <trkpt lat="44.78234" lon="-0.30038">
        <ele>90</ele>
        <time>2013-11-16T14:06:50Z</time>
      </trkpt>
      <trkpt lat="44.78228" lon="-0.30045">
        <ele>90</ele>
        <time>2013-11-16T14:06:53Z</time>
      </trkpt>
      <trkpt lat="44.78222" lon="-0.3006">
        <ele>91</ele>
        <time>2013-11-16T14:06:58Z</time>
      </trkpt>
      <trkpt lat="44.7822" lon="-0.30063">
        <ele>91</ele>
        <time>2013-11-16T14:06:59Z</time>
      </trkpt>
      <trkpt lat="44.78203" lon="-0.30079">
        <ele>93</ele>
        <time>2013-11-16T14:07:06Z</time>
      </trkpt>
      <trkpt lat="44.78192" lon="-0.30089">
        <ele>93</ele>
        <time>2013-11-16T14:07:12Z</time>
      </trkpt>
      <trkpt lat="44.78178" lon="-0.30115">
        <ele>94</ele>
        <time>2013-11-16T14:07:19Z</time>
      </trkpt>
      <trkpt lat="44.78169" lon="-0.30134">
        <ele>94</ele>
        <time>2013-11-16T14:07:25Z</time>
      </trkpt>
      <trkpt lat="44.78161" lon="-0.30158">
        <ele>95</ele>
        <time>2013-11-16T14:07:32Z</time>
      </trkpt>
      <trkpt lat="44.78156" lon="-0.30176">
        <ele>97</ele>
        <time>2013-11-16T14:07:37Z</time>
      </trkpt>
      <trkpt lat="44.78152" lon="-0.30187">
        <ele>97</ele>
        <time>2013-11-16T14:07:40Z</time>
      </trkpt>
      <trkpt lat="44.78144" lon="-0.30209">
        <ele>98</ele>
        <time>2013-11-16T14:07:47Z</time>
      </trkpt>
      <trkpt lat="44.78136" lon="-0.30228">
        <ele>99</ele>
        <time>2013-11-16T14:07:54Z</time>
      </trkpt>
      <trkpt lat="44.78126" lon="-0.30244">
        <ele>99</ele>
        <time>2013-11-16T14:08:01Z</time>
      </trkpt>
      <trkpt lat="44.78118" lon="-0.30264">
        <ele>100</ele>
        <time>2013-11-16T14:08:08Z</time>
      </trkpt>
      <trkpt lat="44.78111" lon="-0.30282">
        <ele>101</ele>
        <time>2013-11-16T14:08:15Z</time>
      </trkpt>
      <trkpt lat="44.78106" lon="-0.303">
        <ele>101</ele>
        <time>2013-11-16T14:08:22Z</time>
      </trkpt>
      <trkpt lat="44.78101" lon="-0.30316">
        <ele>102</ele>
        <time>2013-11-16T14:08:29Z</time>
      </trkpt>
      <trkpt lat="44.781" lon="-0.3032">
        <ele>102</ele>
        <time>2013-11-16T14:08:31Z</time>
      </trkpt>
      <trkpt lat="44.78095" lon="-0.30339">
        <ele>102</ele>
        <time>2013-11-16T14:08:38Z</time>
      </trkpt>
      <trkpt lat="44.78094" lon="-0.30343">
        <ele>102</ele>
        <time>2013-11-16T14:08:40Z</time>
      </trkpt>
      <trkpt lat="44.78091" lon="-0.3036">
        <ele>102</ele>
        <time>2013-11-16T14:08:46Z</time>
      </trkpt>
      <trkpt lat="44.78087" lon="-0.30378">
        <ele>102</ele>
        <time>2013-11-16T14:08:51Z</time>
      </trkpt>
      <trkpt lat="44.78082" lon="-0.304">
        <ele>102</ele>
        <time>2013-11-16T14:08:57Z</time>
      </trkpt>
      <trkpt lat="44.78081" lon="-0.30425">
        <ele>101</ele>
        <time>2013-11-16T14:09:04Z</time>
      </trkpt>
      <trkpt lat="44.78082" lon="-0.30431">
        <ele>101</ele>
        <time>2013-11-16T14:09:06Z</time>
      </trkpt>
      <trkpt lat="44.78078" lon="-0.30446">
        <ele>101</ele>
        <time>2013-11-16T14:09:11Z</time>
      </trkpt>
      <trkpt lat="44.78063" lon="-0.30484">
        <ele>100</ele>
        <time>2013-11-16T14:09:19Z</time>
      </trkpt>
      <trkpt lat="44.78055" lon="-0.30503">
        <ele>100</ele>
        <time>2013-11-16T14:09:23Z</time>
      </trkpt>
      <trkpt lat="44.78046" lon="-0.30525">
        <ele>99</ele>
        <time>2013-11-16T14:09:29Z</time>
      </trkpt>
      <trkpt lat="44.78045" lon="-0.30547">
        <ele>96</ele>
        <time>2013-11-16T14:09:33Z</time>
      </trkpt>
      <trkpt lat="44.78052" lon="-0.30568">
        <ele>94</ele>
        <time>2013-11-16T14:09:38Z</time>
      </trkpt>
      <trkpt lat="44.78057" lon="-0.30578">
        <ele>92</ele>
        <time>2013-11-16T14:09:41Z</time>
      </trkpt>
      <trkpt lat="44.78053" lon="-0.3059">
        <ele>91</ele>
        <time>2013-11-16T14:09:48Z</time>
      </trkpt>
      <trkpt lat="44.78051" lon="-0.30591">
        <ele>91</ele>
        <time>2013-11-16T14:09:55Z</time>
      </trkpt>
      <trkpt lat="44.78047" lon="-0.30597">
        <ele>91</ele>
        <time>2013-11-16T14:10:01Z</time>
      </trkpt>
      <trkpt lat="44.78042" lon="-0.306">
        <ele>91</ele>
        <time>2013-11-16T14:10:07Z</time>
      </trkpt>
      <trkpt lat="44.7804" lon="-0.30601">
        <ele>91</ele>
        <time>2013-11-16T14:10:14Z</time>
      </trkpt>
      <trkpt lat="44.78039" lon="-0.30602">
        <ele>91</ele>
        <time>2013-11-16T14:10:24Z</time>
      </trkpt>
      <trkpt lat="44.78037" lon="-0.30602">
        <ele>91</ele>
        <time>2013-11-16T14:10:33Z</time>
      </trkpt>
      <trkpt lat="44.78037" lon="-0.30601">
        <ele>91</ele>
        <time>2013-11-16T14:10:42Z</time>
      </trkpt>
      <trkpt lat="44.78036" lon="-0.30602">
        <ele>91</ele>
        <time>2013-11-16T14:10:54Z</time>
      </trkpt>
      <trkpt lat="44.78036" lon="-0.30602">
        <ele>91</ele>
        <time>2013-11-16T14:11:06Z</time>
      </trkpt>
      <trkpt lat="44.78037" lon="-0.30603">
        <ele>91</ele>
        <time>2013-11-16T14:11:20Z</time>
      </trkpt>
      <trkpt lat="44.78037" lon="-0.30603">
        <ele>91</ele>
        <time>2013-11-16T14:11:29Z</time>
      </trkpt>
      <trkpt lat="44.78032" lon="-0.30602">
        <ele>91</ele>
        <time>2013-11-16T14:11:36Z</time>
      </trkpt>
      <trkpt lat="44.78028" lon="-0.30605">
        <ele>91</ele>
        <time>2013-11-16T14:11:40Z</time>
      </trkpt>
      <trkpt lat="44.7802" lon="-0.3061">
        <ele>91</ele>
        <time>2013-11-16T14:11:47Z</time>
      </trkpt>
      <trkpt lat="44.78013" lon="-0.30615">
        <ele>91</ele>
        <time>2013-11-16T14:11:53Z</time>
      </trkpt>
      <trkpt lat="44.78002" lon="-0.3062">
        <ele>91</ele>
        <time>2013-11-16T14:11:59Z</time>
      </trkpt>
      <trkpt lat="44.77994" lon="-0.30628">
        <ele>91</ele>
        <time>2013-11-16T14:12:03Z</time>
      </trkpt>
      <trkpt lat="44.77983" lon="-0.30634">
        <ele>92</ele>
        <time>2013-11-16T14:12:09Z</time>
      </trkpt>
      <trkpt lat="44.77979" lon="-0.30638">
        <ele>92</ele>
        <time>2013-11-16T14:12:13Z</time>
      </trkpt>
      <trkpt lat="44.77972" lon="-0.30647">
        <ele>92</ele>
        <time>2013-11-16T14:12:19Z</time>
      </trkpt>
      <trkpt lat="44.77962" lon="-0.30654">
        <ele>92</ele>
        <time>2013-11-16T14:12:26Z</time>
      </trkpt>
      <trkpt lat="44.77958" lon="-0.30659">
        <ele>92</ele>
        <time>2013-11-16T14:12:30Z</time>
      </trkpt>
      <trkpt lat="44.77946" lon="-0.30669">
        <ele>92</ele>
        <time>2013-11-16T14:12:36Z</time>
      </trkpt>
      <trkpt lat="44.77938" lon="-0.30677">
        <ele>92</ele>
        <time>2013-11-16T14:12:41Z</time>
      </trkpt>
      <trkpt lat="44.77936" lon="-0.30678">
        <ele>92</ele>
        <time>2013-11-16T14:12:42Z</time>
      </trkpt>
      <trkpt lat="44.77921" lon="-0.30692">
        <ele>92</ele>
        <time>2013-11-16T14:12:49Z</time>
      </trkpt>
      <trkpt lat="44.77918" lon="-0.30696">
        <ele>91</ele>
        <time>2013-11-16T14:12:53Z</time>
      </trkpt>
      <trkpt lat="44.77911" lon="-0.30704">
        <ele>91</ele>
        <time>2013-11-16T14:12:58Z</time>
      </trkpt>
      <trkpt lat="44.77895" lon="-0.30719">
        <ele>90</ele>
        <time>2013-11-16T14:13:04Z</time>
      </trkpt>
      <trkpt lat="44.77888" lon="-0.30723">
        <ele>90</ele>
        <time>2013-11-16T14:13:09Z</time>
      </trkpt>
      <trkpt lat="44.77885" lon="-0.30723">
        <ele>90</ele>
        <time>2013-11-16T14:13:16Z</time>
      </trkpt>
      <trkpt lat="44.77884" lon="-0.30724">
        <ele>90</ele>
        <time>2013-11-16T14:13:17Z</time>
      </trkpt>
      <trkpt lat="44.77872" lon="-0.30735">
        <ele>88</ele>
        <time>2013-11-16T14:13:24Z</time>
      </trkpt>
      <trkpt lat="44.77862" lon="-0.30741">
        <ele>87</ele>
        <time>2013-11-16T14:13:30Z</time>
      </trkpt>
      <trkpt lat="44.7786" lon="-0.30743">
        <ele>87</ele>
        <time>2013-11-16T14:13:31Z</time>
      </trkpt>
      <trkpt lat="44.77847" lon="-0.30744">
        <ele>86</ele>
        <time>2013-11-16T14:13:36Z</time>
      </trkpt>
      <trkpt lat="44.77842" lon="-0.30741">
        <ele>86</ele>
        <time>2013-11-16T14:13:43Z</time>
      </trkpt>
      <trkpt lat="44.77838" lon="-0.30737">
        <ele>87</ele>
        <time>2013-11-16T14:13:50Z</time>
      </trkpt>
      <trkpt lat="44.77837" lon="-0.30738">
        <ele>86</ele>
        <time>2013-11-16T14:13:58Z</time>
      </trkpt>
      <trkpt lat="44.77836" lon="-0.3074">
        <ele>86</ele>
        <time>2013-11-16T14:14:05Z</time>
      </trkpt>
      <trkpt lat="44.77837" lon="-0.30745">
        <ele>86</ele>
        <time>2013-11-16T14:14:11Z</time>
      </trkpt>
      <trkpt lat="44.77834" lon="-0.30747">
        <ele>85</ele>
        <time>2013-11-16T14:14:20Z</time>
      </trkpt>
      <trkpt lat="44.77833" lon="-0.30748">
        <ele>85</ele>
        <time>2013-11-16T14:14:33Z</time>
      </trkpt>
      <trkpt lat="44.77831" lon="-0.30747">
        <ele>85</ele>
        <time>2013-11-16T14:14:39Z</time>
      </trkpt>
      <trkpt lat="44.77831" lon="-0.30748">
        <ele>85</ele>
        <time>2013-11-16T14:14:49Z</time>
      </trkpt>
      <trkpt lat="44.77831" lon="-0.30748">
        <ele>85</ele>
        <time>2013-11-16T14:15:06Z</time>
      </trkpt>
      <trkpt lat="44.7783" lon="-0.30749">
        <ele>85</ele>
        <time>2013-11-16T14:15:16Z</time>
      </trkpt>
      <trkpt lat="44.77829" lon="-0.3075">
        <ele>85</ele>
        <time>2013-11-16T14:15:29Z</time>
      </trkpt>
      <trkpt lat="44.77829" lon="-0.3075">
        <ele>85</ele>
        <time>2013-11-16T14:15:37Z</time>
      </trkpt>
      <trkpt lat="44.77829" lon="-0.3075">
        <ele>85</ele>
        <time>2013-11-16T14:15:52Z</time>
      </trkpt>
      <trkpt lat="44.77828" lon="-0.3075">
        <ele>85</ele>
        <time>2013-11-16T14:16:04Z</time>
      </trkpt>
      <trkpt lat="44.77828" lon="-0.3075">
        <ele>85</ele>
        <time>2013-11-16T14:16:19Z</time>
      </trkpt>
      <trkpt lat="44.77827" lon="-0.3075">
        <ele>85</ele>
        <time>2013-11-16T14:16:31Z</time>
      </trkpt>
      <trkpt lat="44.77813" lon="-0.30753">
        <ele>84</ele>
        <time>2013-11-16T14:16:40Z</time>
      </trkpt>
      <trkpt lat="44.77794" lon="-0.3076">
        <ele>83</ele>
        <time>2013-11-16T14:16:45Z</time>
      </trkpt>
      <trkpt lat="44.77789" lon="-0.3076">
        <ele>83</ele>
        <time>2013-11-16T14:16:46Z</time>
      </trkpt>
      <trkpt lat="44.77779" lon="-0.30758">
        <ele>83</ele>
        <time>2013-11-16T14:16:48Z</time>
      </trkpt>
      <trkpt lat="44.77754" lon="-0.30758">
        <ele>82</ele>
        <time>2013-11-16T14:16:52Z</time>
      </trkpt>
      <trkpt lat="44.77748" lon="-0.30759">
        <ele>82</ele>
        <time>2013-11-16T14:16:53Z</time>
      </trkpt>
      <trkpt lat="44.77743" lon="-0.3076">
        <ele>82</ele>
        <time>2013-11-16T14:16:54Z</time>
      </trkpt>
      <trkpt lat="44.77732" lon="-0.30765">
        <ele>82</ele>
        <time>2013-11-16T14:16:58Z</time>
      </trkpt>
      <trkpt lat="44.77723" lon="-0.30772">
        <ele>81</ele>
        <time>2013-11-16T14:17:03Z</time>
      </trkpt>
      <trkpt lat="44.77704" lon="-0.30786">
        <ele>81</ele>
        <time>2013-11-16T14:17:10Z</time>
      </trkpt>
      <trkpt lat="44.77677" lon="-0.30809">
        <ele>82</ele>
        <time>2013-11-16T14:17:19Z</time>
      </trkpt>
      <trkpt lat="44.77655" lon="-0.30827">
        <ele>81</ele>
        <time>2013-11-16T14:17:27Z</time>
      </trkpt>
      <trkpt lat="44.77629" lon="-0.30854">
        <ele>81</ele>
        <time>2013-11-16T14:17:35Z</time>
      </trkpt>
      <trkpt lat="44.77625" lon="-0.30858">
        <ele>80</ele>
        <time>2013-11-16T14:17:36Z</time>
      </trkpt>
      <trkpt lat="44.77588" lon="-0.30888">
        <ele>78</ele>
        <time>2013-11-16T14:17:42Z</time>
      </trkpt>
      <trkpt lat="44.77544" lon="-0.30923">
        <ele>77</ele>
        <time>2013-11-16T14:17:49Z</time>
      </trkpt>
      <trkpt lat="44.77499" lon="-0.3096">
        <ele>77</ele>
        <time>2013-11-16T14:17:57Z</time>
      </trkpt>
      <trkpt lat="44.77482" lon="-0.30973">
        <ele>76</ele>
        <time>2013-11-16T14:18:00Z</time>
      </trkpt>
      <trkpt lat="44.77476" lon="-0.30976">
        <ele>76</ele>
        <time>2013-11-16T14:18:01Z</time>
      </trkpt>
      <trkpt lat="44.7747" lon="-0.30978">
        <ele>76</ele>
        <time>2013-11-16T14:18:02Z</time>
      </trkpt>
      <trkpt lat="44.77464" lon="-0.3098">
        <ele>76</ele>
        <time>2013-11-16T14:18:03Z</time>
      </trkpt>
      <trkpt lat="44.77457" lon="-0.30981">
        <ele>76</ele>
        <time>2013-11-16T14:18:04Z</time>
      </trkpt>
      <trkpt lat="44.77451" lon="-0.30981">
        <ele>75</ele>
        <time>2013-11-16T14:18:05Z</time>
      </trkpt>
      <trkpt lat="44.77399" lon="-0.30983">
        <ele>72</ele>
        <time>2013-11-16T14:18:12Z</time>
      </trkpt>
      <trkpt lat="44.77366" lon="-0.3099">
        <ele>70</ele>
        <time>2013-11-16T14:18:16Z</time>
      </trkpt>
      <trkpt lat="44.77359" lon="-0.30995">
        <ele>69</ele>
        <time>2013-11-16T14:18:17Z</time>
      </trkpt>
      <trkpt lat="44.77353" lon="-0.31003">
        <ele>69</ele>
        <time>2013-11-16T14:18:18Z</time>
      </trkpt>
      <trkpt lat="44.77347" lon="-0.31012">
        <ele>69</ele>
        <time>2013-11-16T14:18:19Z</time>
      </trkpt>
      <trkpt lat="44.77342" lon="-0.31022">
        <ele>69</ele>
        <time>2013-11-16T14:18:20Z</time>
      </trkpt>
      <trkpt lat="44.77317" lon="-0.31072">
        <ele>68</ele>
        <time>2013-11-16T14:18:26Z</time>
      </trkpt>
      <trkpt lat="44.77295" lon="-0.31115">
        <ele>68</ele>
        <time>2013-11-16T14:18:33Z</time>
      </trkpt>
      <trkpt lat="44.77271" lon="-0.31159">
        <ele>66</ele>
        <time>2013-11-16T14:18:40Z</time>
      </trkpt>
      <trkpt lat="44.77266" lon="-0.31163">
        <ele>66</ele>
        <time>2013-11-16T14:18:41Z</time>
      </trkpt>
      <trkpt lat="44.77262" lon="-0.31166">
        <ele>66</ele>
        <time>2013-11-16T14:18:42Z</time>
      </trkpt>
      <trkpt lat="44.77257" lon="-0.31167">
        <ele>66</ele>
        <time>2013-11-16T14:18:43Z</time>
      </trkpt>
      <trkpt lat="44.77252" lon="-0.31168">
        <ele>66</ele>
        <time>2013-11-16T14:18:44Z</time>
      </trkpt>
      <trkpt lat="44.77247" lon="-0.31168">
        <ele>66</ele>
        <time>2013-11-16T14:18:45Z</time>
      </trkpt>
      <trkpt lat="44.77242" lon="-0.31167">
        <ele>66</ele>
        <time>2013-11-16T14:18:46Z</time>
      </trkpt>
      <trkpt lat="44.77237" lon="-0.31165">
        <ele>66</ele>
        <time>2013-11-16T14:18:47Z</time>
      </trkpt>
      <trkpt lat="44.77232" lon="-0.31163">
        <ele>66</ele>
        <time>2013-11-16T14:18:48Z</time>
      </trkpt>
      <trkpt lat="44.77227" lon="-0.3116">
        <ele>66</ele>
        <time>2013-11-16T14:18:49Z</time>
      </trkpt>
      <trkpt lat="44.77208" lon="-0.31148">
        <ele>68</ele>
        <time>2013-11-16T14:18:53Z</time>
      </trkpt>
      <trkpt lat="44.77198" lon="-0.31141">
        <ele>68</ele>
        <time>2013-11-16T14:18:55Z</time>
      </trkpt>
      <trkpt lat="44.77173" lon="-0.31125">
        <ele>69</ele>
        <time>2013-11-16T14:19:00Z</time>
      </trkpt>
      <trkpt lat="44.77133" lon="-0.31095">
        <ele>72</ele>
        <time>2013-11-16T14:19:08Z</time>
      </trkpt>
      <trkpt lat="44.771" lon="-0.31071">
        <ele>74</ele>
        <time>2013-11-16T14:19:16Z</time>
      </trkpt>
      <trkpt lat="44.7707" lon="-0.3105">
        <ele>76</ele>
        <time>2013-11-16T14:19:24Z</time>
      </trkpt>
      <trkpt lat="44.77041" lon="-0.31028">
        <ele>79</ele>
        <time>2013-11-16T14:19:33Z</time>
      </trkpt>
      <trkpt lat="44.77024" lon="-0.31015">
        <ele>80</ele>
        <time>2013-11-16T14:19:40Z</time>
      </trkpt>
      <trkpt lat="44.77015" lon="-0.31007">
        <ele>80</ele>
        <time>2013-11-16T14:19:45Z</time>
      </trkpt>
      <trkpt lat="44.77015" lon="-0.31005">
        <ele>80</ele>
        <time>2013-11-16T14:19:46Z</time>
      </trkpt>
      <trkpt lat="44.77014" lon="-0.31002">
        <ele>80</ele>
        <time>2013-11-16T14:19:47Z</time>
      </trkpt>
      <trkpt lat="44.77014" lon="-0.31">
        <ele>80</ele>
        <time>2013-11-16T14:19:48Z</time>
      </trkpt>
      <trkpt lat="44.77015" lon="-0.30997">
        <ele>80</ele>
        <time>2013-11-16T14:19:49Z</time>
      </trkpt>
      <trkpt lat="44.77015" lon="-0.30995">
        <ele>79</ele>
        <time>2013-11-16T14:19:50Z</time>
      </trkpt>
      <trkpt lat="44.77017" lon="-0.30992">
        <ele>79</ele>
        <time>2013-11-16T14:19:51Z</time>
      </trkpt>
      <trkpt lat="44.77018" lon="-0.3099">
        <ele>79</ele>
        <time>2013-11-16T14:19:52Z</time>
      </trkpt>
      <trkpt lat="44.77028" lon="-0.30975">
        <ele>78</ele>
        <time>2013-11-16T14:20:01Z</time>
      </trkpt>
      <trkpt lat="44.7703" lon="-0.30974">
        <ele>78</ele>
        <time>2013-11-16T14:20:15Z</time>
      </trkpt>
      <trkpt lat="44.7703" lon="-0.30974">
        <ele>78</ele>
        <time>2013-11-16T14:20:28Z</time>
      </trkpt>
      <trkpt lat="44.7703" lon="-0.30974">
        <ele>78</ele>
        <time>2013-11-16T14:20:41Z</time>
      </trkpt>
      <trkpt lat="44.7703" lon="-0.30975">
        <ele>78</ele>
        <time>2013-11-16T14:20:54Z</time>
      </trkpt>
      <trkpt lat="44.77032" lon="-0.30973">
        <ele>78</ele>
        <time>2013-11-16T14:21:05Z</time>
      </trkpt>
      <trkpt lat="44.77042" lon="-0.30959">
        <ele>78</ele>
        <time>2013-11-16T14:21:12Z</time>
      </trkpt>
      <trkpt lat="44.77042" lon="-0.30956">
        <ele>78</ele>
        <time>2013-11-16T14:21:13Z</time>
      </trkpt>
      <trkpt lat="44.77041" lon="-0.30954">
        <ele>78</ele>
        <time>2013-11-16T14:21:14Z</time>
      </trkpt>
      <trkpt lat="44.7704" lon="-0.30951">
        <ele>78</ele>
        <time>2013-11-16T14:21:15Z</time>
      </trkpt>
      <trkpt lat="44.77038" lon="-0.30948">
        <ele>78</ele>
        <time>2013-11-16T14:21:16Z</time>
      </trkpt>
      <trkpt lat="44.77024" lon="-0.30928">
        <ele>79</ele>
        <time>2013-11-16T14:21:22Z</time>
      </trkpt>
      <trkpt lat="44.77004" lon="-0.30897">
        <ele>79</ele>
        <time>2013-11-16T14:21:31Z</time>
      </trkpt>
      <trkpt lat="44.76987" lon="-0.30875">
        <ele>80</ele>
        <time>2013-11-16T14:21:37Z</time>
      </trkpt>
      <trkpt lat="44.76984" lon="-0.3087">
        <ele>80</ele>
        <time>2013-11-16T14:21:38Z</time>
      </trkpt>
      <trkpt lat="44.76976" lon="-0.30857">
        <ele>81</ele>
        <time>2013-11-16T14:21:41Z</time>
      </trkpt>
      <trkpt lat="44.76973" lon="-0.30854">
        <ele>81</ele>
        <time>2013-11-16T14:21:42Z</time>
      </trkpt>
      <trkpt lat="44.7697" lon="-0.30849">
        <ele>81</ele>
        <time>2013-11-16T14:21:43Z</time>
      </trkpt>
      <trkpt lat="44.76969" lon="-0.30844">
        <ele>81</ele>
        <time>2013-11-16T14:21:44Z</time>
      </trkpt>
      <trkpt lat="44.76969" lon="-0.30839">
        <ele>81</ele>
        <time>2013-11-16T14:21:45Z</time>
      </trkpt>
      <trkpt lat="44.7697" lon="-0.30834">
        <ele>81</ele>
        <time>2013-11-16T14:21:46Z</time>
      </trkpt>
      <trkpt lat="44.76973" lon="-0.30829">
        <ele>81</ele>
        <time>2013-11-16T14:21:47Z</time>
      </trkpt>
      <trkpt lat="44.76976" lon="-0.30823">
        <ele>80</ele>
        <time>2013-11-16T14:21:48Z</time>
      </trkpt>
      <trkpt lat="44.76998" lon="-0.30777">
        <ele>79</ele>
        <time>2013-11-16T14:21:55Z</time>
      </trkpt>
      <trkpt lat="44.77016" lon="-0.30722">
        <ele>77</ele>
        <time>2013-11-16T14:22:02Z</time>
      </trkpt>
      <trkpt lat="44.77022" lon="-0.30696">
        <ele>75</ele>
        <time>2013-11-16T14:22:05Z</time>
      </trkpt>
      <trkpt lat="44.77023" lon="-0.30687">
        <ele>75</ele>
        <time>2013-11-16T14:22:06Z</time>
      </trkpt>
      <trkpt lat="44.77023" lon="-0.30678">
        <ele>74</ele>
        <time>2013-11-16T14:22:07Z</time>
      </trkpt>
      <trkpt lat="44.77022" lon="-0.30669">
        <ele>74</ele>
        <time>2013-11-16T14:22:08Z</time>
      </trkpt>
      <trkpt lat="44.77019" lon="-0.30661">
        <ele>73</ele>
        <time>2013-11-16T14:22:09Z</time>
      </trkpt>
      <trkpt lat="44.77014" lon="-0.30654">
        <ele>73</ele>
        <time>2013-11-16T14:22:10Z</time>
      </trkpt>
      <trkpt lat="44.77008" lon="-0.30649">
        <ele>73</ele>
        <time>2013-11-16T14:22:11Z</time>
      </trkpt>
      <trkpt lat="44.77002" lon="-0.30645">
        <ele>73</ele>
        <time>2013-11-16T14:22:12Z</time>
      </trkpt>
      <trkpt lat="44.76996" lon="-0.30642">
        <ele>73</ele>
        <time>2013-11-16T14:22:13Z</time>
      </trkpt>
      <trkpt lat="44.7699" lon="-0.3064">
        <ele>73</ele>
        <time>2013-11-16T14:22:14Z</time>
      </trkpt>
      <trkpt lat="44.76941" lon="-0.30624">
        <ele>72</ele>
        <time>2013-11-16T14:22:22Z</time>
      </trkpt>
      <trkpt lat="44.76924" lon="-0.30617">
        <ele>72</ele>
        <time>2013-11-16T14:22:25Z</time>
      </trkpt>
      <trkpt lat="44.7692" lon="-0.30612">
        <ele>72</ele>
        <time>2013-11-16T14:22:26Z</time>
      </trkpt>
      <trkpt lat="44.76919" lon="-0.30605">
        <ele>72</ele>
        <time>2013-11-16T14:22:27Z</time>
      </trkpt>
      <trkpt lat="44.7692" lon="-0.30598">
        <ele>72</ele>
        <time>2013-11-16T14:22:28Z</time>
      </trkpt>
      <trkpt lat="44.76921" lon="-0.30591">
        <ele>71</ele>
        <time>2013-11-16T14:22:29Z</time>
      </trkpt>
      <trkpt lat="44.76923" lon="-0.30584">
        <ele>71</ele>
        <time>2013-11-16T14:22:30Z</time>
      </trkpt>
      <trkpt lat="44.7694" lon="-0.30521">
        <ele>70</ele>
        <time>2013-11-16T14:22:39Z</time>
      </trkpt>
      <trkpt lat="44.76942" lon="-0.30514">
        <ele>70</ele>
        <time>2013-11-16T14:22:40Z</time>
      </trkpt>
      <trkpt lat="44.76944" lon="-0.30507">
        <ele>70</ele>
        <time>2013-11-16T14:22:41Z</time>
      </trkpt>
      <trkpt lat="44.76946" lon="-0.305">
        <ele>70</ele>
        <time>2013-11-16T14:22:42Z</time>
      </trkpt>
      <trkpt lat="44.76955" lon="-0.30421">
        <ele>72</ele>
        <time>2013-11-16T14:22:52Z</time>
      </trkpt>
      <trkpt lat="44.76961" lon="-0.30369">
        <ele>73</ele>
        <time>2013-11-16T14:22:59Z</time>
      </trkpt>
      <trkpt lat="44.76966" lon="-0.30318">
        <ele>75</ele>
        <time>2013-11-16T14:23:06Z</time>
      </trkpt>
      <trkpt lat="44.76965" lon="-0.30285">
        <ele>76</ele>
        <time>2013-11-16T14:23:12Z</time>
      </trkpt>
      <trkpt lat="44.76959" lon="-0.30252">
        <ele>77</ele>
        <time>2013-11-16T14:23:20Z</time>
      </trkpt>
      <trkpt lat="44.76954" lon="-0.3023">
        <ele>78</ele>
        <time>2013-11-16T14:23:26Z</time>
      </trkpt>
      <trkpt lat="44.76949" lon="-0.30207">
        <ele>79</ele>
        <time>2013-11-16T14:23:33Z</time>
      </trkpt>
      <trkpt lat="44.76943" lon="-0.30183">
        <ele>79</ele>
        <time>2013-11-16T14:23:40Z</time>
      </trkpt>
      <trkpt lat="44.76937" lon="-0.30164">
        <ele>79</ele>
        <time>2013-11-16T14:23:47Z</time>
      </trkpt>
      <trkpt lat="44.76931" lon="-0.30142">
        <ele>80</ele>
        <time>2013-11-16T14:23:54Z</time>
      </trkpt>
      <trkpt lat="44.76925" lon="-0.3012">
        <ele>80</ele>
        <time>2013-11-16T14:24:01Z</time>
      </trkpt>
      <trkpt lat="44.76916" lon="-0.30098">
        <ele>80</ele>
        <time>2013-11-16T14:24:09Z</time>
      </trkpt>
      <trkpt lat="44.76907" lon="-0.30076">
        <ele>81</ele>
        <time>2013-11-16T14:24:16Z</time>
      </trkpt>
      <trkpt lat="44.76898" lon="-0.30054">
        <ele>81</ele>
        <time>2013-11-16T14:24:23Z</time>
      </trkpt>
      <trkpt lat="44.76887" lon="-0.30027">
        <ele>82</ele>
        <time>2013-11-16T14:24:31Z</time>
      </trkpt>
      <trkpt lat="44.76878" lon="-0.3001">
        <ele>83</ele>
        <time>2013-11-16T14:24:37Z</time>
      </trkpt>
      <trkpt lat="44.76866" lon="-0.29989">
        <ele>84</ele>
        <time>2013-11-16T14:24:45Z</time>
      </trkpt>
      <trkpt lat="44.76854" lon="-0.29968">
        <ele>84</ele>
        <time>2013-11-16T14:24:53Z</time>
      </trkpt>
      <trkpt lat="44.76842" lon="-0.29946">
        <ele>86</ele>
        <time>2013-11-16T14:25:01Z</time>
      </trkpt>
      <trkpt lat="44.76831" lon="-0.29926">
        <ele>87</ele>
        <time>2013-11-16T14:25:09Z</time>
      </trkpt>
      <trkpt lat="44.76821" lon="-0.29907">
        <ele>88</ele>
        <time>2013-11-16T14:25:16Z</time>
      </trkpt>
      <trkpt lat="44.76816" lon="-0.29898">
        <ele>88</ele>
        <time>2013-11-16T14:25:21Z</time>
      </trkpt>
      <trkpt lat="44.7681" lon="-0.29886">
        <ele>89</ele>
        <time>2013-11-16T14:25:27Z</time>
      </trkpt>
      <trkpt lat="44.76808" lon="-0.29883">
        <ele>89</ele>
        <time>2013-11-16T14:25:30Z</time>
      </trkpt>
      <trkpt lat="44.76806" lon="-0.29881">
        <ele>89</ele>
        <time>2013-11-16T14:25:32Z</time>
      </trkpt>
      <trkpt lat="44.76806" lon="-0.2988">
        <ele>89</ele>
        <time>2013-11-16T14:25:33Z</time>
      </trkpt>
      <trkpt lat="44.76799" lon="-0.29868">
        <ele>91</ele>
        <time>2013-11-16T14:25:40Z</time>
      </trkpt>
      <trkpt lat="44.76795" lon="-0.29859">
        <ele>91</ele>
        <time>2013-11-16T14:25:46Z</time>
      </trkpt>
      <trkpt lat="44.76791" lon="-0.29851">
        <ele>92</ele>
        <time>2013-11-16T14:25:51Z</time>
      </trkpt>
      <trkpt lat="44.76786" lon="-0.29843">
        <ele>93</ele>
        <time>2013-11-16T14:25:57Z</time>
      </trkpt>
      <trkpt lat="44.76779" lon="-0.2983">
        <ele>94</ele>
        <time>2013-11-16T14:26:06Z</time>
      </trkpt>
      <trkpt lat="44.76778" lon="-0.29828">
        <ele>94</ele>
        <time>2013-11-16T14:26:07Z</time>
      </trkpt>
      <trkpt lat="44.76777" lon="-0.29827">
        <ele>94</ele>
        <time>2013-11-16T14:26:08Z</time>
      </trkpt>
      <trkpt lat="44.76777" lon="-0.29825">
        <ele>94</ele>
        <time>2013-11-16T14:26:09Z</time>
      </trkpt>
      <trkpt lat="44.76776" lon="-0.29824">
        <ele>94</ele>
        <time>2013-11-16T14:26:10Z</time>
      </trkpt>
      <trkpt lat="44.76771" lon="-0.29817">
        <ele>95</ele>
        <time>2013-11-16T14:26:16Z</time>
      </trkpt>
      <trkpt lat="44.76771" lon="-0.29816">
        <ele>95</ele>
        <time>2013-11-16T14:26:17Z</time>
      </trkpt>
      <trkpt lat="44.7677" lon="-0.29814">
        <ele>95</ele>
        <time>2013-11-16T14:26:18Z</time>
      </trkpt>
      <trkpt lat="44.7677" lon="-0.29813">
        <ele>95</ele>
        <time>2013-11-16T14:26:19Z</time>
      </trkpt>
      <trkpt lat="44.7677" lon="-0.29811">
        <ele>95</ele>
        <time>2013-11-16T14:26:20Z</time>
      </trkpt>
      <trkpt lat="44.7677" lon="-0.29809">
        <ele>96</ele>
        <time>2013-11-16T14:26:21Z</time>
      </trkpt>
      <trkpt lat="44.76768" lon="-0.29807">
        <ele>96</ele>
        <time>2013-11-16T14:26:24Z</time>
      </trkpt>
      <trkpt lat="44.76766" lon="-0.29804">
        <ele>96</ele>
        <time>2013-11-16T14:26:27Z</time>
      </trkpt>
      <trkpt lat="44.76766" lon="-0.29802">
        <ele>96</ele>
        <time>2013-11-16T14:26:28Z</time>
      </trkpt>
      <trkpt lat="44.76766" lon="-0.298">
        <ele>96</ele>
        <time>2013-11-16T14:26:29Z</time>
      </trkpt>
      <trkpt lat="44.76761" lon="-0.29789">
        <ele>97</ele>
        <time>2013-11-16T14:26:36Z</time>
      </trkpt>
      <trkpt lat="44.76758" lon="-0.29781">
        <ele>98</ele>
        <time>2013-11-16T14:26:41Z</time>
      </trkpt>
      <trkpt lat="44.76757" lon="-0.2978">
        <ele>98</ele>
        <time>2013-11-16T14:26:42Z</time>
      </trkpt>
      <trkpt lat="44.76754" lon="-0.29774">
        <ele>98</ele>
        <time>2013-11-16T14:26:47Z</time>
      </trkpt>
      <trkpt lat="44.7675" lon="-0.29765">
        <ele>99</ele>
        <time>2013-11-16T14:26:54Z</time>
      </trkpt>
      <trkpt lat="44.76748" lon="-0.29762">
        <ele>99</ele>
        <time>2013-11-16T14:26:56Z</time>
      </trkpt>
      <trkpt lat="44.7674" lon="-0.29753">
        <ele>100</ele>
        <time>2013-11-16T14:27:05Z</time>
      </trkpt>
      <trkpt lat="44.76731" lon="-0.29749">
        <ele>101</ele>
        <time>2013-11-16T14:27:13Z</time>
      </trkpt>
      <trkpt lat="44.76728" lon="-0.2975">
        <ele>101</ele>
        <time>2013-11-16T14:27:16Z</time>
      </trkpt>
      <trkpt lat="44.76726" lon="-0.2975">
        <ele>101</ele>
        <time>2013-11-16T14:27:17Z</time>
      </trkpt>
      <trkpt lat="44.76724" lon="-0.29751">
        <ele>101</ele>
        <time>2013-11-16T14:27:18Z</time>
      </trkpt>
      <trkpt lat="44.76722" lon="-0.29751">
        <ele>101</ele>
        <time>2013-11-16T14:27:19Z</time>
      </trkpt>
      <trkpt lat="44.7672" lon="-0.29752">
        <ele>102</ele>
        <time>2013-11-16T14:27:20Z</time>
      </trkpt>
      <trkpt lat="44.76719" lon="-0.29753">
        <ele>102</ele>
        <time>2013-11-16T14:27:21Z</time>
      </trkpt>
      <trkpt lat="44.76717" lon="-0.29753">
        <ele>102</ele>
        <time>2013-11-16T14:27:22Z</time>
      </trkpt>
      <trkpt lat="44.76716" lon="-0.29754">
        <ele>102</ele>
        <time>2013-11-16T14:27:23Z</time>
      </trkpt>
      <trkpt lat="44.76715" lon="-0.29754">
        <ele>102</ele>
        <time>2013-11-16T14:27:24Z</time>
      </trkpt>
      <trkpt lat="44.76713" lon="-0.29754">
        <ele>102</ele>
        <time>2013-11-16T14:27:25Z</time>
      </trkpt>
      <trkpt lat="44.76712" lon="-0.29755">
        <ele>102</ele>
        <time>2013-11-16T14:27:26Z</time>
      </trkpt>
      <trkpt lat="44.7671" lon="-0.29755">
        <ele>102</ele>
        <time>2013-11-16T14:27:27Z</time>
      </trkpt>
      <trkpt lat="44.76708" lon="-0.29756">
        <ele>102</ele>
        <time>2013-11-16T14:27:29Z</time>
      </trkpt>
      <trkpt lat="44.76706" lon="-0.29756">
        <ele>102</ele>
        <time>2013-11-16T14:27:30Z</time>
      </trkpt>
      <trkpt lat="44.76705" lon="-0.29756">
        <ele>102</ele>
        <time>2013-11-16T14:27:31Z</time>
      </trkpt>
      <trkpt lat="44.76695" lon="-0.29758">
        <ele>103</ele>
        <time>2013-11-16T14:27:36Z</time>
      </trkpt>
      <trkpt lat="44.76694" lon="-0.29758">
        <ele>103</ele>
        <time>2013-11-16T14:27:37Z</time>
      </trkpt>
      <trkpt lat="44.76682" lon="-0.29759">
        <ele>104</ele>
        <time>2013-11-16T14:27:43Z</time>
      </trkpt>
      <trkpt lat="44.76681" lon="-0.2976">
        <ele>104</ele>
        <time>2013-11-16T14:27:44Z</time>
      </trkpt>
      <trkpt lat="44.76679" lon="-0.29759">
        <ele>104</ele>
        <time>2013-11-16T14:27:45Z</time>
      </trkpt>
      <trkpt lat="44.76664" lon="-0.29761">
        <ele>105</ele>
        <time>2013-11-16T14:27:53Z</time>
      </trkpt>
      <trkpt lat="44.76659" lon="-0.29761">
        <ele>105</ele>
        <time>2013-11-16T14:27:55Z</time>
      </trkpt>
      <trkpt lat="44.76657" lon="-0.29762">
        <ele>105</ele>
        <time>2013-11-16T14:27:56Z</time>
      </trkpt>
      <trkpt lat="44.76655" lon="-0.29763">
        <ele>105</ele>
        <time>2013-11-16T14:27:57Z</time>
      </trkpt>
      <trkpt lat="44.76653" lon="-0.29764">
        <ele>105</ele>
        <time>2013-11-16T14:27:58Z</time>
      </trkpt>
      <trkpt lat="44.76651" lon="-0.29765">
        <ele>105</ele>
        <time>2013-11-16T14:27:59Z</time>
      </trkpt>
      <trkpt lat="44.76649" lon="-0.29765">
        <ele>105</ele>
        <time>2013-11-16T14:28:00Z</time>
      </trkpt>
      <trkpt lat="44.76647" lon="-0.29766">
        <ele>105</ele>
        <time>2013-11-16T14:28:01Z</time>
      </trkpt>
      <trkpt lat="44.76645" lon="-0.29767">
        <ele>105</ele>
        <time>2013-11-16T14:28:02Z</time>
      </trkpt>
      <trkpt lat="44.76643" lon="-0.29767">
        <ele>106</ele>
        <time>2013-11-16T14:28:03Z</time>
      </trkpt>
      <trkpt lat="44.76641" lon="-0.29768">
        <ele>106</ele>
        <time>2013-11-16T14:28:04Z</time>
      </trkpt>
      <trkpt lat="44.76638" lon="-0.29769">
        <ele>106</ele>
        <time>2013-11-16T14:28:05Z</time>
      </trkpt>
      <trkpt lat="44.76615" lon="-0.29772">
        <ele>106</ele>
        <time>2013-11-16T14:28:15Z</time>
      </trkpt>
      <trkpt lat="44.76593" lon="-0.29771">
        <ele>105</ele>
        <time>2013-11-16T14:28:23Z</time>
      </trkpt>
      <trkpt lat="44.76576" lon="-0.29767">
        <ele>105</ele>
        <time>2013-11-16T14:28:30Z</time>
      </trkpt>
      <trkpt lat="44.7656" lon="-0.29766">
        <ele>105</ele>
        <time>2013-11-16T14:28:35Z</time>
      </trkpt>
      <trkpt lat="44.76536" lon="-0.2976">
        <ele>104</ele>
        <time>2013-11-16T14:28:43Z</time>
      </trkpt>
      <trkpt lat="44.76517" lon="-0.29755">
        <ele>105</ele>
        <time>2013-11-16T14:28:50Z</time>
      </trkpt>
      <trkpt lat="44.76492" lon="-0.29749">
        <ele>105</ele>
        <time>2013-11-16T14:28:59Z</time>
      </trkpt>
      <trkpt lat="44.76474" lon="-0.29745">
        <ele>104</ele>
        <time>2013-11-16T14:29:06Z</time>
      </trkpt>
      <trkpt lat="44.76457" lon="-0.29734">
        <ele>104</ele>
        <time>2013-11-16T14:29:12Z</time>
      </trkpt>
      <trkpt lat="44.76452" lon="-0.29722">
        <ele>104</ele>
        <time>2013-11-16T14:29:15Z</time>
      </trkpt>
      <trkpt lat="44.76448" lon="-0.29685">
        <ele>105</ele>
        <time>2013-11-16T14:29:23Z</time>
      </trkpt>
      <trkpt lat="44.76439" lon="-0.29669">
        <ele>105</ele>
        <time>2013-11-16T14:29:28Z</time>
      </trkpt>
      <trkpt lat="44.7642" lon="-0.29659">
        <ele>105</ele>
        <time>2013-11-16T14:29:35Z</time>
      </trkpt>
      <trkpt lat="44.76405" lon="-0.29647">
        <ele>105</ele>
        <time>2013-11-16T14:29:41Z</time>
      </trkpt>
      <trkpt lat="44.76383" lon="-0.29628">
        <ele>105</ele>
        <time>2013-11-16T14:29:49Z</time>
      </trkpt>
      <trkpt lat="44.76362" lon="-0.29605">
        <ele>106</ele>
        <time>2013-11-16T14:29:57Z</time>
      </trkpt>
      <trkpt lat="44.76348" lon="-0.29583">
        <ele>105</ele>
        <time>2013-11-16T14:30:04Z</time>
      </trkpt>
      <trkpt lat="44.76334" lon="-0.29565">
        <ele>105</ele>
        <time>2013-11-16T14:30:12Z</time>
      </trkpt>
      <trkpt lat="44.7632" lon="-0.29546">
        <ele>105</ele>
        <time>2013-11-16T14:30:20Z</time>
      </trkpt>
      <trkpt lat="44.76306" lon="-0.2953">
        <ele>105</ele>
        <time>2013-11-16T14:30:27Z</time>
      </trkpt>
      <trkpt lat="44.76292" lon="-0.29517">
        <ele>104</ele>
        <time>2013-11-16T14:30:34Z</time>
      </trkpt>
      <trkpt lat="44.76277" lon="-0.29502">
        <ele>104</ele>
        <time>2013-11-16T14:30:42Z</time>
      </trkpt>
      <trkpt lat="44.76263" lon="-0.29492">
        <ele>105</ele>
        <time>2013-11-16T14:30:49Z</time>
      </trkpt>
      <trkpt lat="44.76247" lon="-0.29481">
        <ele>105</ele>
        <time>2013-11-16T14:30:57Z</time>
      </trkpt>
      <trkpt lat="44.76235" lon="-0.29473">
        <ele>105</ele>
        <time>2013-11-16T14:31:04Z</time>
      </trkpt>
      <trkpt lat="44.7622" lon="-0.29463">
        <ele>105</ele>
        <time>2013-11-16T14:31:13Z</time>
      </trkpt>
      <trkpt lat="44.76212" lon="-0.29457">
        <ele>106</ele>
        <time>2013-11-16T14:31:19Z</time>
      </trkpt>
      <trkpt lat="44.7621" lon="-0.29455">
        <ele>106</ele>
        <time>2013-11-16T14:31:25Z</time>
      </trkpt>
      <trkpt lat="44.7621" lon="-0.29455">
        <ele>106</ele>
        <time>2013-11-16T14:31:28Z</time>
      </trkpt>
      <trkpt lat="44.76211" lon="-0.29455">
        <ele>106</ele>
        <time>2013-11-16T14:31:33Z</time>
      </trkpt>
      <trkpt lat="44.76211" lon="-0.29454">
        <ele>106</ele>
        <time>2013-11-16T14:31:44Z</time>
      </trkpt>
      <trkpt lat="44.7621" lon="-0.29454">
        <ele>106</ele>
        <time>2013-11-16T14:31:56Z</time>
      </trkpt>
      <trkpt lat="44.7621" lon="-0.29455">
        <ele>106</ele>
        <time>2013-11-16T14:32:03Z</time>
      </trkpt>
      <trkpt lat="44.7621" lon="-0.29455">
        <ele>106</ele>
        <time>2013-11-16T14:32:11Z</time>
      </trkpt>
      <trkpt lat="44.7621" lon="-0.29455">
        <ele>106</ele>
        <time>2013-11-16T14:32:23Z</time>
      </trkpt>
      <trkpt lat="44.76209" lon="-0.29457">
        <ele>106</ele>
        <time>2013-11-16T14:32:45Z</time>
      </trkpt>
      <trkpt lat="44.76208" lon="-0.29458">
        <ele>106</ele>
        <time>2013-11-16T14:33:01Z</time>
      </trkpt>
      <trkpt lat="44.76208" lon="-0.29458">
        <ele>106</ele>
        <time>2013-11-16T14:33:09Z</time>
      </trkpt>
      <trkpt lat="44.76207" lon="-0.29457">
        <ele>106</ele>
        <time>2013-11-16T14:33:24Z</time>
      </trkpt>
      <trkpt lat="44.76206" lon="-0.29458">
        <ele>106</ele>
        <time>2013-11-16T14:33:48Z</time>
      </trkpt>
      <trkpt lat="44.76205" lon="-0.29459">
        <ele>106</ele>
        <time>2013-11-16T14:34:08Z</time>
      </trkpt>
      <trkpt lat="44.76205" lon="-0.29459">
        <ele>106</ele>
        <time>2013-11-16T14:34:22Z</time>
      </trkpt>
      <trkpt lat="44.76205" lon="-0.29459">
        <ele>106</ele>
        <time>2013-11-16T14:34:38Z</time>
      </trkpt>
      <trkpt lat="44.76206" lon="-0.29459">
        <ele>106</ele>
        <time>2013-11-16T14:34:56Z</time>
      </trkpt>
      <trkpt lat="44.76205" lon="-0.29458">
        <ele>106</ele>
        <time>2013-11-16T14:35:16Z</time>
      </trkpt>
      <trkpt lat="44.76206" lon="-0.29459">
        <ele>106</ele>
        <time>2013-11-16T14:35:33Z</time>
      </trkpt>
      <trkpt lat="44.76206" lon="-0.2946">
        <ele>106</ele>
        <time>2013-11-16T14:35:45Z</time>
      </trkpt>
      <trkpt lat="44.76205" lon="-0.2946">
        <ele>106</ele>
        <time>2013-11-16T14:36:03Z</time>
      </trkpt>
      <trkpt lat="44.76205" lon="-0.2946">
        <ele>106</ele>
        <time>2013-11-16T14:36:18Z</time>
      </trkpt>
      <trkpt lat="44.76206" lon="-0.29458">
        <ele>106</ele>
        <time>2013-11-16T14:36:37Z</time>
      </trkpt>
      <trkpt lat="44.76206" lon="-0.29459">
        <ele>106</ele>
        <time>2013-11-16T14:36:55Z</time>
      </trkpt>
      <trkpt lat="44.76206" lon="-0.29457">
        <ele>106</ele>
        <time>2013-11-16T14:37:08Z</time>
      </trkpt>
      <trkpt lat="44.76204" lon="-0.29455">
        <ele>106</ele>
        <time>2013-11-16T14:37:12Z</time>
      </trkpt>
      <trkpt lat="44.762" lon="-0.2945">
        <ele>106</ele>
        <time>2013-11-16T14:37:16Z</time>
      </trkpt>
      <trkpt lat="44.76189" lon="-0.29431">
        <ele>106</ele>
        <time>2013-11-16T14:37:23Z</time>
      </trkpt>
      <trkpt lat="44.76175" lon="-0.29398">
        <ele>106</ele>
        <time>2013-11-16T14:37:32Z</time>
      </trkpt>
      <trkpt lat="44.76166" lon="-0.29378">
        <ele>106</ele>
        <time>2013-11-16T14:37:38Z</time>
      </trkpt>
      <trkpt lat="44.76155" lon="-0.29353">
        <ele>107</ele>
        <time>2013-11-16T14:37:45Z</time>
      </trkpt>
      <trkpt lat="44.76148" lon="-0.2934">
        <ele>106</ele>
        <time>2013-11-16T14:37:52Z</time>
      </trkpt>
      <trkpt lat="44.76148" lon="-0.29339">
        <ele>106</ele>
        <time>2013-11-16T14:38:01Z</time>
      </trkpt>
      <trkpt lat="44.76145" lon="-0.2934">
        <ele>106</ele>
        <time>2013-11-16T14:38:07Z</time>
      </trkpt>
      <trkpt lat="44.76136" lon="-0.29354">
        <ele>107</ele>
        <time>2013-11-16T14:38:15Z</time>
      </trkpt>
      <trkpt lat="44.7612" lon="-0.29376">
        <ele>107</ele>
        <time>2013-11-16T14:38:25Z</time>
      </trkpt>
      <trkpt lat="44.76108" lon="-0.29392">
        <ele>107</ele>
        <time>2013-11-16T14:38:33Z</time>
      </trkpt>
      <trkpt lat="44.76091" lon="-0.29414">
        <ele>108</ele>
        <time>2013-11-16T14:38:43Z</time>
      </trkpt>
      <trkpt lat="44.76075" lon="-0.29432">
        <ele>108</ele>
        <time>2013-11-16T14:38:52Z</time>
      </trkpt>
      <trkpt lat="44.76065" lon="-0.29447">
        <ele>109</ele>
        <time>2013-11-16T14:38:58Z</time>
      </trkpt>
      <trkpt lat="44.76047" lon="-0.29471">
        <ele>110</ele>
        <time>2013-11-16T14:39:07Z</time>
      </trkpt>
      <trkpt lat="44.76032" lon="-0.2949">
        <ele>110</ele>
        <time>2013-11-16T14:39:14Z</time>
      </trkpt>
      <trkpt lat="44.76022" lon="-0.29504">
        <ele>110</ele>
        <time>2013-11-16T14:39:22Z</time>
      </trkpt>
      <trkpt lat="44.76016" lon="-0.29507">
        <ele>110</ele>
        <time>2013-11-16T14:39:26Z</time>
      </trkpt>
      <trkpt lat="44.76008" lon="-0.29502">
        <ele>109</ele>
        <time>2013-11-16T14:39:31Z</time>
      </trkpt>
      <trkpt lat="44.75987" lon="-0.29487">
        <ele>109</ele>
        <time>2013-11-16T14:39:41Z</time>
      </trkpt>
      <trkpt lat="44.75965" lon="-0.2947">
        <ele>108</ele>
        <time>2013-11-16T14:39:49Z</time>
      </trkpt>
      <trkpt lat="44.75942" lon="-0.29451">
        <ele>107</ele>
        <time>2013-11-16T14:39:57Z</time>
      </trkpt>
      <trkpt lat="44.75919" lon="-0.29426">
        <ele>106</ele>
        <time>2013-11-16T14:40:05Z</time>
      </trkpt>
      <trkpt lat="44.759" lon="-0.29399">
        <ele>106</ele>
        <time>2013-11-16T14:40:13Z</time>
      </trkpt>
      <trkpt lat="44.75872" lon="-0.29362">
        <ele>107</ele>
        <time>2013-11-16T14:40:24Z</time>
      </trkpt>
      <trkpt lat="44.75856" lon="-0.29347">
        <ele>107</ele>
        <time>2013-11-16T14:40:30Z</time>
      </trkpt>
      <trkpt lat="44.75842" lon="-0.29352">
        <ele>108</ele>
        <time>2013-11-16T14:40:35Z</time>
      </trkpt>
      <trkpt lat="44.75818" lon="-0.29389">
        <ele>107</ele>
        <time>2013-11-16T14:40:45Z</time>
      </trkpt>
      <trkpt lat="44.75795" lon="-0.29426">
        <ele>106</ele>
        <time>2013-11-16T14:40:53Z</time>
      </trkpt>
      <trkpt lat="44.75778" lon="-0.29451">
        <ele>106</ele>
        <time>2013-11-16T14:40:58Z</time>
      </trkpt>
      <trkpt lat="44.75775" lon="-0.29454">
        <ele>106</ele>
        <time>2013-11-16T14:40:59Z</time>
      </trkpt>
      <trkpt lat="44.75772" lon="-0.29456">
        <ele>106</ele>
        <time>2013-11-16T14:41:00Z</time>
      </trkpt>
      <trkpt lat="44.7577" lon="-0.29458">
        <ele>106</ele>
        <time>2013-11-16T14:41:01Z</time>
      </trkpt>
      <trkpt lat="44.75767" lon="-0.2946">
        <ele>106</ele>
        <time>2013-11-16T14:41:02Z</time>
      </trkpt>
      <trkpt lat="44.75764" lon="-0.29468">
        <ele>105</ele>
        <time>2013-11-16T14:41:05Z</time>
      </trkpt>
      <trkpt lat="44.75764" lon="-0.29473">
        <ele>105</ele>
        <time>2013-11-16T14:41:06Z</time>
      </trkpt>
      <trkpt lat="44.75764" lon="-0.29478">
        <ele>105</ele>
        <time>2013-11-16T14:41:07Z</time>
      </trkpt>
      <trkpt lat="44.75764" lon="-0.29497">
        <ele>104</ele>
        <time>2013-11-16T14:41:10Z</time>
      </trkpt>
      <trkpt lat="44.75764" lon="-0.29503">
        <ele>104</ele>
        <time>2013-11-16T14:41:11Z</time>
      </trkpt>
      <trkpt lat="44.75763" lon="-0.29507">
        <ele>104</ele>
        <time>2013-11-16T14:41:12Z</time>
      </trkpt>
      <trkpt lat="44.75761" lon="-0.2951">
        <ele>104</ele>
        <time>2013-11-16T14:41:13Z</time>
      </trkpt>
      <trkpt lat="44.75759" lon="-0.29513">
        <ele>104</ele>
        <time>2013-11-16T14:41:14Z</time>
      </trkpt>
      <trkpt lat="44.75757" lon="-0.29516">
        <ele>104</ele>
        <time>2013-11-16T14:41:15Z</time>
      </trkpt>
      <trkpt lat="44.75754" lon="-0.2952">
        <ele>104</ele>
        <time>2013-11-16T14:41:17Z</time>
      </trkpt>
      <trkpt lat="44.75753" lon="-0.29522">
        <ele>104</ele>
        <time>2013-11-16T14:41:18Z</time>
      </trkpt>
      <trkpt lat="44.75752" lon="-0.29524">
        <ele>104</ele>
        <time>2013-11-16T14:41:19Z</time>
      </trkpt>
      <trkpt lat="44.75751" lon="-0.29526">
        <ele>104</ele>
        <time>2013-11-16T14:41:20Z</time>
      </trkpt>
      <trkpt lat="44.7575" lon="-0.29529">
        <ele>104</ele>
        <time>2013-11-16T14:41:21Z</time>
      </trkpt>
      <trkpt lat="44.7575" lon="-0.29531">
        <ele>104</ele>
        <time>2013-11-16T14:41:22Z</time>
      </trkpt>
      <trkpt lat="44.75745" lon="-0.29544">
        <ele>104</ele>
        <time>2013-11-16T14:41:27Z</time>
      </trkpt>
      <trkpt lat="44.75736" lon="-0.29563">
        <ele>104</ele>
        <time>2013-11-16T14:41:35Z</time>
      </trkpt>
      <trkpt lat="44.75728" lon="-0.29577">
        <ele>104</ele>
        <time>2013-11-16T14:41:41Z</time>
      </trkpt>
      <trkpt lat="44.75722" lon="-0.29585">
        <ele>105</ele>
        <time>2013-11-16T14:41:45Z</time>
      </trkpt>
      <trkpt lat="44.75727" lon="-0.29603">
        <ele>104</ele>
        <time>2013-11-16T14:41:51Z</time>
      </trkpt>
      <trkpt lat="44.75741" lon="-0.29628">
        <ele>102</ele>
        <time>2013-11-16T14:41:59Z</time>
      </trkpt>
      <trkpt lat="44.7575" lon="-0.29643">
        <ele>101</ele>
        <time>2013-11-16T14:42:06Z</time>
      </trkpt>
      <trkpt lat="44.75747" lon="-0.29652">
        <ele>101</ele>
        <time>2013-11-16T14:42:11Z</time>
      </trkpt>
      <trkpt lat="44.75734" lon="-0.29666">
        <ele>102</ele>
        <time>2013-11-16T14:42:19Z</time>
      </trkpt>
      <trkpt lat="44.75723" lon="-0.29681">
        <ele>103</ele>
        <time>2013-11-16T14:42:26Z</time>
      </trkpt>
      <trkpt lat="44.75711" lon="-0.29695">
        <ele>104</ele>
        <time>2013-11-16T14:42:33Z</time>
      </trkpt>
      <trkpt lat="44.75707" lon="-0.29699">
        <ele>104</ele>
        <time>2013-11-16T14:42:36Z</time>
      </trkpt>
      <trkpt lat="44.75694" lon="-0.29697">
        <ele>105</ele>
        <time>2013-11-16T14:42:43Z</time>
      </trkpt>
      <trkpt lat="44.75691" lon="-0.29697">
        <ele>105</ele>
        <time>2013-11-16T14:42:45Z</time>
      </trkpt>
      <trkpt lat="44.75686" lon="-0.29696">
        <ele>105</ele>
        <time>2013-11-16T14:42:48Z</time>
      </trkpt>
      <trkpt lat="44.75679" lon="-0.29707">
        <ele>106</ele>
        <time>2013-11-16T14:42:55Z</time>
      </trkpt>
      <trkpt lat="44.75678" lon="-0.29708">
        <ele>106</ele>
        <time>2013-11-16T14:42:56Z</time>
      </trkpt>
      <trkpt lat="44.75671" lon="-0.29717">
        <ele>107</ele>
        <time>2013-11-16T14:43:02Z</time>
      </trkpt>
      <trkpt lat="44.75662" lon="-0.29726">
        <ele>107</ele>
        <time>2013-11-16T14:43:08Z</time>
      </trkpt>
      <trkpt lat="44.75646" lon="-0.29735">
        <ele>108</ele>
        <time>2013-11-16T14:43:17Z</time>
      </trkpt>
      <trkpt lat="44.75639" lon="-0.29738">
        <ele>108</ele>
        <time>2013-11-16T14:43:21Z</time>
      </trkpt>
      <trkpt lat="44.75631" lon="-0.2974">
        <ele>108</ele>
        <time>2013-11-16T14:43:26Z</time>
      </trkpt>
      <trkpt lat="44.7562" lon="-0.29744">
        <ele>108</ele>
        <time>2013-11-16T14:43:33Z</time>
      </trkpt>
      <trkpt lat="44.75616" lon="-0.29745">
        <ele>108</ele>
        <time>2013-11-16T14:43:36Z</time>
      </trkpt>
      <trkpt lat="44.7561" lon="-0.29737">
        <ele>108</ele>
        <time>2013-11-16T14:43:42Z</time>
      </trkpt>
      <trkpt lat="44.75608" lon="-0.2973">
        <ele>109</ele>
        <time>2013-11-16T14:43:45Z</time>
      </trkpt>
      <trkpt lat="44.75598" lon="-0.29723">
        <ele>109</ele>
        <time>2013-11-16T14:43:52Z</time>
      </trkpt>
      <trkpt lat="44.75596" lon="-0.29724">
        <ele>109</ele>
        <time>2013-11-16T14:43:53Z</time>
      </trkpt>
      <trkpt lat="44.75588" lon="-0.29715">
        <ele>109</ele>
        <time>2013-11-16T14:44:00Z</time>
      </trkpt>
      <trkpt lat="44.75586" lon="-0.29707">
        <ele>109</ele>
        <time>2013-11-16T14:44:03Z</time>
      </trkpt>
      <trkpt lat="44.75586" lon="-0.2969">
        <ele>110</ele>
        <time>2013-11-16T14:44:11Z</time>
      </trkpt>
      <trkpt lat="44.75584" lon="-0.29684">
        <ele>110</ele>
        <time>2013-11-16T14:44:17Z</time>
      </trkpt>
      <trkpt lat="44.75584" lon="-0.29683">
        <ele>110</ele>
        <time>2013-11-16T14:44:18Z</time>
      </trkpt>
      <trkpt lat="44.75581" lon="-0.29678">
        <ele>110</ele>
        <time>2013-11-16T14:44:24Z</time>
      </trkpt>
      <trkpt lat="44.7558" lon="-0.29676">
        <ele>110</ele>
        <time>2013-11-16T14:44:31Z</time>
      </trkpt>
      <trkpt lat="44.7558" lon="-0.29675">
        <ele>110</ele>
        <time>2013-11-16T14:44:37Z</time>
      </trkpt>
      <trkpt lat="44.75579" lon="-0.29673">
        <ele>110</ele>
        <time>2013-11-16T14:44:43Z</time>
      </trkpt>
      <trkpt lat="44.75574" lon="-0.29669">
        <ele>110</ele>
        <time>2013-11-16T14:44:50Z</time>
      </trkpt>
      <trkpt lat="44.75573" lon="-0.29667">
        <ele>110</ele>
        <time>2013-11-16T14:44:56Z</time>
      </trkpt>
      <trkpt lat="44.7557" lon="-0.29665">
        <ele>110</ele>
        <time>2013-11-16T14:45:02Z</time>
      </trkpt>
      <trkpt lat="44.75569" lon="-0.29664">
        <ele>110</ele>
        <time>2013-11-16T14:45:15Z</time>
      </trkpt>
      <trkpt lat="44.75559" lon="-0.29659">
        <ele>109</ele>
        <time>2013-11-16T14:45:23Z</time>
      </trkpt>
      <trkpt lat="44.75556" lon="-0.29657">
        <ele>109</ele>
        <time>2013-11-16T14:45:30Z</time>
      </trkpt>
      <trkpt lat="44.75553" lon="-0.29657">
        <ele>109</ele>
        <time>2013-11-16T14:45:38Z</time>
      </trkpt>
      <trkpt lat="44.75552" lon="-0.29656">
        <ele>109</ele>
        <time>2013-11-16T14:45:42Z</time>
      </trkpt>
      <trkpt lat="44.75547" lon="-0.29657">
        <ele>108</ele>
        <time>2013-11-16T14:45:48Z</time>
      </trkpt>
      <trkpt lat="44.7554" lon="-0.29654">
        <ele>108</ele>
        <time>2013-11-16T14:45:55Z</time>
      </trkpt>
      <trkpt lat="44.75539" lon="-0.29655">
        <ele>108</ele>
        <time>2013-11-16T14:46:01Z</time>
      </trkpt>
      <trkpt lat="44.75539" lon="-0.29654">
        <ele>108</ele>
        <time>2013-11-16T14:46:06Z</time>
      </trkpt>
      <trkpt lat="44.75539" lon="-0.29653">
        <ele>108</ele>
        <time>2013-11-16T14:46:11Z</time>
      </trkpt>
      <trkpt lat="44.75538" lon="-0.2965">
        <ele>108</ele>
        <time>2013-11-16T14:46:17Z</time>
      </trkpt>
      <trkpt lat="44.75534" lon="-0.29641">
        <ele>108</ele>
        <time>2013-11-16T14:46:25Z</time>
      </trkpt>
      <trkpt lat="44.75533" lon="-0.2964">
        <ele>108</ele>
        <time>2013-11-16T14:46:26Z</time>
      </trkpt>
      <trkpt lat="44.75532" lon="-0.29635">
        <ele>108</ele>
        <time>2013-11-16T14:46:29Z</time>
      </trkpt>
      <trkpt lat="44.7553" lon="-0.29633">
        <ele>107</ele>
        <time>2013-11-16T14:46:31Z</time>
      </trkpt>
      <trkpt lat="44.75531" lon="-0.29623">
        <ele>108</ele>
        <time>2013-11-16T14:46:38Z</time>
      </trkpt>
      <trkpt lat="44.7553" lon="-0.29619">
        <ele>108</ele>
        <time>2013-11-16T14:46:45Z</time>
      </trkpt>
      <trkpt lat="44.75529" lon="-0.29618">
        <ele>107</ele>
        <time>2013-11-16T14:46:51Z</time>
      </trkpt>
      <trkpt lat="44.75529" lon="-0.29617">
        <ele>108</ele>
        <time>2013-11-16T14:46:56Z</time>
      </trkpt>
      <trkpt lat="44.75529" lon="-0.29617">
        <ele>108</ele>
        <time>2013-11-16T14:47:04Z</time>
      </trkpt>
      <trkpt lat="44.75531" lon="-0.29616">
        <ele>108</ele>
        <time>2013-11-16T14:47:11Z</time>
      </trkpt>
      <trkpt lat="44.75532" lon="-0.29616">
        <ele>108</ele>
        <time>2013-11-16T14:47:16Z</time>
      </trkpt>
      <trkpt lat="44.75535" lon="-0.29613">
        <ele>108</ele>
        <time>2013-11-16T14:47:23Z</time>
      </trkpt>
      <trkpt lat="44.75535" lon="-0.29613">
        <ele>108</ele>
        <time>2013-11-16T14:47:25Z</time>
      </trkpt>
      <trkpt lat="44.75537" lon="-0.29604">
        <ele>108</ele>
        <time>2013-11-16T14:47:31Z</time>
      </trkpt>
      <trkpt lat="44.75539" lon="-0.29597">
        <ele>108</ele>
        <time>2013-11-16T14:47:38Z</time>
      </trkpt>
      <trkpt lat="44.75541" lon="-0.29595">
        <ele>109</ele>
        <time>2013-11-16T14:47:44Z</time>
      </trkpt>
      <trkpt lat="44.75543" lon="-0.29593">
        <ele>109</ele>
        <time>2013-11-16T14:47:59Z</time>
      </trkpt>
      <trkpt lat="44.75543" lon="-0.29591">
        <ele>109</ele>
        <time>2013-11-16T14:48:12Z</time>
      </trkpt>
      <trkpt lat="44.75543" lon="-0.2959">
        <ele>109</ele>
        <time>2013-11-16T14:48:15Z</time>
      </trkpt>
      <trkpt lat="44.7554" lon="-0.29583">
        <ele>109</ele>
        <time>2013-11-16T14:48:22Z</time>
      </trkpt>
      <trkpt lat="44.75538" lon="-0.29579">
        <ele>108</ele>
        <time>2013-11-16T14:48:25Z</time>
      </trkpt>
      <trkpt lat="44.75536" lon="-0.2957">
        <ele>108</ele>
        <time>2013-11-16T14:48:32Z</time>
      </trkpt>
      <trkpt lat="44.75539" lon="-0.29557">
        <ele>109</ele>
        <time>2013-11-16T14:48:40Z</time>
      </trkpt>
      <trkpt lat="44.7554" lon="-0.29552">
        <ele>109</ele>
        <time>2013-11-16T14:48:44Z</time>
      </trkpt>
      <trkpt lat="44.75534" lon="-0.29548">
        <ele>109</ele>
        <time>2013-11-16T14:48:51Z</time>
      </trkpt>
      <trkpt lat="44.75531" lon="-0.29543">
        <ele>109</ele>
        <time>2013-11-16T14:48:58Z</time>
      </trkpt>
      <trkpt lat="44.75531" lon="-0.29541">
        <ele>109</ele>
        <time>2013-11-16T14:49:10Z</time>
      </trkpt>
      <trkpt lat="44.75531" lon="-0.29539">
        <ele>109</ele>
        <time>2013-11-16T14:49:17Z</time>
      </trkpt>
      <trkpt lat="44.7553" lon="-0.29538">
        <ele>109</ele>
        <time>2013-11-16T14:49:29Z</time>
      </trkpt>
      <trkpt lat="44.7553" lon="-0.29538">
        <ele>108</ele>
        <time>2013-11-16T14:49:32Z</time>
      </trkpt>
      <trkpt lat="44.75519" lon="-0.29539">
        <ele>108</ele>
        <time>2013-11-16T14:49:39Z</time>
      </trkpt>
      <trkpt lat="44.75503" lon="-0.29537">
        <ele>106</ele>
        <time>2013-11-16T14:49:47Z</time>
      </trkpt>
      <trkpt lat="44.75496" lon="-0.29527">
        <ele>105</ele>
        <time>2013-11-16T14:49:52Z</time>
      </trkpt>
      <trkpt lat="44.75497" lon="-0.29516">
        <ele>105</ele>
        <time>2013-11-16T14:49:58Z</time>
      </trkpt>
      <trkpt lat="44.75497" lon="-0.29504">
        <ele>105</ele>
        <time>2013-11-16T14:50:03Z</time>
      </trkpt>
      <trkpt lat="44.75497" lon="-0.29475">
        <ele>106</ele>
        <time>2013-11-16T14:50:12Z</time>
      </trkpt>
      <trkpt lat="44.75493" lon="-0.29437">
        <ele>106</ele>
        <time>2013-11-16T14:50:22Z</time>
      </trkpt>
      <trkpt lat="44.75488" lon="-0.2942">
        <ele>106</ele>
        <time>2013-11-16T14:50:28Z</time>
      </trkpt>
      <trkpt lat="44.75484" lon="-0.29416">
        <ele>106</ele>
        <time>2013-11-16T14:50:30Z</time>
      </trkpt>
      <trkpt lat="44.75481" lon="-0.29397">
        <ele>106</ele>
        <time>2013-11-16T14:50:37Z</time>
      </trkpt>
      <trkpt lat="44.75479" lon="-0.29376">
        <ele>107</ele>
        <time>2013-11-16T14:50:44Z</time>
      </trkpt>
      <trkpt lat="44.75478" lon="-0.29353">
        <ele>108</ele>
        <time>2013-11-16T14:50:52Z</time>
      </trkpt>
      <trkpt lat="44.75471" lon="-0.29338">
        <ele>108</ele>
        <time>2013-11-16T14:50:59Z</time>
      </trkpt>
      <trkpt lat="44.75464" lon="-0.29324">
        <ele>109</ele>
        <time>2013-11-16T14:51:06Z</time>
      </trkpt>
      <trkpt lat="44.75458" lon="-0.29312">
        <ele>110</ele>
        <time>2013-11-16T14:51:12Z</time>
      </trkpt>
      <trkpt lat="44.75446" lon="-0.29304">
        <ele>110</ele>
        <time>2013-11-16T14:51:19Z</time>
      </trkpt>
      <trkpt lat="44.75435" lon="-0.29295">
        <ele>110</ele>
        <time>2013-11-16T14:51:26Z</time>
      </trkpt>
      <trkpt lat="44.75427" lon="-0.29279">
        <ele>111</ele>
        <time>2013-11-16T14:51:34Z</time>
      </trkpt>
      <trkpt lat="44.75423" lon="-0.29267">
        <ele>112</ele>
        <time>2013-11-16T14:51:40Z</time>
      </trkpt>
      <trkpt lat="44.75425" lon="-0.29255">
        <ele>112</ele>
        <time>2013-11-16T14:51:46Z</time>
      </trkpt>
      <trkpt lat="44.75417" lon="-0.29251">
        <ele>112</ele>
        <time>2013-11-16T14:51:53Z</time>
      </trkpt>
      <trkpt lat="44.75411" lon="-0.2925">
        <ele>113</ele>
        <time>2013-11-16T14:51:59Z</time>
      </trkpt>
      <trkpt lat="44.75409" lon="-0.29251">
        <ele>113</ele>
        <time>2013-11-16T14:52:01Z</time>
      </trkpt>
      <trkpt lat="44.75404" lon="-0.29252">
        <ele>113</ele>
        <time>2013-11-16T14:52:06Z</time>
      </trkpt>
      <trkpt lat="44.75398" lon="-0.29252">
        <ele>113</ele>
        <time>2013-11-16T14:52:12Z</time>
      </trkpt>
      <trkpt lat="44.7539" lon="-0.29258">
        <ele>114</ele>
        <time>2013-11-16T14:52:18Z</time>
      </trkpt>
      <trkpt lat="44.75381" lon="-0.29263">
        <ele>115</ele>
        <time>2013-11-16T14:52:25Z</time>
      </trkpt>
      <trkpt lat="44.75376" lon="-0.29267">
        <ele>115</ele>
        <time>2013-11-16T14:52:29Z</time>
      </trkpt>
      <trkpt lat="44.75366" lon="-0.29275">
        <ele>116</ele>
        <time>2013-11-16T14:52:38Z</time>
      </trkpt>
      <trkpt lat="44.75362" lon="-0.29278">
        <ele>116</ele>
        <time>2013-11-16T14:52:42Z</time>
      </trkpt>
      <trkpt lat="44.75358" lon="-0.29281">
        <ele>116</ele>
        <time>2013-11-16T14:52:46Z</time>
      </trkpt>
      <trkpt lat="44.75349" lon="-0.29292">
        <ele>117</ele>
        <time>2013-11-16T14:52:54Z</time>
      </trkpt>
      <trkpt lat="44.75342" lon="-0.29296">
        <ele>117</ele>
        <time>2013-11-16T14:52:59Z</time>
      </trkpt>
      <trkpt lat="44.75329" lon="-0.2931">
        <ele>117</ele>
        <time>2013-11-16T14:53:10Z</time>
      </trkpt>
      <trkpt lat="44.75313" lon="-0.29325">
        <ele>117</ele>
        <time>2013-11-16T14:53:19Z</time>
      </trkpt>
      <trkpt lat="44.75292" lon="-0.29346">
        <ele>116</ele>
        <time>2013-11-16T14:53:27Z</time>
      </trkpt>
      <trkpt lat="44.75274" lon="-0.29365">
        <ele>116</ele>
        <time>2013-11-16T14:53:35Z</time>
      </trkpt>
      <trkpt lat="44.75271" lon="-0.29384">
        <ele>115</ele>
        <time>2013-11-16T14:53:42Z</time>
      </trkpt>
      <trkpt lat="44.75271" lon="-0.29414">
        <ele>115</ele>
        <time>2013-11-16T14:53:49Z</time>
      </trkpt>
      <trkpt lat="44.7527" lon="-0.2945">
        <ele>114</ele>
        <time>2013-11-16T14:53:56Z</time>
      </trkpt>
      <trkpt lat="44.75267" lon="-0.29503">
        <ele>114</ele>
        <time>2013-11-16T14:54:06Z</time>
      </trkpt>
      <trkpt lat="44.75263" lon="-0.29547">
        <ele>114</ele>
        <time>2013-11-16T14:54:14Z</time>
      </trkpt>
      <trkpt lat="44.7526" lon="-0.29605">
        <ele>114</ele>
        <time>2013-11-16T14:54:24Z</time>
      </trkpt>
      <trkpt lat="44.75253" lon="-0.29657">
        <ele>114</ele>
        <time>2013-11-16T14:54:33Z</time>
      </trkpt>
      <trkpt lat="44.75241" lon="-0.29701">
        <ele>115</ele>
        <time>2013-11-16T14:54:41Z</time>
      </trkpt>
      <trkpt lat="44.75223" lon="-0.2975">
        <ele>115</ele>
        <time>2013-11-16T14:54:51Z</time>
      </trkpt>
      <trkpt lat="44.75207" lon="-0.29798">
        <ele>116</ele>
        <time>2013-11-16T14:55:01Z</time>
      </trkpt>
      <trkpt lat="44.752" lon="-0.29843">
        <ele>117</ele>
        <time>2013-11-16T14:55:10Z</time>
      </trkpt>
      <trkpt lat="44.75199" lon="-0.2989">
        <ele>118</ele>
        <time>2013-11-16T14:55:19Z</time>
      </trkpt>
      <trkpt lat="44.75202" lon="-0.29961">
        <ele>116</ele>
        <time>2013-11-16T14:55:31Z</time>
      </trkpt>
      <trkpt lat="44.75207" lon="-0.30032">
        <ele>115</ele>
        <time>2013-11-16T14:55:42Z</time>
      </trkpt>
      <trkpt lat="44.75219" lon="-0.30087">
        <ele>115</ele>
        <time>2013-11-16T14:55:50Z</time>
      </trkpt>
      <trkpt lat="44.75238" lon="-0.30127">
        <ele>114</ele>
        <time>2013-11-16T14:55:56Z</time>
      </trkpt>
      <trkpt lat="44.75263" lon="-0.30172">
        <ele>113</ele>
        <time>2013-11-16T14:56:04Z</time>
      </trkpt>
      <trkpt lat="44.75299" lon="-0.30217">
        <ele>112</ele>
        <time>2013-11-16T14:56:14Z</time>
      </trkpt>
      <trkpt lat="44.7534" lon="-0.30264">
        <ele>113</ele>
        <time>2013-11-16T14:56:25Z</time>
      </trkpt>
      <trkpt lat="44.75369" lon="-0.3029">
        <ele>112</ele>
        <time>2013-11-16T14:56:32Z</time>
      </trkpt>
      <trkpt lat="44.75373" lon="-0.30293">
        <ele>112</ele>
        <time>2013-11-16T14:56:33Z</time>
      </trkpt>
      <trkpt lat="44.75416" lon="-0.30321">
        <ele>112</ele>
        <time>2013-11-16T14:56:43Z</time>
      </trkpt>
      <trkpt lat="44.75456" lon="-0.30344">
        <ele>111</ele>
        <time>2013-11-16T14:56:52Z</time>
      </trkpt>
      <trkpt lat="44.75487" lon="-0.30364">
        <ele>111</ele>
        <time>2013-11-16T14:56:59Z</time>
      </trkpt>
      <trkpt lat="44.75491" lon="-0.30368">
        <ele>111</ele>
        <time>2013-11-16T14:57:00Z</time>
      </trkpt>
      <trkpt lat="44.75494" lon="-0.30372">
        <ele>111</ele>
        <time>2013-11-16T14:57:01Z</time>
      </trkpt>
      <trkpt lat="44.75497" lon="-0.30376">
        <ele>111</ele>
        <time>2013-11-16T14:57:02Z</time>
      </trkpt>
      <trkpt lat="44.75501" lon="-0.30381">
        <ele>111</ele>
        <time>2013-11-16T14:57:03Z</time>
      </trkpt>
      <trkpt lat="44.75534" lon="-0.30432">
        <ele>112</ele>
        <time>2013-11-16T14:57:13Z</time>
      </trkpt>
      <trkpt lat="44.75564" lon="-0.30495">
        <ele>112</ele>
        <time>2013-11-16T14:57:24Z</time>
      </trkpt>
      <trkpt lat="44.75597" lon="-0.30576">
        <ele>112</ele>
        <time>2013-11-16T14:57:37Z</time>
      </trkpt>
      <trkpt lat="44.75629" lon="-0.30637">
        <ele>111</ele>
        <time>2013-11-16T14:57:48Z</time>
      </trkpt>
      <trkpt lat="44.75662" lon="-0.30675">
        <ele>111</ele>
        <time>2013-11-16T14:57:57Z</time>
      </trkpt>
      <trkpt lat="44.75681" lon="-0.30695">
        <ele>111</ele>
        <time>2013-11-16T14:58:02Z</time>
      </trkpt>
      <trkpt lat="44.7569" lon="-0.30708">
        <ele>111</ele>
        <time>2013-11-16T14:58:05Z</time>
      </trkpt>
      <trkpt lat="44.75714" lon="-0.30761">
        <ele>112</ele>
        <time>2013-11-16T14:58:15Z</time>
      </trkpt>
      <trkpt lat="44.75737" lon="-0.30803">
        <ele>111</ele>
        <time>2013-11-16T14:58:23Z</time>
      </trkpt>
      <trkpt lat="44.75783" lon="-0.30867">
        <ele>111</ele>
        <time>2013-11-16T14:58:36Z</time>
      </trkpt>
      <trkpt lat="44.75824" lon="-0.30924">
        <ele>111</ele>
        <time>2013-11-16T14:58:46Z</time>
      </trkpt>
      <trkpt lat="44.75836" lon="-0.3094">
        <ele>111</ele>
        <time>2013-11-16T14:58:49Z</time>
      </trkpt>
      <trkpt lat="44.75839" lon="-0.30946">
        <ele>111</ele>
        <time>2013-11-16T14:58:50Z</time>
      </trkpt>
      <trkpt lat="44.75855" lon="-0.3099">
        <ele>110</ele>
        <time>2013-11-16T14:58:57Z</time>
      </trkpt>
      <trkpt lat="44.75867" lon="-0.31035">
        <ele>111</ele>
        <time>2013-11-16T14:59:05Z</time>
      </trkpt>
      <trkpt lat="44.75871" lon="-0.3105">
        <ele>111</ele>
        <time>2013-11-16T14:59:09Z</time>
      </trkpt>
      <trkpt lat="44.75873" lon="-0.31051">
        <ele>111</ele>
        <time>2013-11-16T14:59:10Z</time>
      </trkpt>
      <trkpt lat="44.75878" lon="-0.31041">
        <ele>110</ele>
        <time>2013-11-16T14:59:15Z</time>
      </trkpt>
      <trkpt lat="44.75875" lon="-0.31024">
        <ele>110</ele>
        <time>2013-11-16T14:59:20Z</time>
      </trkpt>
      <trkpt lat="44.75882" lon="-0.31016">
        <ele>109</ele>
        <time>2013-11-16T14:59:24Z</time>
      </trkpt>
      <trkpt lat="44.75908" lon="-0.31003">
        <ele>108</ele>
        <time>2013-11-16T14:59:33Z</time>
      </trkpt>
      <trkpt lat="44.75937" lon="-0.30986">
        <ele>105</ele>
        <time>2013-11-16T14:59:42Z</time>
      </trkpt>
      <trkpt lat="44.75955" lon="-0.30987">
        <ele>105</ele>
        <time>2013-11-16T14:59:48Z</time>
      </trkpt>
      <trkpt lat="44.75971" lon="-0.30996">
        <ele>105</ele>
        <time>2013-11-16T14:59:55Z</time>
      </trkpt>
      <trkpt lat="44.75977" lon="-0.31017">
        <ele>106</ele>
        <time>2013-11-16T15:00:01Z</time>
      </trkpt>
      <trkpt lat="44.75985" lon="-0.31021">
        <ele>106</ele>
        <time>2013-11-16T15:00:05Z</time>
      </trkpt>
      <trkpt lat="44.76005" lon="-0.31019">
        <ele>106</ele>
        <time>2013-11-16T15:00:14Z</time>
      </trkpt>
      <trkpt lat="44.76026" lon="-0.31019">
        <ele>106</ele>
        <time>2013-11-16T15:00:22Z</time>
      </trkpt>
      <trkpt lat="44.76041" lon="-0.31022">
        <ele>106</ele>
        <time>2013-11-16T15:00:28Z</time>
      </trkpt>
      <trkpt lat="44.7606" lon="-0.31028">
        <ele>107</ele>
        <time>2013-11-16T15:00:35Z</time>
      </trkpt>
      <trkpt lat="44.76078" lon="-0.3103">
        <ele>106</ele>
        <time>2013-11-16T15:00:43Z</time>
      </trkpt>
      <trkpt lat="44.76093" lon="-0.31032">
        <ele>106</ele>
        <time>2013-11-16T15:00:50Z</time>
      </trkpt>
      <trkpt lat="44.76097" lon="-0.31032">
        <ele>106</ele>
        <time>2013-11-16T15:00:52Z</time>
      </trkpt>
      <trkpt lat="44.76102" lon="-0.31025">
        <ele>106</ele>
        <time>2013-11-16T15:00:56Z</time>
      </trkpt>
      <trkpt lat="44.76099" lon="-0.31005">
        <ele>105</ele>
        <time>2013-11-16T15:01:04Z</time>
      </trkpt>
      <trkpt lat="44.76099" lon="-0.30992">
        <ele>105</ele>
        <time>2013-11-16T15:01:11Z</time>
      </trkpt>
      <trkpt lat="44.76099" lon="-0.3099">
        <ele>105</ele>
        <time>2013-11-16T15:01:12Z</time>
      </trkpt>
      <trkpt lat="44.76105" lon="-0.30985">
        <ele>105</ele>
        <time>2013-11-16T15:01:18Z</time>
      </trkpt>
      <trkpt lat="44.76116" lon="-0.30988">
        <ele>105</ele>
        <time>2013-11-16T15:01:26Z</time>
      </trkpt>
      <trkpt lat="44.76123" lon="-0.30993">
        <ele>105</ele>
        <time>2013-11-16T15:01:33Z</time>
      </trkpt>
      <trkpt lat="44.76128" lon="-0.30996">
        <ele>104</ele>
        <time>2013-11-16T15:01:40Z</time>
      </trkpt>
      <trkpt lat="44.76129" lon="-0.30996">
        <ele>104</ele>
        <time>2013-11-16T15:01:48Z</time>
      </trkpt>
      <trkpt lat="44.76143" lon="-0.30997">
        <ele>104</ele>
        <time>2013-11-16T15:01:56Z</time>
      </trkpt>
      <trkpt lat="44.76153" lon="-0.30997">
        <ele>103</ele>
        <time>2013-11-16T15:02:00Z</time>
      </trkpt>
      <trkpt lat="44.76162" lon="-0.30995">
        <ele>103</ele>
        <time>2013-11-16T15:02:04Z</time>
      </trkpt>
      <trkpt lat="44.76167" lon="-0.30984">
        <ele>102</ele>
        <time>2013-11-16T15:02:08Z</time>
      </trkpt>
      <trkpt lat="44.7617" lon="-0.30967">
        <ele>103</ele>
        <time>2013-11-16T15:02:13Z</time>
      </trkpt>
      <trkpt lat="44.76178" lon="-0.30963">
        <ele>102</ele>
        <time>2013-11-16T15:02:19Z</time>
      </trkpt>
      <trkpt lat="44.7618" lon="-0.30964">
        <ele>102</ele>
        <time>2013-11-16T15:02:20Z</time>
      </trkpt>
      <trkpt lat="44.76202" lon="-0.30974">
        <ele>100</ele>
        <time>2013-11-16T15:02:28Z</time>
      </trkpt>
      <trkpt lat="44.76221" lon="-0.30983">
        <ele>98</ele>
        <time>2013-11-16T15:02:34Z</time>
      </trkpt>
      <trkpt lat="44.76246" lon="-0.30996">
        <ele>95</ele>
        <time>2013-11-16T15:02:41Z</time>
      </trkpt>
      <trkpt lat="44.76264" lon="-0.31002">
        <ele>94</ele>
        <time>2013-11-16T15:02:47Z</time>
      </trkpt>
      <trkpt lat="44.76283" lon="-0.3101">
        <ele>92</ele>
        <time>2013-11-16T15:02:55Z</time>
      </trkpt>
      <trkpt lat="44.76303" lon="-0.31012">
        <ele>92</ele>
        <time>2013-11-16T15:03:03Z</time>
      </trkpt>
      <trkpt lat="44.7631" lon="-0.30982">
        <ele>91</ele>
        <time>2013-11-16T15:03:12Z</time>
      </trkpt>
      <trkpt lat="44.76315" lon="-0.30964">
        <ele>90</ele>
        <time>2013-11-16T15:03:19Z</time>
      </trkpt>
      <trkpt lat="44.76314" lon="-0.30962">
        <ele>90</ele>
        <time>2013-11-16T15:03:23Z</time>
      </trkpt>
      <trkpt lat="44.76318" lon="-0.30968">
        <ele>90</ele>
        <time>2013-11-16T15:06:07Z</time>
      </trkpt>
      <trkpt lat="44.76319" lon="-0.30969">
        <ele>90</ele>
        <time>2013-11-16T15:06:16Z</time>
      </trkpt>
      <trkpt lat="44.76321" lon="-0.3097">
        <ele>90</ele>
        <time>2013-11-16T15:06:23Z</time>
      </trkpt>
      <trkpt lat="44.76321" lon="-0.30971">
        <ele>90</ele>
        <time>2013-11-16T15:06:31Z</time>
      </trkpt>
      <trkpt lat="44.76323" lon="-0.30975">
        <ele>90</ele>
        <time>2013-11-16T15:06:39Z</time>
      </trkpt>
      <trkpt lat="44.76324" lon="-0.30976">
        <ele>90</ele>
        <time>2013-11-16T15:06:48Z</time>
      </trkpt>
      <trkpt lat="44.76325" lon="-0.30977">
        <ele>90</ele>
        <time>2013-11-16T15:06:58Z</time>
      </trkpt>
      <trkpt lat="44.76326" lon="-0.30977">
        <ele>90</ele>
        <time>2013-11-16T15:07:07Z</time>
      </trkpt>
      <trkpt lat="44.76328" lon="-0.30977">
        <ele>90</ele>
        <time>2013-11-16T15:07:13Z</time>
      </trkpt>
      <trkpt lat="44.76329" lon="-0.30978">
        <ele>90</ele>
        <time>2013-11-16T15:07:19Z</time>
      </trkpt>
      <trkpt lat="44.76331" lon="-0.3098">
        <ele>90</ele>
        <time>2013-11-16T15:07:26Z</time>
      </trkpt>
      <trkpt lat="44.76331" lon="-0.30981">
        <ele>90</ele>
        <time>2013-11-16T15:07:39Z</time>
      </trkpt>
      <trkpt lat="44.76331" lon="-0.30984">
        <ele>90</ele>
        <time>2013-11-16T15:08:01Z</time>
      </trkpt>
      <trkpt lat="44.76331" lon="-0.30985">
        <ele>90</ele>
        <time>2013-11-16T15:08:24Z</time>
      </trkpt>
      <trkpt lat="44.76332" lon="-0.30984">
        <ele>90</ele>
        <time>2013-11-16T15:08:40Z</time>
      </trkpt>
      <trkpt lat="44.76332" lon="-0.30984">
        <ele>90</ele>
        <time>2013-11-16T15:08:50Z</time>
      </trkpt>
      <trkpt lat="44.76332" lon="-0.30984">
        <ele>90</ele>
        <time>2013-11-16T15:09:00Z</time>
      </trkpt>
      <trkpt lat="44.76332" lon="-0.30983">
        <ele>90</ele>
        <time>2013-11-16T15:09:13Z</time>
      </trkpt>
      <trkpt lat="44.76332" lon="-0.30984">
        <ele>90</ele>
        <time>2013-11-16T15:09:23Z</time>
      </trkpt>
      <trkpt lat="44.76333" lon="-0.3099">
        <ele>90</ele>
        <time>2013-11-16T15:09:29Z</time>
      </trkpt>
      <trkpt lat="44.76334" lon="-0.30993">
        <ele>90</ele>
        <time>2013-11-16T15:09:34Z</time>
      </trkpt>
      <trkpt lat="44.76332" lon="-0.30999">
        <ele>91</ele>
        <time>2013-11-16T15:09:41Z</time>
      </trkpt>
      <trkpt lat="44.76333" lon="-0.31002">
        <ele>91</ele>
        <time>2013-11-16T15:09:46Z</time>
      </trkpt>
      <trkpt lat="44.76338" lon="-0.31009">
        <ele>92</ele>
        <time>2013-11-16T15:09:54Z</time>
      </trkpt>
      <trkpt lat="44.76341" lon="-0.31013">
        <ele>92</ele>
        <time>2013-11-16T15:10:00Z</time>
      </trkpt>
      <trkpt lat="44.76345" lon="-0.31014">
        <ele>93</ele>
        <time>2013-11-16T15:10:06Z</time>
      </trkpt>
      <trkpt lat="44.76349" lon="-0.31014">
        <ele>93</ele>
        <time>2013-11-16T15:10:13Z</time>
      </trkpt>
      <trkpt lat="44.76351" lon="-0.31009">
        <ele>92</ele>
        <time>2013-11-16T15:10:19Z</time>
      </trkpt>
      <trkpt lat="44.76353" lon="-0.31005">
        <ele>92</ele>
        <time>2013-11-16T15:10:25Z</time>
      </trkpt>
      <trkpt lat="44.76358" lon="-0.30999">
        <ele>92</ele>
        <time>2013-11-16T15:10:30Z</time>
      </trkpt>
      <trkpt lat="44.76366" lon="-0.30996">
        <ele>92</ele>
        <time>2013-11-16T15:10:37Z</time>
      </trkpt>
      <trkpt lat="44.76375" lon="-0.30994">
        <ele>92</ele>
        <time>2013-11-16T15:10:44Z</time>
      </trkpt>
      <trkpt lat="44.76379" lon="-0.30992">
        <ele>92</ele>
        <time>2013-11-16T15:10:46Z</time>
      </trkpt>
      <trkpt lat="44.76385" lon="-0.31002">
        <ele>94</ele>
        <time>2013-11-16T15:10:52Z</time>
      </trkpt>
      <trkpt lat="44.7639" lon="-0.3102">
        <ele>95</ele>
        <time>2013-11-16T15:11:01Z</time>
      </trkpt>
      <trkpt lat="44.76393" lon="-0.31026">
        <ele>96</ele>
        <time>2013-11-16T15:11:05Z</time>
      </trkpt>
      <trkpt lat="44.76397" lon="-0.31041">
        <ele>98</ele>
        <time>2013-11-16T15:11:13Z</time>
      </trkpt>
      <trkpt lat="44.76399" lon="-0.31047">
        <ele>98</ele>
        <time>2013-11-16T15:11:17Z</time>
      </trkpt>
      <trkpt lat="44.76401" lon="-0.31061">
        <ele>100</ele>
        <time>2013-11-16T15:11:25Z</time>
      </trkpt>
      <trkpt lat="44.76402" lon="-0.31073">
        <ele>101</ele>
        <time>2013-11-16T15:11:32Z</time>
      </trkpt>
      <trkpt lat="44.76404" lon="-0.31083">
        <ele>101</ele>
        <time>2013-11-16T15:11:38Z</time>
      </trkpt>
      <trkpt lat="44.76405" lon="-0.3109">
        <ele>102</ele>
        <time>2013-11-16T15:11:43Z</time>
      </trkpt>
      <trkpt lat="44.76412" lon="-0.31094">
        <ele>102</ele>
        <time>2013-11-16T15:11:50Z</time>
      </trkpt>
      <trkpt lat="44.76422" lon="-0.31091">
        <ele>102</ele>
        <time>2013-11-16T15:11:59Z</time>
      </trkpt>
      <trkpt lat="44.76425" lon="-0.31091">
        <ele>102</ele>
        <time>2013-11-16T15:12:01Z</time>
      </trkpt>
      <trkpt lat="44.76435" lon="-0.31086">
        <ele>102</ele>
        <time>2013-11-16T15:12:10Z</time>
      </trkpt>
      <trkpt lat="44.76442" lon="-0.31083">
        <ele>101</ele>
        <time>2013-11-16T15:12:18Z</time>
      </trkpt>
      <trkpt lat="44.76451" lon="-0.31079">
        <ele>101</ele>
        <time>2013-11-16T15:12:27Z</time>
      </trkpt>
      <trkpt lat="44.76461" lon="-0.31074">
        <ele>100</ele>
        <time>2013-11-16T15:12:36Z</time>
      </trkpt>
      <trkpt lat="44.76464" lon="-0.31077">
        <ele>100</ele>
        <time>2013-11-16T15:12:39Z</time>
      </trkpt>
      <trkpt lat="44.76471" lon="-0.31099">
        <ele>102</ele>
        <time>2013-11-16T15:12:49Z</time>
      </trkpt>
      <trkpt lat="44.76476" lon="-0.31118">
        <ele>103</ele>
        <time>2013-11-16T15:12:56Z</time>
      </trkpt>
      <trkpt lat="44.76482" lon="-0.31144">
        <ele>104</ele>
        <time>2013-11-16T15:13:06Z</time>
      </trkpt>
      <trkpt lat="44.76486" lon="-0.31157">
        <ele>104</ele>
        <time>2013-11-16T15:13:11Z</time>
      </trkpt>
      <trkpt lat="44.7649" lon="-0.31161">
        <ele>104</ele>
        <time>2013-11-16T15:13:15Z</time>
      </trkpt>
      <trkpt lat="44.76502" lon="-0.3116">
        <ele>104</ele>
        <time>2013-11-16T15:13:23Z</time>
      </trkpt>
      <trkpt lat="44.76515" lon="-0.31158">
        <ele>104</ele>
        <time>2013-11-16T15:13:31Z</time>
      </trkpt>
      <trkpt lat="44.76529" lon="-0.31154">
        <ele>105</ele>
        <time>2013-11-16T15:13:38Z</time>
      </trkpt>
      <trkpt lat="44.7655" lon="-0.31147">
        <ele>105</ele>
        <time>2013-11-16T15:13:48Z</time>
      </trkpt>
      <trkpt lat="44.76558" lon="-0.31148">
        <ele>105</ele>
        <time>2013-11-16T15:13:52Z</time>
      </trkpt>
      <trkpt lat="44.76563" lon="-0.31141">
        <ele>105</ele>
        <time>2013-11-16T15:13:56Z</time>
      </trkpt>
      <trkpt lat="44.76576" lon="-0.31126">
        <ele>104</ele>
        <time>2013-11-16T15:14:04Z</time>
      </trkpt>
      <trkpt lat="44.766" lon="-0.31113">
        <ele>104</ele>
        <time>2013-11-16T15:14:16Z</time>
      </trkpt>
      <trkpt lat="44.76617" lon="-0.31107">
        <ele>104</ele>
        <time>2013-11-16T15:14:25Z</time>
      </trkpt>
      <trkpt lat="44.76632" lon="-0.31102">
        <ele>104</ele>
        <time>2013-11-16T15:14:35Z</time>
      </trkpt>
      <trkpt lat="44.76637" lon="-0.31099">
        <ele>104</ele>
        <time>2013-11-16T15:14:42Z</time>
      </trkpt>
      <trkpt lat="44.76637" lon="-0.311">
        <ele>104</ele>
        <time>2013-11-16T15:14:51Z</time>
      </trkpt>
      <trkpt lat="44.76647" lon="-0.31097">
        <ele>103</ele>
        <time>2013-11-16T15:14:57Z</time>
      </trkpt>
      <trkpt lat="44.76666" lon="-0.31092">
        <ele>103</ele>
        <time>2013-11-16T15:15:05Z</time>
      </trkpt>
      <trkpt lat="44.76683" lon="-0.31089">
        <ele>103</ele>
        <time>2013-11-16T15:15:12Z</time>
      </trkpt>
      <trkpt lat="44.76707" lon="-0.31093">
        <ele>103</ele>
        <time>2013-11-16T15:15:20Z</time>
      </trkpt>
      <trkpt lat="44.76727" lon="-0.311">
        <ele>102</ele>
        <time>2013-11-16T15:15:27Z</time>
      </trkpt>
      <trkpt lat="44.76746" lon="-0.31118">
        <ele>102</ele>
        <time>2013-11-16T15:15:35Z</time>
      </trkpt>
      <trkpt lat="44.76749" lon="-0.31125">
        <ele>102</ele>
        <time>2013-11-16T15:15:38Z</time>
      </trkpt>
      <trkpt lat="44.76748" lon="-0.31131">
        <ele>102</ele>
        <time>2013-11-16T15:15:45Z</time>
      </trkpt>
      <trkpt lat="44.76748" lon="-0.31132">
        <ele>102</ele>
        <time>2013-11-16T15:15:53Z</time>
      </trkpt>
      <trkpt lat="44.76747" lon="-0.31132">
        <ele>102</ele>
        <time>2013-11-16T15:16:10Z</time>
      </trkpt>
      <trkpt lat="44.76747" lon="-0.31147">
        <ele>102</ele>
        <time>2013-11-16T15:16:17Z</time>
      </trkpt>
      <trkpt lat="44.76742" lon="-0.31183">
        <ele>101</ele>
        <time>2013-11-16T15:16:25Z</time>
      </trkpt>
      <trkpt lat="44.76741" lon="-0.31195">
        <ele>100</ele>
        <time>2013-11-16T15:16:29Z</time>
      </trkpt>
      <trkpt lat="44.76745" lon="-0.31216">
        <ele>99</ele>
        <time>2013-11-16T15:16:35Z</time>
      </trkpt>
      <trkpt lat="44.76746" lon="-0.31245">
        <ele>98</ele>
        <time>2013-11-16T15:16:41Z</time>
      </trkpt>
      <trkpt lat="44.76743" lon="-0.31262">
        <ele>98</ele>
        <time>2013-11-16T15:16:46Z</time>
      </trkpt>
      <trkpt lat="44.76725" lon="-0.31274">
        <ele>100</ele>
        <time>2013-11-16T15:20:27Z</time>
      </trkpt>
      <trkpt lat="44.76708" lon="-0.31274">
        <ele>101</ele>
        <time>2013-11-16T15:20:34Z</time>
      </trkpt>
      <trkpt lat="44.76684" lon="-0.31268">
        <ele>102</ele>
        <time>2013-11-16T15:20:42Z</time>
      </trkpt>
      <trkpt lat="44.76664" lon="-0.31265">
        <ele>103</ele>
        <time>2013-11-16T15:20:49Z</time>
      </trkpt>
      <trkpt lat="44.76643" lon="-0.31264">
        <ele>104</ele>
        <time>2013-11-16T15:20:57Z</time>
      </trkpt>
      <trkpt lat="44.76622" lon="-0.31266">
        <ele>105</ele>
        <time>2013-11-16T15:21:05Z</time>
      </trkpt>
      <trkpt lat="44.76603" lon="-0.31271">
        <ele>105</ele>
        <time>2013-11-16T15:21:12Z</time>
      </trkpt>
      <trkpt lat="44.7658" lon="-0.31283">
        <ele>106</ele>
        <time>2013-11-16T15:21:21Z</time>
      </trkpt>
      <trkpt lat="44.76552" lon="-0.31301">
        <ele>106</ele>
        <time>2013-11-16T15:21:31Z</time>
      </trkpt>
      <trkpt lat="44.7653" lon="-0.31317">
        <ele>106</ele>
        <time>2013-11-16T15:21:38Z</time>
      </trkpt>
      <trkpt lat="44.76529" lon="-0.31332">
        <ele>107</ele>
        <time>2013-11-16T15:21:42Z</time>
      </trkpt>
      <trkpt lat="44.76528" lon="-0.31357">
        <ele>107</ele>
        <time>2013-11-16T15:21:50Z</time>
      </trkpt>
      <trkpt lat="44.76528" lon="-0.31379">
        <ele>107</ele>
        <time>2013-11-16T15:21:56Z</time>
      </trkpt>
      <trkpt lat="44.76526" lon="-0.31417">
        <ele>106</ele>
        <time>2013-11-16T15:22:04Z</time>
      </trkpt>
      <trkpt lat="44.76522" lon="-0.31451">
        <ele>106</ele>
        <time>2013-11-16T15:22:11Z</time>
      </trkpt>
      <trkpt lat="44.76517" lon="-0.31486">
        <ele>106</ele>
        <time>2013-11-16T15:22:19Z</time>
      </trkpt>
      <trkpt lat="44.76516" lon="-0.31493">
        <ele>106</ele>
        <time>2013-11-16T15:22:22Z</time>
      </trkpt>
      <trkpt lat="44.76513" lon="-0.31507">
        <ele>105</ele>
        <time>2013-11-16T15:22:32Z</time>
      </trkpt>
      <trkpt lat="44.76511" lon="-0.31516">
        <ele>105</ele>
        <time>2013-11-16T15:22:42Z</time>
      </trkpt>
      <trkpt lat="44.76511" lon="-0.31516">
        <ele>105</ele>
        <time>2013-11-16T15:22:53Z</time>
      </trkpt>
      <trkpt lat="44.76511" lon="-0.31516">
        <ele>105</ele>
        <time>2013-11-16T15:22:57Z</time>
      </trkpt>
      <trkpt lat="44.76508" lon="-0.31523">
        <ele>105</ele>
        <time>2013-11-16T15:23:01Z</time>
      </trkpt>
      <trkpt lat="44.76501" lon="-0.31567">
        <ele>103</ele>
        <time>2013-11-16T15:23:11Z</time>
      </trkpt>
      <trkpt lat="44.76498" lon="-0.31604">
        <ele>101</ele>
        <time>2013-11-16T15:23:18Z</time>
      </trkpt>
      <trkpt lat="44.76492" lon="-0.31636">
        <ele>99</ele>
        <time>2013-11-16T15:23:26Z</time>
      </trkpt>
      <trkpt lat="44.76484" lon="-0.31667">
        <ele>96</ele>
        <time>2013-11-16T15:23:33Z</time>
      </trkpt>
      <trkpt lat="44.76481" lon="-0.31673">
        <ele>95</ele>
        <time>2013-11-16T15:23:36Z</time>
      </trkpt>
      <trkpt lat="44.7647" lon="-0.31678">
        <ele>94</ele>
        <time>2013-11-16T15:23:42Z</time>
      </trkpt>
      <trkpt lat="44.76451" lon="-0.3168">
        <ele>93</ele>
        <time>2013-11-16T15:23:51Z</time>
      </trkpt>
      <trkpt lat="44.7643" lon="-0.3168">
        <ele>92</ele>
        <time>2013-11-16T15:23:59Z</time>
      </trkpt>
      <trkpt lat="44.76422" lon="-0.31695">
        <ele>91</ele>
        <time>2013-11-16T15:24:03Z</time>
      </trkpt>
      <trkpt lat="44.76417" lon="-0.31709">
        <ele>90</ele>
        <time>2013-11-16T15:24:06Z</time>
      </trkpt>
      <trkpt lat="44.76411" lon="-0.31727">
        <ele>90</ele>
        <time>2013-11-16T15:24:10Z</time>
      </trkpt>
      <trkpt lat="44.76402" lon="-0.31744">
        <ele>90</ele>
        <time>2013-11-16T15:24:16Z</time>
      </trkpt>
      <trkpt lat="44.76394" lon="-0.31752">
        <ele>91</ele>
        <time>2013-11-16T15:24:22Z</time>
      </trkpt>
      <trkpt lat="44.76384" lon="-0.31763">
        <ele>92</ele>
        <time>2013-11-16T15:24:28Z</time>
      </trkpt>
      <trkpt lat="44.76374" lon="-0.31775">
        <ele>94</ele>
        <time>2013-11-16T15:24:35Z</time>
      </trkpt>
      <trkpt lat="44.76365" lon="-0.31791">
        <ele>95</ele>
        <time>2013-11-16T15:24:45Z</time>
      </trkpt>
      <trkpt lat="44.76358" lon="-0.31804">
        <ele>96</ele>
        <time>2013-11-16T15:24:53Z</time>
      </trkpt>
      <trkpt lat="44.76349" lon="-0.31815">
        <ele>98</ele>
        <time>2013-11-16T15:25:01Z</time>
      </trkpt>
      <trkpt lat="44.76343" lon="-0.31823">
        <ele>99</ele>
        <time>2013-11-16T15:25:07Z</time>
      </trkpt>
      <trkpt lat="44.76331" lon="-0.31835">
        <ele>100</ele>
        <time>2013-11-16T15:25:16Z</time>
      </trkpt>
      <trkpt lat="44.76329" lon="-0.31839">
        <ele>100</ele>
        <time>2013-11-16T15:25:19Z</time>
      </trkpt>
      <trkpt lat="44.76321" lon="-0.31848">
        <ele>101</ele>
        <time>2013-11-16T15:25:26Z</time>
      </trkpt>
      <trkpt lat="44.7632" lon="-0.31855">
        <ele>101</ele>
        <time>2013-11-16T15:25:34Z</time>
      </trkpt>
      <trkpt lat="44.76319" lon="-0.31855">
        <ele>101</ele>
        <time>2013-11-16T15:25:45Z</time>
      </trkpt>
      <trkpt lat="44.7632" lon="-0.31855">
        <ele>101</ele>
        <time>2013-11-16T15:25:56Z</time>
      </trkpt>
      <trkpt lat="44.7632" lon="-0.31855">
        <ele>101</ele>
        <time>2013-11-16T15:26:05Z</time>
      </trkpt>
      <trkpt lat="44.76321" lon="-0.31857">
        <ele>101</ele>
        <time>2013-11-16T15:26:11Z</time>
      </trkpt>
      <trkpt lat="44.76322" lon="-0.31856">
        <ele>101</ele>
        <time>2013-11-16T15:26:34Z</time>
      </trkpt>
      <trkpt lat="44.76322" lon="-0.31857">
        <ele>101</ele>
        <time>2013-11-16T15:27:02Z</time>
      </trkpt>
      <trkpt lat="44.76321" lon="-0.31856">
        <ele>101</ele>
        <time>2013-11-16T15:27:26Z</time>
      </trkpt>
      <trkpt lat="44.76321" lon="-0.31857">
        <ele>101</ele>
        <time>2013-11-16T15:27:51Z</time>
      </trkpt>
      <trkpt lat="44.76321" lon="-0.31856">
        <ele>101</ele>
        <time>2013-11-16T15:28:16Z</time>
      </trkpt>
      <trkpt lat="44.76322" lon="-0.31856">
        <ele>101</ele>
        <time>2013-11-16T15:28:41Z</time>
      </trkpt>
      <trkpt lat="44.76321" lon="-0.31855">
        <ele>101</ele>
        <time>2013-11-16T15:28:58Z</time>
      </trkpt>
      <trkpt lat="44.7632" lon="-0.31855">
        <ele>101</ele>
        <time>2013-11-16T15:29:04Z</time>
      </trkpt>
      <trkpt lat="44.7632" lon="-0.31855">
        <ele>101</ele>
        <time>2013-11-16T15:29:21Z</time>
      </trkpt>
      <trkpt lat="44.76319" lon="-0.31855">
        <ele>101</ele>
        <time>2013-11-16T15:29:35Z</time>
      </trkpt>
      <trkpt lat="44.76319" lon="-0.31856">
        <ele>101</ele>
        <time>2013-11-16T15:29:56Z</time>
      </trkpt>
      <trkpt lat="44.76319" lon="-0.31856">
        <ele>101</ele>
        <time>2013-11-16T15:30:00Z</time>
      </trkpt>
      <trkpt lat="44.76321" lon="-0.31864">
        <ele>101</ele>
        <time>2013-11-16T15:30:06Z</time>
      </trkpt>
      <trkpt lat="44.76333" lon="-0.31878">
        <ele>101</ele>
        <time>2013-11-16T15:30:14Z</time>
      </trkpt>
      <trkpt lat="44.76343" lon="-0.31887">
        <ele>101</ele>
        <time>2013-11-16T15:30:20Z</time>
      </trkpt>
      <trkpt lat="44.76342" lon="-0.31899">
        <ele>102</ele>
        <time>2013-11-16T15:30:25Z</time>
      </trkpt>
      <trkpt lat="44.76332" lon="-0.31922">
        <ele>103</ele>
        <time>2013-11-16T15:30:34Z</time>
      </trkpt>
      <trkpt lat="44.76325" lon="-0.31941">
        <ele>104</ele>
        <time>2013-11-16T15:30:41Z</time>
      </trkpt>
      <trkpt lat="44.76319" lon="-0.31956">
        <ele>104</ele>
        <time>2013-11-16T15:30:48Z</time>
      </trkpt>
      <trkpt lat="44.76317" lon="-0.31964">
        <ele>104</ele>
        <time>2013-11-16T15:30:52Z</time>
      </trkpt>
      <trkpt lat="44.76313" lon="-0.31972">
        <ele>104</ele>
        <time>2013-11-16T15:30:56Z</time>
      </trkpt>
      <trkpt lat="44.76303" lon="-0.3199">
        <ele>105</ele>
        <time>2013-11-16T15:31:06Z</time>
      </trkpt>
      <trkpt lat="44.76295" lon="-0.32004">
        <ele>105</ele>
        <time>2013-11-16T15:31:13Z</time>
      </trkpt>
      <trkpt lat="44.76286" lon="-0.32018">
        <ele>105</ele>
        <time>2013-11-16T15:31:21Z</time>
      </trkpt>
      <trkpt lat="44.76275" lon="-0.32034">
        <ele>105</ele>
        <time>2013-11-16T15:31:30Z</time>
      </trkpt>
      <trkpt lat="44.7627" lon="-0.32048">
        <ele>105</ele>
        <time>2013-11-16T15:31:36Z</time>
      </trkpt>
      <trkpt lat="44.76267" lon="-0.32059">
        <ele>105</ele>
        <time>2013-11-16T15:31:41Z</time>
      </trkpt>
      <trkpt lat="44.76263" lon="-0.32065">
        <ele>105</ele>
        <time>2013-11-16T15:31:44Z</time>
      </trkpt>
      <trkpt lat="44.76246" lon="-0.32067">
        <ele>105</ele>
        <time>2013-11-16T15:31:53Z</time>
      </trkpt>
      <trkpt lat="44.76232" lon="-0.32065">
        <ele>106</ele>
        <time>2013-11-16T15:32:00Z</time>
      </trkpt>
      <trkpt lat="44.76215" lon="-0.32061">
        <ele>106</ele>
        <time>2013-11-16T15:32:09Z</time>
      </trkpt>
      <trkpt lat="44.76209" lon="-0.32073">
        <ele>106</ele>
        <time>2013-11-16T15:32:14Z</time>
      </trkpt>
      <trkpt lat="44.762" lon="-0.32091">
        <ele>106</ele>
        <time>2013-11-16T15:32:20Z</time>
      </trkpt>
      <trkpt lat="44.76189" lon="-0.3212">
        <ele>105</ele>
        <time>2013-11-16T15:32:28Z</time>
      </trkpt>
      <trkpt lat="44.76174" lon="-0.32148">
        <ele>105</ele>
        <time>2013-11-16T15:32:36Z</time>
      </trkpt>
      <trkpt lat="44.76159" lon="-0.32173">
        <ele>105</ele>
        <time>2013-11-16T15:32:44Z</time>
      </trkpt>
      <trkpt lat="44.76141" lon="-0.32202">
        <ele>105</ele>
        <time>2013-11-16T15:32:52Z</time>
      </trkpt>
      <trkpt lat="44.76128" lon="-0.32224">
        <ele>105</ele>
        <time>2013-11-16T15:32:59Z</time>
      </trkpt>
      <trkpt lat="44.76117" lon="-0.32235">
        <ele>105</ele>
        <time>2013-11-16T15:33:05Z</time>
      </trkpt>
      <trkpt lat="44.76101" lon="-0.32235">
        <ele>105</ele>
        <time>2013-11-16T15:33:13Z</time>
      </trkpt>
      <trkpt lat="44.7608" lon="-0.3223">
        <ele>105</ele>
        <time>2013-11-16T15:33:21Z</time>
      </trkpt>
      <trkpt lat="44.76065" lon="-0.32228">
        <ele>105</ele>
        <time>2013-11-16T15:33:27Z</time>
      </trkpt>
      <trkpt lat="44.76049" lon="-0.32224">
        <ele>105</ele>
        <time>2013-11-16T15:33:34Z</time>
      </trkpt>
      <trkpt lat="44.76032" lon="-0.3222">
        <ele>106</ele>
        <time>2013-11-16T15:33:42Z</time>
      </trkpt>
      <trkpt lat="44.76017" lon="-0.32216">
        <ele>106</ele>
        <time>2013-11-16T15:33:49Z</time>
      </trkpt>
      <trkpt lat="44.7601" lon="-0.32215">
        <ele>106</ele>
        <time>2013-11-16T15:33:53Z</time>
      </trkpt>
      <trkpt lat="44.76004" lon="-0.32227">
        <ele>106</ele>
        <time>2013-11-16T15:33:58Z</time>
      </trkpt>
      <trkpt lat="44.76003" lon="-0.3225">
        <ele>106</ele>
        <time>2013-11-16T15:34:07Z</time>
      </trkpt>
      <trkpt lat="44.76003" lon="-0.32274">
        <ele>106</ele>
        <time>2013-11-16T15:34:15Z</time>
      </trkpt>
      <trkpt lat="44.76002" lon="-0.323">
        <ele>106</ele>
        <time>2013-11-16T15:34:24Z</time>
      </trkpt>
      <trkpt lat="44.76002" lon="-0.32327">
        <ele>106</ele>
        <time>2013-11-16T15:34:33Z</time>
      </trkpt>
      <trkpt lat="44.76" lon="-0.32347">
        <ele>106</ele>
        <time>2013-11-16T15:34:39Z</time>
      </trkpt>
      <trkpt lat="44.76" lon="-0.32366">
        <ele>106</ele>
        <time>2013-11-16T15:34:46Z</time>
      </trkpt>
      <trkpt lat="44.76002" lon="-0.32391">
        <ele>106</ele>
        <time>2013-11-16T15:34:55Z</time>
      </trkpt>
      <trkpt lat="44.76001" lon="-0.32409">
        <ele>106</ele>
        <time>2013-11-16T15:35:02Z</time>
      </trkpt>
      <trkpt lat="44.76" lon="-0.32418">
        <ele>106</ele>
        <time>2013-11-16T15:35:05Z</time>
      </trkpt>
      <trkpt lat="44.76004" lon="-0.32424">
        <ele>106</ele>
        <time>2013-11-16T15:35:09Z</time>
      </trkpt>
      <trkpt lat="44.76026" lon="-0.3243">
        <ele>106</ele>
        <time>2013-11-16T15:35:19Z</time>
      </trkpt>
      <trkpt lat="44.76041" lon="-0.32438">
        <ele>106</ele>
        <time>2013-11-16T15:35:27Z</time>
      </trkpt>
      <trkpt lat="44.76039" lon="-0.32448">
        <ele>106</ele>
        <time>2013-11-16T15:35:33Z</time>
      </trkpt>
      <trkpt lat="44.76033" lon="-0.32471">
        <ele>106</ele>
        <time>2013-11-16T15:35:42Z</time>
      </trkpt>
      <trkpt lat="44.76027" lon="-0.32495">
        <ele>107</ele>
        <time>2013-11-16T15:35:52Z</time>
      </trkpt>
      <trkpt lat="44.76023" lon="-0.32515">
        <ele>107</ele>
        <time>2013-11-16T15:36:01Z</time>
      </trkpt>
      <trkpt lat="44.76019" lon="-0.32537">
        <ele>107</ele>
        <time>2013-11-16T15:36:10Z</time>
      </trkpt>
      <trkpt lat="44.76013" lon="-0.32557">
        <ele>107</ele>
        <time>2013-11-16T15:36:18Z</time>
      </trkpt>
      <trkpt lat="44.7601" lon="-0.32576">
        <ele>107</ele>
        <time>2013-11-16T15:36:26Z</time>
      </trkpt>
      <trkpt lat="44.76003" lon="-0.32599">
        <ele>107</ele>
        <time>2013-11-16T15:36:35Z</time>
      </trkpt>
      <trkpt lat="44.75997" lon="-0.32622">
        <ele>107</ele>
        <time>2013-11-16T15:36:45Z</time>
      </trkpt>
      <trkpt lat="44.75991" lon="-0.32641">
        <ele>107</ele>
        <time>2013-11-16T15:36:53Z</time>
      </trkpt>
      <trkpt lat="44.7599" lon="-0.32645">
        <ele>107</ele>
        <time>2013-11-16T15:36:55Z</time>
      </trkpt>
      <trkpt lat="44.75996" lon="-0.32652">
        <ele>107</ele>
        <time>2013-11-16T15:37:01Z</time>
      </trkpt>
      <trkpt lat="44.76016" lon="-0.32657">
        <ele>107</ele>
        <time>2013-11-16T15:37:12Z</time>
      </trkpt>
      <trkpt lat="44.7603" lon="-0.32662">
        <ele>107</ele>
        <time>2013-11-16T15:37:19Z</time>
      </trkpt>
      <trkpt lat="44.76047" lon="-0.32669">
        <ele>107</ele>
        <time>2013-11-16T15:37:28Z</time>
      </trkpt>
      <trkpt lat="44.76049" lon="-0.3267">
        <ele>107</ele>
        <time>2013-11-16T15:37:30Z</time>
      </trkpt>
      <trkpt lat="44.7605" lon="-0.32689">
        <ele>106</ele>
        <time>2013-11-16T15:37:38Z</time>
      </trkpt>
      <trkpt lat="44.7605" lon="-0.32708">
        <ele>106</ele>
        <time>2013-11-16T15:37:45Z</time>
      </trkpt>
      <trkpt lat="44.76052" lon="-0.32727">
        <ele>106</ele>
        <time>2013-11-16T15:37:51Z</time>
      </trkpt>
      <trkpt lat="44.76052" lon="-0.32737">
        <ele>106</ele>
        <time>2013-11-16T15:37:54Z</time>
      </trkpt>
      <trkpt lat="44.76051" lon="-0.32754">
        <ele>106</ele>
        <time>2013-11-16T15:37:59Z</time>
      </trkpt>
      <trkpt lat="44.7605" lon="-0.3279">
        <ele>106</ele>
        <time>2013-11-16T15:38:09Z</time>
      </trkpt>
      <trkpt lat="44.76049" lon="-0.32812">
        <ele>106</ele>
        <time>2013-11-16T15:38:16Z</time>
      </trkpt>
      <trkpt lat="44.7605" lon="-0.32817">
        <ele>106</ele>
        <time>2013-11-16T15:38:18Z</time>
      </trkpt>
      <trkpt lat="44.7606" lon="-0.32823">
        <ele>106</ele>
        <time>2013-11-16T15:38:25Z</time>
      </trkpt>
      <trkpt lat="44.76066" lon="-0.32837">
        <ele>106</ele>
        <time>2013-11-16T15:38:30Z</time>
      </trkpt>
      <trkpt lat="44.76072" lon="-0.32854">
        <ele>106</ele>
        <time>2013-11-16T15:38:36Z</time>
      </trkpt>
      <trkpt lat="44.76074" lon="-0.3286">
        <ele>106</ele>
        <time>2013-11-16T15:38:38Z</time>
      </trkpt>
      <trkpt lat="44.76081" lon="-0.32879">
        <ele>106</ele>
        <time>2013-11-16T15:38:46Z</time>
      </trkpt>
      <trkpt lat="44.76085" lon="-0.32887">
        <ele>106</ele>
        <time>2013-11-16T15:38:54Z</time>
      </trkpt>
      <trkpt lat="44.76087" lon="-0.3289">
        <ele>106</ele>
        <time>2013-11-16T15:39:01Z</time>
      </trkpt>
      <trkpt lat="44.76089" lon="-0.32892">
        <ele>106</ele>
        <time>2013-11-16T15:39:06Z</time>
      </trkpt>
      <trkpt lat="44.761" lon="-0.32898">
        <ele>106</ele>
        <time>2013-11-16T15:39:13Z</time>
      </trkpt>
      <trkpt lat="44.7612" lon="-0.3291">
        <ele>106</ele>
        <time>2013-11-16T15:39:22Z</time>
      </trkpt>
      <trkpt lat="44.76127" lon="-0.32918">
        <ele>106</ele>
        <time>2013-11-16T15:39:25Z</time>
      </trkpt>
      <trkpt lat="44.76141" lon="-0.32925">
        <ele>106</ele>
        <time>2013-11-16T15:39:32Z</time>
      </trkpt>
      <trkpt lat="44.76151" lon="-0.32938">
        <ele>106</ele>
        <time>2013-11-16T15:39:39Z</time>
      </trkpt>
      <trkpt lat="44.76149" lon="-0.32944">
        <ele>106</ele>
        <time>2013-11-16T15:39:42Z</time>
      </trkpt>
      <trkpt lat="44.76146" lon="-0.32962">
        <ele>106</ele>
        <time>2013-11-16T15:39:49Z</time>
      </trkpt>
      <trkpt lat="44.76142" lon="-0.32984">
        <ele>106</ele>
        <time>2013-11-16T15:39:57Z</time>
      </trkpt>
      <trkpt lat="44.76136" lon="-0.33008">
        <ele>107</ele>
        <time>2013-11-16T15:40:05Z</time>
      </trkpt>
      <trkpt lat="44.76135" lon="-0.3302">
        <ele>107</ele>
        <time>2013-11-16T15:40:09Z</time>
      </trkpt>
      <trkpt lat="44.76123" lon="-0.3303">
        <ele>107</ele>
        <time>2013-11-16T15:40:16Z</time>
      </trkpt>
      <trkpt lat="44.76102" lon="-0.33019">
        <ele>107</ele>
        <time>2013-11-16T15:40:23Z</time>
      </trkpt>
      <trkpt lat="44.76082" lon="-0.33009">
        <ele>106</ele>
        <time>2013-11-16T15:40:29Z</time>
      </trkpt>
      <trkpt lat="44.76054" lon="-0.32997">
        <ele>106</ele>
        <time>2013-11-16T15:40:37Z</time>
      </trkpt>
      <trkpt lat="44.76022" lon="-0.32984">
        <ele>106</ele>
        <time>2013-11-16T15:40:45Z</time>
      </trkpt>
      <trkpt lat="44.75985" lon="-0.3297">
        <ele>106</ele>
        <time>2013-11-16T15:40:53Z</time>
      </trkpt>
      <trkpt lat="44.75981" lon="-0.32969">
        <ele>106</ele>
        <time>2013-11-16T15:40:54Z</time>
      </trkpt>
      <trkpt lat="44.75976" lon="-0.32967">
        <ele>106</ele>
        <time>2013-11-16T15:40:55Z</time>
      </trkpt>
      <trkpt lat="44.7593" lon="-0.3295">
        <ele>106</ele>
        <time>2013-11-16T15:41:05Z</time>
      </trkpt>
      <trkpt lat="44.75921" lon="-0.32947">
        <ele>106</ele>
        <time>2013-11-16T15:41:07Z</time>
      </trkpt>
      <trkpt lat="44.75875" lon="-0.32936">
        <ele>107</ele>
        <time>2013-11-16T15:41:17Z</time>
      </trkpt>
      <trkpt lat="44.75843" lon="-0.32931">
        <ele>107</ele>
        <time>2013-11-16T15:41:25Z</time>
      </trkpt>
      <trkpt lat="44.75817" lon="-0.32932">
        <ele>107</ele>
        <time>2013-11-16T15:41:32Z</time>
      </trkpt>
      <trkpt lat="44.75815" lon="-0.32936">
        <ele>107</ele>
        <time>2013-11-16T15:41:33Z</time>
      </trkpt>
      <trkpt lat="44.75815" lon="-0.32941">
        <ele>107</ele>
        <time>2013-11-16T15:41:34Z</time>
      </trkpt>
      <trkpt lat="44.75815" lon="-0.32947">
        <ele>107</ele>
        <time>2013-11-16T15:41:35Z</time>
      </trkpt>
      <trkpt lat="44.75816" lon="-0.32953">
        <ele>107</ele>
        <time>2013-11-16T15:41:36Z</time>
      </trkpt>
      <trkpt lat="44.75817" lon="-0.32958">
        <ele>107</ele>
        <time>2013-11-16T15:41:37Z</time>
      </trkpt>
      <trkpt lat="44.75818" lon="-0.32964">
        <ele>107</ele>
        <time>2013-11-16T15:41:38Z</time>
      </trkpt>
      <trkpt lat="44.7583" lon="-0.33022">
        <ele>106</ele>
        <time>2013-11-16T15:41:48Z</time>
      </trkpt>
      <trkpt lat="44.75834" lon="-0.33032">
        <ele>106</ele>
        <time>2013-11-16T15:41:50Z</time>
      </trkpt>
      <trkpt lat="44.75838" lon="-0.33036">
        <ele>106</ele>
        <time>2013-11-16T15:41:51Z</time>
      </trkpt>
      <trkpt lat="44.75842" lon="-0.33039">
        <ele>106</ele>
        <time>2013-11-16T15:41:52Z</time>
      </trkpt>
      <trkpt lat="44.75855" lon="-0.33048">
        <ele>106</ele>
        <time>2013-11-16T15:41:55Z</time>
      </trkpt>
      <trkpt lat="44.75875" lon="-0.33073">
        <ele>106</ele>
        <time>2013-11-16T15:42:02Z</time>
      </trkpt>
      <trkpt lat="44.75891" lon="-0.33089">
        <ele>106</ele>
        <time>2013-11-16T15:42:08Z</time>
      </trkpt>
      <trkpt lat="44.75911" lon="-0.33121">
        <ele>106</ele>
        <time>2013-11-16T15:42:16Z</time>
      </trkpt>
      <trkpt lat="44.75913" lon="-0.33126">
        <ele>106</ele>
        <time>2013-11-16T15:42:17Z</time>
      </trkpt>
      <trkpt lat="44.75928" lon="-0.33173">
        <ele>105</ele>
        <time>2013-11-16T15:42:26Z</time>
      </trkpt>
      <trkpt lat="44.75933" lon="-0.33198">
        <ele>105</ele>
        <time>2013-11-16T15:42:31Z</time>
      </trkpt>
      <trkpt lat="44.75942" lon="-0.33232">
        <ele>105</ele>
        <time>2013-11-16T15:42:37Z</time>
      </trkpt>
      <trkpt lat="44.75945" lon="-0.33238">
        <ele>105</ele>
        <time>2013-11-16T15:42:38Z</time>
      </trkpt>
      <trkpt lat="44.75947" lon="-0.33244">
        <ele>105</ele>
        <time>2013-11-16T15:42:39Z</time>
      </trkpt>
      <trkpt lat="44.75953" lon="-0.3327">
        <ele>105</ele>
        <time>2013-11-16T15:42:43Z</time>
      </trkpt>
      <trkpt lat="44.75954" lon="-0.33277">
        <ele>105</ele>
        <time>2013-11-16T15:42:44Z</time>
      </trkpt>
      <trkpt lat="44.75955" lon="-0.33293">
        <ele>105</ele>
        <time>2013-11-16T15:42:46Z</time>
      </trkpt>
      <trkpt lat="44.75955" lon="-0.33344">
        <ele>104</ele>
        <time>2013-11-16T15:42:53Z</time>
      </trkpt>
      <trkpt lat="44.75956" lon="-0.33363">
        <ele>104</ele>
        <time>2013-11-16T15:42:56Z</time>
      </trkpt>
      <trkpt lat="44.75956" lon="-0.33369">
        <ele>104</ele>
        <time>2013-11-16T15:42:57Z</time>
      </trkpt>
      <trkpt lat="44.75957" lon="-0.3342">
        <ele>103</ele>
        <time>2013-11-16T15:43:04Z</time>
      </trkpt>
      <trkpt lat="44.75954" lon="-0.33484">
        <ele>101</ele>
        <time>2013-11-16T15:43:12Z</time>
      </trkpt>
      <trkpt lat="44.75946" lon="-0.33554">
        <ele>101</ele>
        <time>2013-11-16T15:43:21Z</time>
      </trkpt>
      <trkpt lat="44.75944" lon="-0.33597">
        <ele>100</ele>
        <time>2013-11-16T15:43:27Z</time>
      </trkpt>
      <trkpt lat="44.75943" lon="-0.33626">
        <ele>100</ele>
        <time>2013-11-16T15:43:34Z</time>
      </trkpt>
      <trkpt lat="44.75942" lon="-0.33644">
        <ele>100</ele>
        <time>2013-11-16T15:43:38Z</time>
      </trkpt>
      <trkpt lat="44.75938" lon="-0.33685">
        <ele>99</ele>
        <time>2013-11-16T15:43:46Z</time>
      </trkpt>
      <trkpt lat="44.75936" lon="-0.33717">
        <ele>98</ele>
        <time>2013-11-16T15:43:53Z</time>
      </trkpt>
      <trkpt lat="44.7594" lon="-0.33735">
        <ele>98</ele>
        <time>2013-11-16T15:43:58Z</time>
      </trkpt>
      <trkpt lat="44.75941" lon="-0.33739">
        <ele>98</ele>
        <time>2013-11-16T15:43:59Z</time>
      </trkpt>
      <trkpt lat="44.75936" lon="-0.33754">
        <ele>97</ele>
        <time>2013-11-16T15:44:04Z</time>
      </trkpt>
      <trkpt lat="44.75931" lon="-0.33763">
        <ele>97</ele>
        <time>2013-11-16T15:44:10Z</time>
      </trkpt>
      <trkpt lat="44.75931" lon="-0.33766">
        <ele>97</ele>
        <time>2013-11-16T15:44:22Z</time>
      </trkpt>
      <trkpt lat="44.7593" lon="-0.33765">
        <ele>97</ele>
        <time>2013-11-16T15:44:36Z</time>
      </trkpt>
      <trkpt lat="44.7593" lon="-0.33765">
        <ele>97</ele>
        <time>2013-11-16T15:44:40Z</time>
      </trkpt>
      <trkpt lat="44.75929" lon="-0.33766">
        <ele>97</ele>
        <time>2013-11-16T15:44:46Z</time>
      </trkpt>
      <trkpt lat="44.75928" lon="-0.33767">
        <ele>97</ele>
        <time>2013-11-16T15:44:50Z</time>
      </trkpt>
      <trkpt lat="44.75918" lon="-0.33765">
        <ele>96</ele>
        <time>2013-11-16T15:44:56Z</time>
      </trkpt>
      <trkpt lat="44.75904" lon="-0.33757">
        <ele>95</ele>
        <time>2013-11-16T15:45:02Z</time>
      </trkpt>
      <trkpt lat="44.75901" lon="-0.33758">
        <ele>95</ele>
        <time>2013-11-16T15:45:03Z</time>
      </trkpt>
      <trkpt lat="44.75884" lon="-0.33761">
        <ele>92</ele>
        <time>2013-11-16T15:45:09Z</time>
      </trkpt>
      <trkpt lat="44.75856" lon="-0.33774">
        <ele>87</ele>
        <time>2013-11-16T15:45:16Z</time>
      </trkpt>
      <trkpt lat="44.75833" lon="-0.33784">
        <ele>82</ele>
        <time>2013-11-16T15:45:22Z</time>
      </trkpt>
      <trkpt lat="44.75809" lon="-0.3379">
        <ele>78</ele>
        <time>2013-11-16T15:45:29Z</time>
      </trkpt>
      <trkpt lat="44.75807" lon="-0.3379">
        <ele>78</ele>
        <time>2013-11-16T15:45:30Z</time>
      </trkpt>
      <trkpt lat="44.75801" lon="-0.33805">
        <ele>77</ele>
        <time>2013-11-16T15:45:36Z</time>
      </trkpt>
      <trkpt lat="44.75799" lon="-0.33822">
        <ele>77</ele>
        <time>2013-11-16T15:45:41Z</time>
      </trkpt>
      <trkpt lat="44.75797" lon="-0.33833">
        <ele>76</ele>
        <time>2013-11-16T15:45:44Z</time>
      </trkpt>
      <trkpt lat="44.75794" lon="-0.33866">
        <ele>75</ele>
        <time>2013-11-16T15:45:52Z</time>
      </trkpt>
      <trkpt lat="44.75788" lon="-0.33885">
        <ele>74</ele>
        <time>2013-11-16T15:45:59Z</time>
      </trkpt>
      <trkpt lat="44.75784" lon="-0.33894">
        <ele>74</ele>
        <time>2013-11-16T15:46:02Z</time>
      </trkpt>
      <trkpt lat="44.75779" lon="-0.33915">
        <ele>73</ele>
        <time>2013-11-16T15:46:10Z</time>
      </trkpt>
      <trkpt lat="44.75775" lon="-0.33938">
        <ele>72</ele>
        <time>2013-11-16T15:46:18Z</time>
      </trkpt>
      <trkpt lat="44.75771" lon="-0.33962">
        <ele>71</ele>
        <time>2013-11-16T15:46:25Z</time>
      </trkpt>
      <trkpt lat="44.75771" lon="-0.3398">
        <ele>71</ele>
        <time>2013-11-16T15:46:31Z</time>
      </trkpt>
      <trkpt lat="44.7577" lon="-0.33983">
        <ele>70</ele>
        <time>2013-11-16T15:46:32Z</time>
      </trkpt>
      <trkpt lat="44.75769" lon="-0.33999">
        <ele>70</ele>
        <time>2013-11-16T15:46:37Z</time>
      </trkpt>
      <trkpt lat="44.75769" lon="-0.3402">
        <ele>70</ele>
        <time>2013-11-16T15:46:44Z</time>
      </trkpt>
      <trkpt lat="44.75769" lon="-0.34022">
        <ele>70</ele>
        <time>2013-11-16T15:46:45Z</time>
      </trkpt>
      <trkpt lat="44.75772" lon="-0.34041">
        <ele>70</ele>
        <time>2013-11-16T15:46:51Z</time>
      </trkpt>
      <trkpt lat="44.75771" lon="-0.34053">
        <ele>69</ele>
        <time>2013-11-16T15:46:54Z</time>
      </trkpt>
      <trkpt lat="44.75772" lon="-0.34065">
        <ele>69</ele>
        <time>2013-11-16T15:46:58Z</time>
      </trkpt>
      <trkpt lat="44.75773" lon="-0.34083">
        <ele>68</ele>
        <time>2013-11-16T15:47:03Z</time>
      </trkpt>
      <trkpt lat="44.75773" lon="-0.34086">
        <ele>68</ele>
        <time>2013-11-16T15:47:04Z</time>
      </trkpt>
      <trkpt lat="44.75777" lon="-0.341">
        <ele>68</ele>
        <time>2013-11-16T15:47:10Z</time>
      </trkpt>
      <trkpt lat="44.75778" lon="-0.34112">
        <ele>68</ele>
        <time>2013-11-16T15:47:17Z</time>
      </trkpt>
      <trkpt lat="44.75778" lon="-0.34117">
        <ele>67</ele>
        <time>2013-11-16T15:47:23Z</time>
      </trkpt>
      <trkpt lat="44.75781" lon="-0.34129">
        <ele>67</ele>
        <time>2013-11-16T15:47:27Z</time>
      </trkpt>
      <trkpt lat="44.75786" lon="-0.34139">
        <ele>67</ele>
        <time>2013-11-16T15:47:33Z</time>
      </trkpt>
      <trkpt lat="44.75787" lon="-0.34146">
        <ele>67</ele>
        <time>2013-11-16T15:47:39Z</time>
      </trkpt>
      <trkpt lat="44.75789" lon="-0.34159">
        <ele>67</ele>
        <time>2013-11-16T15:47:44Z</time>
      </trkpt>
      <trkpt lat="44.75788" lon="-0.34172">
        <ele>66</ele>
        <time>2013-11-16T15:47:47Z</time>
      </trkpt>
      <trkpt lat="44.75787" lon="-0.34182">
        <ele>66</ele>
        <time>2013-11-16T15:47:51Z</time>
      </trkpt>
      <trkpt lat="44.75787" lon="-0.34201">
        <ele>65</ele>
        <time>2013-11-16T15:47:57Z</time>
      </trkpt>
      <trkpt lat="44.75788" lon="-0.3421">
        <ele>65</ele>
        <time>2013-11-16T15:48:02Z</time>
      </trkpt>
      <trkpt lat="44.7579" lon="-0.34218">
        <ele>65</ele>
        <time>2013-11-16T15:48:06Z</time>
      </trkpt>
      <trkpt lat="44.75793" lon="-0.3423">
        <ele>65</ele>
        <time>2013-11-16T15:48:13Z</time>
      </trkpt>
      <trkpt lat="44.75791" lon="-0.34235">
        <ele>65</ele>
        <time>2013-11-16T15:48:21Z</time>
      </trkpt>
      <trkpt lat="44.75792" lon="-0.34238">
        <ele>65</ele>
        <time>2013-11-16T15:48:27Z</time>
      </trkpt>
      <trkpt lat="44.75794" lon="-0.34248">
        <ele>65</ele>
        <time>2013-11-16T15:48:34Z</time>
      </trkpt>
      <trkpt lat="44.75797" lon="-0.34263">
        <ele>66</ele>
        <time>2013-11-16T15:48:40Z</time>
      </trkpt>
      <trkpt lat="44.75801" lon="-0.34274">
        <ele>67</ele>
        <time>2013-11-16T15:48:45Z</time>
      </trkpt>
      <trkpt lat="44.75802" lon="-0.34296">
        <ele>68</ele>
        <time>2013-11-16T15:48:52Z</time>
      </trkpt>
      <trkpt lat="44.75795" lon="-0.34308">
        <ele>67</ele>
        <time>2013-11-16T15:48:57Z</time>
      </trkpt>
      <trkpt lat="44.75793" lon="-0.34321">
        <ele>67</ele>
        <time>2013-11-16T15:49:03Z</time>
      </trkpt>
      <trkpt lat="44.75793" lon="-0.34332">
        <ele>67</ele>
        <time>2013-11-16T15:49:09Z</time>
      </trkpt>
      <trkpt lat="44.75793" lon="-0.3434">
        <ele>67</ele>
        <time>2013-11-16T15:49:12Z</time>
      </trkpt>
      <trkpt lat="44.75792" lon="-0.34362">
        <ele>66</ele>
        <time>2013-11-16T15:49:19Z</time>
      </trkpt>
      <trkpt lat="44.75789" lon="-0.34377">
        <ele>65</ele>
        <time>2013-11-16T15:49:24Z</time>
      </trkpt>
      <trkpt lat="44.75788" lon="-0.34381">
        <ele>65</ele>
        <time>2013-11-16T15:49:25Z</time>
      </trkpt>
      <trkpt lat="44.75787" lon="-0.34406">
        <ele>64</ele>
        <time>2013-11-16T15:49:33Z</time>
      </trkpt>
      <trkpt lat="44.75784" lon="-0.34414">
        <ele>64</ele>
        <time>2013-11-16T15:49:36Z</time>
      </trkpt>
      <trkpt lat="44.75785" lon="-0.3443">
        <ele>63</ele>
        <time>2013-11-16T15:49:42Z</time>
      </trkpt>
      <trkpt lat="44.75786" lon="-0.34447">
        <ele>63</ele>
        <time>2013-11-16T15:49:47Z</time>
      </trkpt>
      <trkpt lat="44.75784" lon="-0.34458">
        <ele>63</ele>
        <time>2013-11-16T15:49:50Z</time>
      </trkpt>
      <trkpt lat="44.75779" lon="-0.34488">
        <ele>62</ele>
        <time>2013-11-16T15:49:57Z</time>
      </trkpt>
      <trkpt lat="44.75778" lon="-0.34494">
        <ele>62</ele>
        <time>2013-11-16T15:50:02Z</time>
      </trkpt>
      <trkpt lat="44.75779" lon="-0.34503">
        <ele>62</ele>
        <time>2013-11-16T15:50:08Z</time>
      </trkpt>
      <trkpt lat="44.75781" lon="-0.34515">
        <ele>62</ele>
        <time>2013-11-16T15:50:14Z</time>
      </trkpt>
      <trkpt lat="44.75783" lon="-0.34535">
        <ele>61</ele>
        <time>2013-11-16T15:50:20Z</time>
      </trkpt>
      <trkpt lat="44.75788" lon="-0.34551">
        <ele>61</ele>
        <time>2013-11-16T15:50:25Z</time>
      </trkpt>
      <trkpt lat="44.75795" lon="-0.34571">
        <ele>60</ele>
        <time>2013-11-16T15:50:31Z</time>
      </trkpt>
      <trkpt lat="44.758" lon="-0.34586">
        <ele>60</ele>
        <time>2013-11-16T15:50:36Z</time>
      </trkpt>
      <trkpt lat="44.75796" lon="-0.34595">
        <ele>60</ele>
        <time>2013-11-16T15:50:42Z</time>
      </trkpt>
      <trkpt lat="44.75795" lon="-0.34598">
        <ele>60</ele>
        <time>2013-11-16T15:50:50Z</time>
      </trkpt>
      <trkpt lat="44.75794" lon="-0.34599">
        <ele>60</ele>
        <time>2013-11-16T15:50:57Z</time>
      </trkpt>
      <trkpt lat="44.75794" lon="-0.34601">
        <ele>60</ele>
        <time>2013-11-16T15:51:10Z</time>
      </trkpt>
      <trkpt lat="44.75793" lon="-0.34602">
        <ele>60</ele>
        <time>2013-11-16T15:51:16Z</time>
      </trkpt>
      <trkpt lat="44.75793" lon="-0.34602">
        <ele>60</ele>
        <time>2013-11-16T15:51:17Z</time>
      </trkpt>
      <trkpt lat="44.75793" lon="-0.34602">
        <ele>60</ele>
        <time>2013-11-16T15:51:19Z</time>
      </trkpt>
      <trkpt lat="44.75789" lon="-0.34604">
        <ele>61</ele>
        <time>2013-11-16T15:51:25Z</time>
      </trkpt>
      <trkpt lat="44.75788" lon="-0.34606">
        <ele>61</ele>
        <time>2013-11-16T15:51:31Z</time>
      </trkpt>
      <trkpt lat="44.75788" lon="-0.34608">
        <ele>61</ele>
        <time>2013-11-16T15:51:37Z</time>
      </trkpt>
      <trkpt lat="44.75787" lon="-0.34608">
        <ele>61</ele>
        <time>2013-11-16T15:51:44Z</time>
      </trkpt>
      <trkpt lat="44.75788" lon="-0.34608">
        <ele>61</ele>
        <time>2013-11-16T15:52:00Z</time>
      </trkpt>
      <trkpt lat="44.75787" lon="-0.34608">
        <ele>61</ele>
        <time>2013-11-16T15:52:16Z</time>
      </trkpt>
      <trkpt lat="44.75788" lon="-0.34614">
        <ele>61</ele>
        <time>2013-11-16T15:52:20Z</time>
      </trkpt>
      <trkpt lat="44.75793" lon="-0.3463">
        <ele>61</ele>
        <time>2013-11-16T15:52:29Z</time>
      </trkpt>
      <trkpt lat="44.75798" lon="-0.34641">
        <ele>60</ele>
        <time>2013-11-16T15:52:33Z</time>
      </trkpt>
      <trkpt lat="44.75799" lon="-0.34647">
        <ele>60</ele>
        <time>2013-11-16T15:52:35Z</time>
      </trkpt>
      <trkpt lat="44.75806" lon="-0.34667">
        <ele>60</ele>
        <time>2013-11-16T15:52:41Z</time>
      </trkpt>
      <trkpt lat="44.75809" lon="-0.34677">
        <ele>60</ele>
        <time>2013-11-16T15:52:45Z</time>
      </trkpt>
      <trkpt lat="44.75811" lon="-0.34681">
        <ele>60</ele>
        <time>2013-11-16T15:52:46Z</time>
      </trkpt>
      <trkpt lat="44.75825" lon="-0.34708">
        <ele>59</ele>
        <time>2013-11-16T15:52:53Z</time>
      </trkpt>
      <trkpt lat="44.75831" lon="-0.34717">
        <ele>59</ele>
        <time>2013-11-16T15:52:59Z</time>
      </trkpt>
      <trkpt lat="44.75835" lon="-0.34722">
        <ele>59</ele>
        <time>2013-11-16T15:53:06Z</time>
      </trkpt>
      <trkpt lat="44.75837" lon="-0.34731">
        <ele>59</ele>
        <time>2013-11-16T15:53:14Z</time>
      </trkpt>
      <trkpt lat="44.75838" lon="-0.34737">
        <ele>59</ele>
        <time>2013-11-16T15:53:22Z</time>
      </trkpt>
      <trkpt lat="44.75839" lon="-0.34739">
        <ele>59</ele>
        <time>2013-11-16T15:53:30Z</time>
      </trkpt>
      <trkpt lat="44.75839" lon="-0.34741">
        <ele>59</ele>
        <time>2013-11-16T15:53:38Z</time>
      </trkpt>
      <trkpt lat="44.75839" lon="-0.34743">
        <ele>59</ele>
        <time>2013-11-16T15:53:46Z</time>
      </trkpt>
      <trkpt lat="44.75843" lon="-0.34749">
        <ele>59</ele>
        <time>2013-11-16T15:53:51Z</time>
      </trkpt>
      <trkpt lat="44.75853" lon="-0.34764">
        <ele>58</ele>
        <time>2013-11-16T15:53:57Z</time>
      </trkpt>
      <trkpt lat="44.75859" lon="-0.34775">
        <ele>58</ele>
        <time>2013-11-16T15:54:00Z</time>
      </trkpt>
      <trkpt lat="44.7587" lon="-0.34793">
        <ele>57</ele>
        <time>2013-11-16T15:54:05Z</time>
      </trkpt>
      <trkpt lat="44.75874" lon="-0.34818">
        <ele>57</ele>
        <time>2013-11-16T15:54:10Z</time>
      </trkpt>
      <trkpt lat="44.75866" lon="-0.3485">
        <ele>57</ele>
        <time>2013-11-16T15:54:16Z</time>
      </trkpt>
      <trkpt lat="44.75845" lon="-0.34883">
        <ele>58</ele>
        <time>2013-11-16T15:54:24Z</time>
      </trkpt>
      <trkpt lat="44.75823" lon="-0.34912">
        <ele>57</ele>
        <time>2013-11-16T15:54:32Z</time>
      </trkpt>
      <trkpt lat="44.75813" lon="-0.34937">
        <ele>57</ele>
        <time>2013-11-16T15:54:38Z</time>
      </trkpt>
      <trkpt lat="44.7581" lon="-0.34974">
        <ele>57</ele>
        <time>2013-11-16T15:54:46Z</time>
      </trkpt>
      <trkpt lat="44.75808" lon="-0.34997">
        <ele>57</ele>
        <time>2013-11-16T15:54:52Z</time>
      </trkpt>
      <trkpt lat="44.75809" lon="-0.35025">
        <ele>58</ele>
        <time>2013-11-16T15:55:00Z</time>
      </trkpt>
      <trkpt lat="44.75812" lon="-0.35061">
        <ele>57</ele>
        <time>2013-11-16T15:55:09Z</time>
      </trkpt>
      <trkpt lat="44.75816" lon="-0.35086">
        <ele>56</ele>
        <time>2013-11-16T15:55:16Z</time>
      </trkpt>
      <trkpt lat="44.7583" lon="-0.35105">
        <ele>54</ele>
        <time>2013-11-16T15:55:21Z</time>
      </trkpt>
      <trkpt lat="44.7584" lon="-0.35118">
        <ele>53</ele>
        <time>2013-11-16T15:55:24Z</time>
      </trkpt>
      <trkpt lat="44.75842" lon="-0.35123">
        <ele>53</ele>
        <time>2013-11-16T15:55:25Z</time>
      </trkpt>
      <trkpt lat="44.75844" lon="-0.35127">
        <ele>53</ele>
        <time>2013-11-16T15:55:26Z</time>
      </trkpt>
      <trkpt lat="44.75849" lon="-0.35139">
        <ele>52</ele>
        <time>2013-11-16T15:55:31Z</time>
      </trkpt>
      <trkpt lat="44.7585" lon="-0.3514">
        <ele>52</ele>
        <time>2013-11-16T15:55:38Z</time>
      </trkpt>
      <trkpt lat="44.75849" lon="-0.35141">
        <ele>52</ele>
        <time>2013-11-16T15:55:50Z</time>
      </trkpt>
      <trkpt lat="44.75849" lon="-0.35141">
        <ele>52</ele>
        <time>2013-11-16T15:55:59Z</time>
      </trkpt>
      <trkpt lat="44.75849" lon="-0.3514">
        <ele>52</ele>
        <time>2013-11-16T15:56:12Z</time>
      </trkpt>
      <trkpt lat="44.75849" lon="-0.3514">
        <ele>52</ele>
        <time>2013-11-16T15:56:19Z</time>
      </trkpt>
      <trkpt lat="44.75848" lon="-0.35139">
        <ele>52</ele>
        <time>2013-11-16T15:56:32Z</time>
      </trkpt>
      <trkpt lat="44.75849" lon="-0.3514">
        <ele>52</ele>
        <time>2013-11-16T15:56:43Z</time>
      </trkpt>
      <trkpt lat="44.75849" lon="-0.3514">
        <ele>52</ele>
        <time>2013-11-16T15:56:54Z</time>
      </trkpt>
      <trkpt lat="44.75849" lon="-0.3514">
        <ele>52</ele>
        <time>2013-11-16T15:57:01Z</time>
      </trkpt>
      <trkpt lat="44.75849" lon="-0.3514">
        <ele>52</ele>
        <time>2013-11-16T15:57:09Z</time>
      </trkpt>
      <trkpt lat="44.75849" lon="-0.3514">
        <ele>52</ele>
        <time>2013-11-16T15:57:19Z</time>
      </trkpt>
      <trkpt lat="44.75849" lon="-0.3514">
        <ele>52</ele>
        <time>2013-11-16T15:57:31Z</time>
      </trkpt>
      <trkpt lat="44.75849" lon="-0.35141">
        <ele>52</ele>
        <time>2013-11-16T15:57:41Z</time>
      </trkpt>
      <trkpt lat="44.7585" lon="-0.3514">
        <ele>52</ele>
        <time>2013-11-16T15:57:51Z</time>
      </trkpt>
      <trkpt lat="44.75853" lon="-0.35143">
        <ele>52</ele>
        <time>2013-11-16T15:58:01Z</time>
      </trkpt>
      <trkpt lat="44.7586" lon="-0.35144">
        <ele>52</ele>
        <time>2013-11-16T15:58:06Z</time>
      </trkpt>
      <trkpt lat="44.75865" lon="-0.35144">
        <ele>52</ele>
        <time>2013-11-16T15:58:09Z</time>
      </trkpt>
      <trkpt lat="44.75866" lon="-0.35144">
        <ele>52</ele>
        <time>2013-11-16T15:58:10Z</time>
      </trkpt>
      <trkpt lat="44.75868" lon="-0.35145">
        <ele>52</ele>
        <time>2013-11-16T15:58:11Z</time>
      </trkpt>
      <trkpt lat="44.7587" lon="-0.35145">
        <ele>52</ele>
        <time>2013-11-16T15:58:12Z</time>
      </trkpt>
      <trkpt lat="44.75872" lon="-0.35146">
        <ele>52</ele>
        <time>2013-11-16T15:58:13Z</time>
      </trkpt>
      <trkpt lat="44.75875" lon="-0.35146">
        <ele>52</ele>
        <time>2013-11-16T15:58:14Z</time>
      </trkpt>
      <trkpt lat="44.75896" lon="-0.35151">
        <ele>52</ele>
        <time>2013-11-16T15:58:23Z</time>
      </trkpt>
      <trkpt lat="44.75909" lon="-0.35155">
        <ele>53</ele>
        <time>2013-11-16T15:58:30Z</time>
      </trkpt>
      <trkpt lat="44.75913" lon="-0.35151">
        <ele>53</ele>
        <time>2013-11-16T15:58:36Z</time>
      </trkpt>
      <trkpt lat="44.75914" lon="-0.35146">
        <ele>53</ele>
        <time>2013-11-16T15:58:43Z</time>
      </trkpt>
      <trkpt lat="44.75915" lon="-0.35141">
        <ele>53</ele>
        <time>2013-11-16T15:58:51Z</time>
      </trkpt>
      <trkpt lat="44.75917" lon="-0.35132">
        <ele>53</ele>
        <time>2013-11-16T15:58:59Z</time>
      </trkpt>
      <trkpt lat="44.75918" lon="-0.35127">
        <ele>53</ele>
        <time>2013-11-16T15:59:04Z</time>
      </trkpt>
      <trkpt lat="44.75922" lon="-0.35112">
        <ele>53</ele>
        <time>2013-11-16T15:59:10Z</time>
      </trkpt>
      <trkpt lat="44.75925" lon="-0.35091">
        <ele>53</ele>
        <time>2013-11-16T15:59:18Z</time>
      </trkpt>
      <trkpt lat="44.7593" lon="-0.35068">
        <ele>55</ele>
        <time>2013-11-16T15:59:26Z</time>
      </trkpt>
      <trkpt lat="44.75932" lon="-0.35044">
        <ele>56</ele>
        <time>2013-11-16T15:59:33Z</time>
      </trkpt>
      <trkpt lat="44.75931" lon="-0.3502">
        <ele>56</ele>
        <time>2013-11-16T15:59:40Z</time>
      </trkpt>
      <trkpt lat="44.75935" lon="-0.34998">
        <ele>58</ele>
        <time>2013-11-16T15:59:47Z</time>
      </trkpt>
      <trkpt lat="44.75938" lon="-0.34979">
        <ele>59</ele>
        <time>2013-11-16T15:59:53Z</time>
      </trkpt>
      <trkpt lat="44.75946" lon="-0.34958">
        <ele>60</ele>
        <time>2013-11-16T16:00:01Z</time>
      </trkpt>
      <trkpt lat="44.75951" lon="-0.34943">
        <ele>61</ele>
        <time>2013-11-16T16:00:07Z</time>
      </trkpt>
      <trkpt lat="44.75953" lon="-0.3492">
        <ele>61</ele>
        <time>2013-11-16T16:00:16Z</time>
      </trkpt>
      <trkpt lat="44.75954" lon="-0.34909">
        <ele>61</ele>
        <time>2013-11-16T16:00:22Z</time>
      </trkpt>
      <trkpt lat="44.75954" lon="-0.34905">
        <ele>61</ele>
        <time>2013-11-16T16:00:28Z</time>
      </trkpt>
      <trkpt lat="44.75954" lon="-0.34906">
        <ele>61</ele>
        <time>2013-11-16T16:00:35Z</time>
      </trkpt>
      <trkpt lat="44.75954" lon="-0.34905">
        <ele>61</ele>
        <time>2013-11-16T16:00:51Z</time>
      </trkpt>
      <trkpt lat="44.75954" lon="-0.34905">
        <ele>61</ele>
        <time>2013-11-16T16:01:03Z</time>
      </trkpt>
      <trkpt lat="44.75954" lon="-0.34905">
        <ele>61</ele>
        <time>2013-11-16T16:01:14Z</time>
      </trkpt>
      <trkpt lat="44.75954" lon="-0.34905">
        <ele>61</ele>
        <time>2013-11-16T16:01:25Z</time>
      </trkpt>
      <trkpt lat="44.75954" lon="-0.34905">
        <ele>61</ele>
        <time>2013-11-16T16:01:37Z</time>
      </trkpt>
      <trkpt lat="44.75954" lon="-0.3489">
        <ele>61</ele>
        <time>2013-11-16T16:01:44Z</time>
      </trkpt>
      <trkpt lat="44.75955" lon="-0.34865">
        <ele>60</ele>
        <time>2013-11-16T16:01:52Z</time>
      </trkpt>
      <trkpt lat="44.75957" lon="-0.34842">
        <ele>59</ele>
        <time>2013-11-16T16:01:59Z</time>
      </trkpt>
      <trkpt lat="44.75961" lon="-0.34829">
        <ele>59</ele>
        <time>2013-11-16T16:02:03Z</time>
      </trkpt>
      <trkpt lat="44.75971" lon="-0.3481">
        <ele>59</ele>
        <time>2013-11-16T16:02:10Z</time>
      </trkpt>
      <trkpt lat="44.75978" lon="-0.34799">
        <ele>59</ele>
        <time>2013-11-16T16:02:15Z</time>
      </trkpt>
      <trkpt lat="44.75984" lon="-0.3479">
        <ele>59</ele>
        <time>2013-11-16T16:02:21Z</time>
      </trkpt>
      <trkpt lat="44.75993" lon="-0.34776">
        <ele>59</ele>
        <time>2013-11-16T16:02:28Z</time>
      </trkpt>
      <trkpt lat="44.76008" lon="-0.34758">
        <ele>61</ele>
        <time>2013-11-16T16:02:36Z</time>
      </trkpt>
      <trkpt lat="44.76014" lon="-0.34744">
        <ele>61</ele>
        <time>2013-11-16T16:02:42Z</time>
      </trkpt>
      <trkpt lat="44.76024" lon="-0.34724">
        <ele>60</ele>
        <time>2013-11-16T16:02:49Z</time>
      </trkpt>
      <trkpt lat="44.76034" lon="-0.34708">
        <ele>60</ele>
        <time>2013-11-16T16:02:55Z</time>
      </trkpt>
      <trkpt lat="44.76041" lon="-0.34701">
        <ele>60</ele>
        <time>2013-11-16T16:03:02Z</time>
      </trkpt>
      <trkpt lat="44.76046" lon="-0.34694">
        <ele>60</ele>
        <time>2013-11-16T16:03:07Z</time>
      </trkpt>
      <trkpt lat="44.76049" lon="-0.34689">
        <ele>60</ele>
        <time>2013-11-16T16:03:10Z</time>
      </trkpt>
      <trkpt lat="44.76061" lon="-0.3469">
        <ele>60</ele>
        <time>2013-11-16T16:03:18Z</time>
      </trkpt>
      <trkpt lat="44.76072" lon="-0.34695">
        <ele>60</ele>
        <time>2013-11-16T16:03:25Z</time>
      </trkpt>
      <trkpt lat="44.76076" lon="-0.34698">
        <ele>60</ele>
        <time>2013-11-16T16:03:30Z</time>
      </trkpt>
      <trkpt lat="44.76086" lon="-0.34703">
        <ele>60</ele>
        <time>2013-11-16T16:03:37Z</time>
      </trkpt>
      <trkpt lat="44.76094" lon="-0.34708">
        <ele>61</ele>
        <time>2013-11-16T16:03:42Z</time>
      </trkpt>
      <trkpt lat="44.761" lon="-0.34714">
        <ele>61</ele>
        <time>2013-11-16T16:03:47Z</time>
      </trkpt>
      <trkpt lat="44.76101" lon="-0.34718">
        <ele>61</ele>
        <time>2013-11-16T16:03:49Z</time>
      </trkpt>
      <trkpt lat="44.76102" lon="-0.34724">
        <ele>61</ele>
        <time>2013-11-16T16:03:52Z</time>
      </trkpt>
      <trkpt lat="44.76102" lon="-0.34728">
        <ele>62</ele>
        <time>2013-11-16T16:03:54Z</time>
      </trkpt>
      <trkpt lat="44.76099" lon="-0.34735">
        <ele>62</ele>
        <time>2013-11-16T16:03:59Z</time>
      </trkpt>
      <trkpt lat="44.76095" lon="-0.34749">
        <ele>64</ele>
        <time>2013-11-16T16:04:06Z</time>
      </trkpt>
      <trkpt lat="44.76097" lon="-0.34758">
        <ele>65</ele>
        <time>2013-11-16T16:04:12Z</time>
      </trkpt>
      <trkpt lat="44.76097" lon="-0.34767">
        <ele>66</ele>
        <time>2013-11-16T16:04:20Z</time>
      </trkpt>
      <trkpt lat="44.76098" lon="-0.34771">
        <ele>66</ele>
        <time>2013-11-16T16:04:26Z</time>
      </trkpt>
      <trkpt lat="44.76098" lon="-0.34775">
        <ele>67</ele>
        <time>2013-11-16T16:04:35Z</time>
      </trkpt>
      <trkpt lat="44.76099" lon="-0.34778">
        <ele>67</ele>
        <time>2013-11-16T16:04:41Z</time>
      </trkpt>
      <trkpt lat="44.76101" lon="-0.34785">
        <ele>67</ele>
        <time>2013-11-16T16:04:48Z</time>
      </trkpt>
      <trkpt lat="44.76101" lon="-0.3479">
        <ele>68</ele>
        <time>2013-11-16T16:04:53Z</time>
      </trkpt>
      <trkpt lat="44.76102" lon="-0.34792">
        <ele>68</ele>
        <time>2013-11-16T16:05:00Z</time>
      </trkpt>
      <trkpt lat="44.76104" lon="-0.34799">
        <ele>69</ele>
        <time>2013-11-16T16:05:08Z</time>
      </trkpt>
      <trkpt lat="44.76104" lon="-0.34802">
        <ele>70</ele>
        <time>2013-11-16T16:05:13Z</time>
      </trkpt>
      <trkpt lat="44.76102" lon="-0.34805">
        <ele>70</ele>
        <time>2013-11-16T16:05:21Z</time>
      </trkpt>
      <trkpt lat="44.76096" lon="-0.34812">
        <ele>71</ele>
        <time>2013-11-16T16:05:28Z</time>
      </trkpt>
      <trkpt lat="44.76095" lon="-0.34813">
        <ele>71</ele>
        <time>2013-11-16T16:05:29Z</time>
      </trkpt>
      <trkpt lat="44.76093" lon="-0.34817">
        <ele>71</ele>
        <time>2013-11-16T16:05:32Z</time>
      </trkpt>
      <trkpt lat="44.76092" lon="-0.34821">
        <ele>72</ele>
        <time>2013-11-16T16:05:34Z</time>
      </trkpt>
      <trkpt lat="44.76091" lon="-0.34834">
        <ele>73</ele>
        <time>2013-11-16T16:05:41Z</time>
      </trkpt>
      <trkpt lat="44.76091" lon="-0.3484">
        <ele>74</ele>
        <time>2013-11-16T16:05:44Z</time>
      </trkpt>
      <trkpt lat="44.76097" lon="-0.34844">
        <ele>75</ele>
        <time>2013-11-16T16:05:49Z</time>
      </trkpt>
      <trkpt lat="44.76099" lon="-0.3485">
        <ele>75</ele>
        <time>2013-11-16T16:05:53Z</time>
      </trkpt>
      <trkpt lat="44.76099" lon="-0.34855">
        <ele>76</ele>
        <time>2013-11-16T16:05:55Z</time>
      </trkpt>
      <trkpt lat="44.76101" lon="-0.34861">
        <ele>76</ele>
        <time>2013-11-16T16:05:58Z</time>
      </trkpt>
      <trkpt lat="44.76109" lon="-0.34866">
        <ele>77</ele>
        <time>2013-11-16T16:06:06Z</time>
      </trkpt>
      <trkpt lat="44.76116" lon="-0.3487">
        <ele>77</ele>
        <time>2013-11-16T16:06:11Z</time>
      </trkpt>
      <trkpt lat="44.76127" lon="-0.34876">
        <ele>77</ele>
        <time>2013-11-16T16:06:19Z</time>
      </trkpt>
      <trkpt lat="44.76138" lon="-0.34883">
        <ele>77</ele>
        <time>2013-11-16T16:06:26Z</time>
      </trkpt>
      <trkpt lat="44.76151" lon="-0.34895">
        <ele>78</ele>
        <time>2013-11-16T16:06:32Z</time>
      </trkpt>
      <trkpt lat="44.76148" lon="-0.34913">
        <ele>80</ele>
        <time>2013-11-16T16:06:39Z</time>
      </trkpt>
      <trkpt lat="44.76143" lon="-0.34933">
        <ele>82</ele>
        <time>2013-11-16T16:06:48Z</time>
      </trkpt>
      <trkpt lat="44.76141" lon="-0.34946">
        <ele>83</ele>
        <time>2013-11-16T16:06:54Z</time>
      </trkpt>
      <trkpt lat="44.76137" lon="-0.34959">
        <ele>84</ele>
        <time>2013-11-16T16:07:01Z</time>
      </trkpt>
      <trkpt lat="44.76134" lon="-0.34977">
        <ele>85</ele>
        <time>2013-11-16T16:07:09Z</time>
      </trkpt>
      <trkpt lat="44.76133" lon="-0.34985">
        <ele>85</ele>
        <time>2013-11-16T16:07:13Z</time>
      </trkpt>
      <trkpt lat="44.76135" lon="-0.34991">
        <ele>85</ele>
        <time>2013-11-16T16:07:16Z</time>
      </trkpt>
      <trkpt lat="44.76146" lon="-0.34999">
        <ele>86</ele>
        <time>2013-11-16T16:07:24Z</time>
      </trkpt>
      <trkpt lat="44.76155" lon="-0.35009">
        <ele>86</ele>
        <time>2013-11-16T16:07:32Z</time>
      </trkpt>
      <trkpt lat="44.76169" lon="-0.35018">
        <ele>86</ele>
        <time>2013-11-16T16:07:41Z</time>
      </trkpt>
      <trkpt lat="44.76181" lon="-0.35029">
        <ele>86</ele>
        <time>2013-11-16T16:07:49Z</time>
      </trkpt>
      <trkpt lat="44.76195" lon="-0.35043">
        <ele>86</ele>
        <time>2013-11-16T16:07:57Z</time>
      </trkpt>
      <trkpt lat="44.7621" lon="-0.35059">
        <ele>85</ele>
        <time>2013-11-16T16:08:05Z</time>
      </trkpt>
      <trkpt lat="44.76224" lon="-0.35074">
        <ele>85</ele>
        <time>2013-11-16T16:08:12Z</time>
      </trkpt>
      <trkpt lat="44.76245" lon="-0.35095">
        <ele>85</ele>
        <time>2013-11-16T16:08:21Z</time>
      </trkpt>
      <trkpt lat="44.7626" lon="-0.35109">
        <ele>85</ele>
        <time>2013-11-16T16:08:27Z</time>
      </trkpt>
      <trkpt lat="44.7627" lon="-0.35116">
        <ele>84</ele>
        <time>2013-11-16T16:08:32Z</time>
      </trkpt>
      <trkpt lat="44.76281" lon="-0.35126">
        <ele>84</ele>
        <time>2013-11-16T16:08:39Z</time>
      </trkpt>
      <trkpt lat="44.76298" lon="-0.35136">
        <ele>85</ele>
        <time>2013-11-16T16:08:48Z</time>
      </trkpt>
      <trkpt lat="44.76312" lon="-0.35147">
        <ele>87</ele>
        <time>2013-11-16T16:08:56Z</time>
      </trkpt>
      <trkpt lat="44.76327" lon="-0.3516">
        <ele>89</ele>
        <time>2013-11-16T16:09:02Z</time>
      </trkpt>
      <trkpt lat="44.76323" lon="-0.35195">
        <ele>90</ele>
        <time>2013-11-16T16:09:11Z</time>
      </trkpt>
      <trkpt lat="44.76321" lon="-0.35213">
        <ele>90</ele>
        <time>2013-11-16T16:09:17Z</time>
      </trkpt>
      <trkpt lat="44.76325" lon="-0.35222">
        <ele>90</ele>
        <time>2013-11-16T16:09:24Z</time>
      </trkpt>
      <trkpt lat="44.76325" lon="-0.35222">
        <ele>90</ele>
        <time>2013-11-16T16:09:30Z</time>
      </trkpt>
      <trkpt lat="44.76326" lon="-0.35222">
        <ele>90</ele>
        <time>2013-11-16T16:09:38Z</time>
      </trkpt>
      <trkpt lat="44.76328" lon="-0.35229">
        <ele>90</ele>
        <time>2013-11-16T16:09:44Z</time>
      </trkpt>
      <trkpt lat="44.76329" lon="-0.35231">
        <ele>90</ele>
        <time>2013-11-16T16:09:45Z</time>
      </trkpt>
      <trkpt lat="44.76338" lon="-0.35227">
        <ele>90</ele>
        <time>2013-11-16T16:09:51Z</time>
      </trkpt>
      <trkpt lat="44.76339" lon="-0.35225">
        <ele>90</ele>
        <time>2013-11-16T16:09:52Z</time>
      </trkpt>
      <trkpt lat="44.76357" lon="-0.35218">
        <ele>90</ele>
        <time>2013-11-16T16:10:00Z</time>
      </trkpt>
      <trkpt lat="44.76377" lon="-0.35214">
        <ele>89</ele>
        <time>2013-11-16T16:10:07Z</time>
      </trkpt>
      <trkpt lat="44.764" lon="-0.35212">
        <ele>89</ele>
        <time>2013-11-16T16:10:14Z</time>
      </trkpt>
      <trkpt lat="44.76422" lon="-0.35208">
        <ele>89</ele>
        <time>2013-11-16T16:10:21Z</time>
      </trkpt>
      <trkpt lat="44.7645" lon="-0.35202">
        <ele>90</ele>
        <time>2013-11-16T16:10:29Z</time>
      </trkpt>
      <trkpt lat="44.76476" lon="-0.35199">
        <ele>90</ele>
        <time>2013-11-16T16:10:36Z</time>
      </trkpt>
      <trkpt lat="44.76508" lon="-0.35194">
        <ele>91</ele>
        <time>2013-11-16T16:10:44Z</time>
      </trkpt>
      <trkpt lat="44.76511" lon="-0.35194">
        <ele>91</ele>
        <time>2013-11-16T16:10:45Z</time>
      </trkpt>
      <trkpt lat="44.76516" lon="-0.35195">
        <ele>91</ele>
        <time>2013-11-16T16:10:46Z</time>
      </trkpt>
      <trkpt lat="44.76549" lon="-0.35191">
        <ele>92</ele>
        <time>2013-11-16T16:10:55Z</time>
      </trkpt>
      <trkpt lat="44.76564" lon="-0.35189">
        <ele>92</ele>
        <time>2013-11-16T16:11:00Z</time>
      </trkpt>
      <trkpt lat="44.76584" lon="-0.35184">
        <ele>93</ele>
        <time>2013-11-16T16:11:06Z</time>
      </trkpt>
      <trkpt lat="44.76616" lon="-0.35177">
        <ele>93</ele>
        <time>2013-11-16T16:11:14Z</time>
      </trkpt>
      <trkpt lat="44.76658" lon="-0.35163">
        <ele>92</ele>
        <time>2013-11-16T16:11:24Z</time>
      </trkpt>
      <trkpt lat="44.76686" lon="-0.35155">
        <ele>91</ele>
        <time>2013-11-16T16:11:31Z</time>
      </trkpt>
      <trkpt lat="44.76706" lon="-0.35148">
        <ele>90</ele>
        <time>2013-11-16T16:11:36Z</time>
      </trkpt>
      <trkpt lat="44.76714" lon="-0.35146">
        <ele>90</ele>
        <time>2013-11-16T16:11:38Z</time>
      </trkpt>
      <trkpt lat="44.76718" lon="-0.35145">
        <ele>90</ele>
        <time>2013-11-16T16:11:39Z</time>
      </trkpt>
      <trkpt lat="44.7675" lon="-0.35138">
        <ele>91</ele>
        <time>2013-11-16T16:11:47Z</time>
      </trkpt>
      <trkpt lat="44.76788" lon="-0.35133">
        <ele>92</ele>
        <time>2013-11-16T16:11:57Z</time>
      </trkpt>
      <trkpt lat="44.76799" lon="-0.35134">
        <ele>92</ele>
        <time>2013-11-16T16:12:00Z</time>
      </trkpt>
      <trkpt lat="44.76803" lon="-0.35133">
        <ele>92</ele>
        <time>2013-11-16T16:12:01Z</time>
      </trkpt>
      <trkpt lat="44.76808" lon="-0.35132">
        <ele>92</ele>
        <time>2013-11-16T16:12:02Z</time>
      </trkpt>
      <trkpt lat="44.76854" lon="-0.35129">
        <ele>92</ele>
        <time>2013-11-16T16:12:13Z</time>
      </trkpt>
      <trkpt lat="44.76891" lon="-0.35128">
        <ele>93</ele>
        <time>2013-11-16T16:12:22Z</time>
      </trkpt>
      <trkpt lat="44.76929" lon="-0.35127">
        <ele>94</ele>
        <time>2013-11-16T16:12:31Z</time>
      </trkpt>
      <trkpt lat="44.76965" lon="-0.35127">
        <ele>95</ele>
        <time>2013-11-16T16:12:39Z</time>
      </trkpt>
      <trkpt lat="44.76969" lon="-0.35127">
        <ele>95</ele>
        <time>2013-11-16T16:12:40Z</time>
      </trkpt>
      <trkpt lat="44.77002" lon="-0.35126">
        <ele>95</ele>
        <time>2013-11-16T16:12:48Z</time>
      </trkpt>
      <trkpt lat="44.77037" lon="-0.35125">
        <ele>97</ele>
        <time>2013-11-16T16:12:56Z</time>
      </trkpt>
      <trkpt lat="44.77074" lon="-0.35125">
        <ele>98</ele>
        <time>2013-11-16T16:13:05Z</time>
      </trkpt>
      <trkpt lat="44.77102" lon="-0.35125">
        <ele>100</ele>
        <time>2013-11-16T16:13:13Z</time>
      </trkpt>
      <trkpt lat="44.77132" lon="-0.35127">
        <ele>101</ele>
        <time>2013-11-16T16:13:21Z</time>
      </trkpt>
      <trkpt lat="44.77151" lon="-0.3513">
        <ele>102</ele>
        <time>2013-11-16T16:13:27Z</time>
      </trkpt>
      <trkpt lat="44.77161" lon="-0.35133">
        <ele>102</ele>
        <time>2013-11-16T16:13:31Z</time>
      </trkpt>
      <trkpt lat="44.77164" lon="-0.35132">
        <ele>102</ele>
        <time>2013-11-16T16:13:32Z</time>
      </trkpt>
      <trkpt lat="44.77166" lon="-0.3513">
        <ele>102</ele>
        <time>2013-11-16T16:13:33Z</time>
      </trkpt>
      <trkpt lat="44.77169" lon="-0.35127">
        <ele>102</ele>
        <time>2013-11-16T16:13:34Z</time>
      </trkpt>
      <trkpt lat="44.77171" lon="-0.35125">
        <ele>102</ele>
        <time>2013-11-16T16:13:35Z</time>
      </trkpt>
      <trkpt lat="44.7719" lon="-0.35103">
        <ele>103</ele>
        <time>2013-11-16T16:13:42Z</time>
      </trkpt>
      <trkpt lat="44.77216" lon="-0.35074">
        <ele>103</ele>
        <time>2013-11-16T16:13:51Z</time>
      </trkpt>
      <trkpt lat="44.77219" lon="-0.3507">
        <ele>103</ele>
        <time>2013-11-16T16:13:52Z</time>
      </trkpt>
      <trkpt lat="44.77233" lon="-0.35055">
        <ele>104</ele>
        <time>2013-11-16T16:13:56Z</time>
      </trkpt>
      <trkpt lat="44.77237" lon="-0.35051">
        <ele>104</ele>
        <time>2013-11-16T16:13:57Z</time>
      </trkpt>
      <trkpt lat="44.77268" lon="-0.35013">
        <ele>104</ele>
        <time>2013-11-16T16:14:06Z</time>
      </trkpt>
      <trkpt lat="44.77275" lon="-0.35005">
        <ele>104</ele>
        <time>2013-11-16T16:14:08Z</time>
      </trkpt>
      <trkpt lat="44.77277" lon="-0.34999">
        <ele>103</ele>
        <time>2013-11-16T16:14:09Z</time>
      </trkpt>
      <trkpt lat="44.77278" lon="-0.34993">
        <ele>103</ele>
        <time>2013-11-16T16:14:10Z</time>
      </trkpt>
      <trkpt lat="44.77276" lon="-0.34986">
        <ele>103</ele>
        <time>2013-11-16T16:14:11Z</time>
      </trkpt>
      <trkpt lat="44.77273" lon="-0.3498">
        <ele>103</ele>
        <time>2013-11-16T16:14:12Z</time>
      </trkpt>
      <trkpt lat="44.7727" lon="-0.34974">
        <ele>103</ele>
        <time>2013-11-16T16:14:13Z</time>
      </trkpt>
      <trkpt lat="44.7724" lon="-0.34923">
        <ele>103</ele>
        <time>2013-11-16T16:14:22Z</time>
      </trkpt>
      <trkpt lat="44.77219" lon="-0.34871">
        <ele>103</ele>
        <time>2013-11-16T16:14:30Z</time>
      </trkpt>
      <trkpt lat="44.77213" lon="-0.34834">
        <ele>103</ele>
        <time>2013-11-16T16:14:35Z</time>
      </trkpt>
      <trkpt lat="44.77214" lon="-0.34826">
        <ele>104</ele>
        <time>2013-11-16T16:14:36Z</time>
      </trkpt>
      <trkpt lat="44.77216" lon="-0.34811">
        <ele>104</ele>
        <time>2013-11-16T16:14:38Z</time>
      </trkpt>
      <trkpt lat="44.77219" lon="-0.34803">
        <ele>104</ele>
        <time>2013-11-16T16:14:39Z</time>
      </trkpt>
      <trkpt lat="44.77222" lon="-0.34796">
        <ele>104</ele>
        <time>2013-11-16T16:14:40Z</time>
      </trkpt>
      <trkpt lat="44.77226" lon="-0.3479">
        <ele>104</ele>
        <time>2013-11-16T16:14:41Z</time>
      </trkpt>
      <trkpt lat="44.7723" lon="-0.34784">
        <ele>104</ele>
        <time>2013-11-16T16:14:42Z</time>
      </trkpt>
      <trkpt lat="44.77235" lon="-0.34778">
        <ele>104</ele>
        <time>2013-11-16T16:14:43Z</time>
      </trkpt>
      <trkpt lat="44.77239" lon="-0.34773">
        <ele>104</ele>
        <time>2013-11-16T16:14:44Z</time>
      </trkpt>
      <trkpt lat="44.77278" lon="-0.34733">
        <ele>104</ele>
        <time>2013-11-16T16:14:53Z</time>
      </trkpt>
      <trkpt lat="44.77309" lon="-0.34701">
        <ele>104</ele>
        <time>2013-11-16T16:15:01Z</time>
      </trkpt>
      <trkpt lat="44.77333" lon="-0.3467">
        <ele>104</ele>
        <time>2013-11-16T16:15:09Z</time>
      </trkpt>
      <trkpt lat="44.77334" lon="-0.34664">
        <ele>104</ele>
        <time>2013-11-16T16:15:10Z</time>
      </trkpt>
      <trkpt lat="44.77333" lon="-0.34659">
        <ele>104</ele>
        <time>2013-11-16T16:15:11Z</time>
      </trkpt>
      <trkpt lat="44.77332" lon="-0.34654">
        <ele>104</ele>
        <time>2013-11-16T16:15:12Z</time>
      </trkpt>
      <trkpt lat="44.7733" lon="-0.34648">
        <ele>104</ele>
        <time>2013-11-16T16:15:13Z</time>
      </trkpt>
      <trkpt lat="44.77327" lon="-0.34643">
        <ele>104</ele>
        <time>2013-11-16T16:15:14Z</time>
      </trkpt>
      <trkpt lat="44.77323" lon="-0.34639">
        <ele>104</ele>
        <time>2013-11-16T16:15:15Z</time>
      </trkpt>
      <trkpt lat="44.77316" lon="-0.3463">
        <ele>104</ele>
        <time>2013-11-16T16:15:17Z</time>
      </trkpt>
      <trkpt lat="44.77298" lon="-0.34599">
        <ele>105</ele>
        <time>2013-11-16T16:15:23Z</time>
      </trkpt>
      <trkpt lat="44.77294" lon="-0.34595">
        <ele>105</ele>
        <time>2013-11-16T16:15:24Z</time>
      </trkpt>
      <trkpt lat="44.77291" lon="-0.34592">
        <ele>105</ele>
        <time>2013-11-16T16:15:25Z</time>
      </trkpt>
      <trkpt lat="44.77287" lon="-0.34588">
        <ele>105</ele>
        <time>2013-11-16T16:15:26Z</time>
      </trkpt>
      <trkpt lat="44.77285" lon="-0.34584">
        <ele>105</ele>
        <time>2013-11-16T16:15:27Z</time>
      </trkpt>
      <trkpt lat="44.77283" lon="-0.34578">
        <ele>105</ele>
        <time>2013-11-16T16:15:28Z</time>
      </trkpt>
      <trkpt lat="44.77283" lon="-0.34573">
        <ele>105</ele>
        <time>2013-11-16T16:15:29Z</time>
      </trkpt>
      <trkpt lat="44.77285" lon="-0.34568">
        <ele>105</ele>
        <time>2013-11-16T16:15:30Z</time>
      </trkpt>
      <trkpt lat="44.77288" lon="-0.34565">
        <ele>105</ele>
        <time>2013-11-16T16:15:31Z</time>
      </trkpt>
      <trkpt lat="44.77291" lon="-0.34563">
        <ele>105</ele>
        <time>2013-11-16T16:15:32Z</time>
      </trkpt>
      <trkpt lat="44.77293" lon="-0.34559">
        <ele>105</ele>
        <time>2013-11-16T16:15:33Z</time>
      </trkpt>
      <trkpt lat="44.77292" lon="-0.34555">
        <ele>105</ele>
        <time>2013-11-16T16:15:34Z</time>
      </trkpt>
      <trkpt lat="44.7729" lon="-0.34553">
        <ele>105</ele>
        <time>2013-11-16T16:15:35Z</time>
      </trkpt>
      <trkpt lat="44.77287" lon="-0.34552">
        <ele>105</ele>
        <time>2013-11-16T16:15:36Z</time>
      </trkpt>
      <trkpt lat="44.77284" lon="-0.3455">
        <ele>105</ele>
        <time>2013-11-16T16:15:37Z</time>
      </trkpt>
      <trkpt lat="44.7728" lon="-0.34549">
        <ele>105</ele>
        <time>2013-11-16T16:15:38Z</time>
      </trkpt>
      <trkpt lat="44.77277" lon="-0.34545">
        <ele>105</ele>
        <time>2013-11-16T16:15:39Z</time>
      </trkpt>
      <trkpt lat="44.77274" lon="-0.34541">
        <ele>105</ele>
        <time>2013-11-16T16:15:40Z</time>
      </trkpt>
      <trkpt lat="44.77271" lon="-0.34536">
        <ele>105</ele>
        <time>2013-11-16T16:15:41Z</time>
      </trkpt>
      <trkpt lat="44.7724" lon="-0.34482">
        <ele>105</ele>
        <time>2013-11-16T16:15:50Z</time>
      </trkpt>
      <trkpt lat="44.77218" lon="-0.34427">
        <ele>105</ele>
        <time>2013-11-16T16:15:58Z</time>
      </trkpt>
      <trkpt lat="44.77217" lon="-0.3442">
        <ele>105</ele>
        <time>2013-11-16T16:15:59Z</time>
      </trkpt>
      <trkpt lat="44.77216" lon="-0.34412">
        <ele>105</ele>
        <time>2013-11-16T16:16:00Z</time>
      </trkpt>
      <trkpt lat="44.77217" lon="-0.34361">
        <ele>104</ele>
        <time>2013-11-16T16:16:07Z</time>
      </trkpt>
      <trkpt lat="44.77218" lon="-0.34315">
        <ele>104</ele>
        <time>2013-11-16T16:16:14Z</time>
      </trkpt>
      <trkpt lat="44.77214" lon="-0.34261">
        <ele>104</ele>
        <time>2013-11-16T16:16:21Z</time>
      </trkpt>
      <trkpt lat="44.77208" lon="-0.34174">
        <ele>103</ele>
        <time>2013-11-16T16:16:32Z</time>
      </trkpt>
      <trkpt lat="44.77211" lon="-0.3413">
        <ele>103</ele>
        <time>2013-11-16T16:16:39Z</time>
      </trkpt>
      <trkpt lat="44.77213" lon="-0.34106">
        <ele>103</ele>
        <time>2013-11-16T16:16:44Z</time>
      </trkpt>
      <trkpt lat="44.77219" lon="-0.3405">
        <ele>104</ele>
        <time>2013-11-16T16:16:52Z</time>
      </trkpt>
      <trkpt lat="44.77222" lon="-0.34019">
        <ele>104</ele>
        <time>2013-11-16T16:16:57Z</time>
      </trkpt>
      <trkpt lat="44.77225" lon="-0.33963">
        <ele>104</ele>
        <time>2013-11-16T16:17:06Z</time>
      </trkpt>
      <trkpt lat="44.77228" lon="-0.33915">
        <ele>105</ele>
        <time>2013-11-16T16:17:13Z</time>
      </trkpt>
      <trkpt lat="44.77234" lon="-0.3384">
        <ele>105</ele>
        <time>2013-11-16T16:17:23Z</time>
      </trkpt>
      <trkpt lat="44.7723" lon="-0.33782">
        <ele>104</ele>
        <time>2013-11-16T16:17:32Z</time>
      </trkpt>
      <trkpt lat="44.77222" lon="-0.3373">
        <ele>104</ele>
        <time>2013-11-16T16:17:40Z</time>
      </trkpt>
      <trkpt lat="44.7721" lon="-0.33676">
        <ele>104</ele>
        <time>2013-11-16T16:17:49Z</time>
      </trkpt>
      <trkpt lat="44.77203" lon="-0.33656">
        <ele>104</ele>
        <time>2013-11-16T16:17:53Z</time>
      </trkpt>
      <trkpt lat="44.77202" lon="-0.3365">
        <ele>104</ele>
        <time>2013-11-16T16:17:54Z</time>
      </trkpt>
      <trkpt lat="44.77201" lon="-0.33644">
        <ele>104</ele>
        <time>2013-11-16T16:17:55Z</time>
      </trkpt>
      <trkpt lat="44.77204" lon="-0.33615">
        <ele>104</ele>
        <time>2013-11-16T16:18:00Z</time>
      </trkpt>
      <trkpt lat="44.77207" lon="-0.33612">
        <ele>104</ele>
        <time>2013-11-16T16:18:01Z</time>
      </trkpt>
      <trkpt lat="44.77211" lon="-0.33611">
        <ele>104</ele>
        <time>2013-11-16T16:18:02Z</time>
      </trkpt>
      <trkpt lat="44.77217" lon="-0.3361">
        <ele>104</ele>
        <time>2013-11-16T16:18:04Z</time>
      </trkpt>
      <trkpt lat="44.7722" lon="-0.33611">
        <ele>104</ele>
        <time>2013-11-16T16:18:05Z</time>
      </trkpt>
      <trkpt lat="44.77221" lon="-0.33613">
        <ele>104</ele>
        <time>2013-11-16T16:18:06Z</time>
      </trkpt>
      <trkpt lat="44.77223" lon="-0.33615">
        <ele>104</ele>
        <time>2013-11-16T16:18:07Z</time>
      </trkpt>
      <trkpt lat="44.77225" lon="-0.33617">
        <ele>104</ele>
        <time>2013-11-16T16:18:08Z</time>
      </trkpt>
      <trkpt lat="44.77227" lon="-0.33616">
        <ele>104</ele>
        <time>2013-11-16T16:18:09Z</time>
      </trkpt>
      <trkpt lat="44.77228" lon="-0.33614">
        <ele>104</ele>
        <time>2013-11-16T16:18:10Z</time>
      </trkpt>
      <trkpt lat="44.77228" lon="-0.33611">
        <ele>104</ele>
        <time>2013-11-16T16:18:11Z</time>
      </trkpt>
      <trkpt lat="44.77226" lon="-0.33609">
        <ele>104</ele>
        <time>2013-11-16T16:18:12Z</time>
      </trkpt>
      <trkpt lat="44.77225" lon="-0.33607">
        <ele>104</ele>
        <time>2013-11-16T16:18:13Z</time>
      </trkpt>
      <trkpt lat="44.77224" lon="-0.33606">
        <ele>104</ele>
        <time>2013-11-16T16:18:14Z</time>
      </trkpt>
      <trkpt lat="44.77223" lon="-0.33604">
        <ele>104</ele>
        <time>2013-11-16T16:18:15Z</time>
      </trkpt>
      <trkpt lat="44.77221" lon="-0.33603">
        <ele>104</ele>
        <time>2013-11-16T16:18:16Z</time>
      </trkpt>
      <trkpt lat="44.7722" lon="-0.33601">
        <ele>104</ele>
        <time>2013-11-16T16:18:17Z</time>
      </trkpt>
      <trkpt lat="44.77219" lon="-0.336">
        <ele>104</ele>
        <time>2013-11-16T16:18:18Z</time>
      </trkpt>
      <trkpt lat="44.77218" lon="-0.33598">
        <ele>104</ele>
        <time>2013-11-16T16:18:19Z</time>
      </trkpt>
      <trkpt lat="44.77213" lon="-0.33591">
        <ele>104</ele>
        <time>2013-11-16T16:18:24Z</time>
      </trkpt>
      <trkpt lat="44.77208" lon="-0.33573">
        <ele>104</ele>
        <time>2013-11-16T16:18:29Z</time>
      </trkpt>
      <trkpt lat="44.772" lon="-0.33551">
        <ele>104</ele>
        <time>2013-11-16T16:18:35Z</time>
      </trkpt>
      <trkpt lat="44.77193" lon="-0.33524">
        <ele>104</ele>
        <time>2013-11-16T16:18:41Z</time>
      </trkpt>
      <trkpt lat="44.77193" lon="-0.33519">
        <ele>104</ele>
        <time>2013-11-16T16:18:42Z</time>
      </trkpt>
      <trkpt lat="44.7719" lon="-0.33479">
        <ele>104</ele>
        <time>2013-11-16T16:18:50Z</time>
      </trkpt>
      <trkpt lat="44.77187" lon="-0.33454">
        <ele>104</ele>
        <time>2013-11-16T16:18:56Z</time>
      </trkpt>
      <trkpt lat="44.77186" lon="-0.33453">
        <ele>104</ele>
        <time>2013-11-16T16:18:57Z</time>
      </trkpt>
      <trkpt lat="44.77179" lon="-0.33447">
        <ele>104</ele>
        <time>2013-11-16T16:19:02Z</time>
      </trkpt>
      <trkpt lat="44.77179" lon="-0.33443">
        <ele>104</ele>
        <time>2013-11-16T16:19:03Z</time>
      </trkpt>
      <trkpt lat="44.77181" lon="-0.33391">
        <ele>103</ele>
        <time>2013-11-16T16:19:13Z</time>
      </trkpt>
      <trkpt lat="44.77186" lon="-0.33345">
        <ele>103</ele>
        <time>2013-11-16T16:19:21Z</time>
      </trkpt>
      <trkpt lat="44.7719" lon="-0.33297">
        <ele>103</ele>
        <time>2013-11-16T16:19:30Z</time>
      </trkpt>
      <trkpt lat="44.77188" lon="-0.33253">
        <ele>102</ele>
        <time>2013-11-16T16:19:39Z</time>
      </trkpt>
      <trkpt lat="44.77186" lon="-0.3324">
        <ele>102</ele>
        <time>2013-11-16T16:19:43Z</time>
      </trkpt>
      <trkpt lat="44.77186" lon="-0.33238">
        <ele>102</ele>
        <time>2013-11-16T16:19:44Z</time>
      </trkpt>
      <trkpt lat="44.77185" lon="-0.33237">
        <ele>102</ele>
        <time>2013-11-16T16:19:45Z</time>
      </trkpt>
      <trkpt lat="44.77184" lon="-0.33235">
        <ele>102</ele>
        <time>2013-11-16T16:19:46Z</time>
      </trkpt>
      <trkpt lat="44.77184" lon="-0.33234">
        <ele>102</ele>
        <time>2013-11-16T16:19:47Z</time>
      </trkpt>
      <trkpt lat="44.77183" lon="-0.33232">
        <ele>102</ele>
        <time>2013-11-16T16:19:48Z</time>
      </trkpt>
      <trkpt lat="44.77183" lon="-0.3323">
        <ele>102</ele>
        <time>2013-11-16T16:19:49Z</time>
      </trkpt>
      <trkpt lat="44.77184" lon="-0.33229">
        <ele>102</ele>
        <time>2013-11-16T16:19:50Z</time>
      </trkpt>
      <trkpt lat="44.77186" lon="-0.33228">
        <ele>102</ele>
        <time>2013-11-16T16:19:51Z</time>
      </trkpt>
      <trkpt lat="44.77187" lon="-0.33228">
        <ele>102</ele>
        <time>2013-11-16T16:19:52Z</time>
      </trkpt>
      <trkpt lat="44.77189" lon="-0.33228">
        <ele>102</ele>
        <time>2013-11-16T16:19:53Z</time>
      </trkpt>
      <trkpt lat="44.77191" lon="-0.33228">
        <ele>102</ele>
        <time>2013-11-16T16:19:54Z</time>
      </trkpt>
      <trkpt lat="44.77192" lon="-0.33227">
        <ele>102</ele>
        <time>2013-11-16T16:19:55Z</time>
      </trkpt>
      <trkpt lat="44.77206" lon="-0.33226">
        <ele>103</ele>
        <time>2013-11-16T16:20:00Z</time>
      </trkpt>
      <trkpt lat="44.77231" lon="-0.33223">
        <ele>103</ele>
        <time>2013-11-16T16:20:08Z</time>
      </trkpt>
      <trkpt lat="44.77256" lon="-0.33221">
        <ele>103</ele>
        <time>2013-11-16T16:20:16Z</time>
      </trkpt>
      <trkpt lat="44.77277" lon="-0.33218">
        <ele>103</ele>
        <time>2013-11-16T16:20:23Z</time>
      </trkpt>
      <trkpt lat="44.77301" lon="-0.33215">
        <ele>103</ele>
        <time>2013-11-16T16:20:31Z</time>
      </trkpt>
      <trkpt lat="44.77305" lon="-0.33214">
        <ele>103</ele>
        <time>2013-11-16T16:20:36Z</time>
      </trkpt>
      <trkpt lat="44.77305" lon="-0.33215">
        <ele>103</ele>
        <time>2013-11-16T16:20:50Z</time>
      </trkpt>
      <trkpt lat="44.77306" lon="-0.33213">
        <ele>103</ele>
        <time>2013-11-16T16:20:53Z</time>
      </trkpt>
      <trkpt lat="44.77308" lon="-0.33211">
        <ele>103</ele>
        <time>2013-11-16T16:20:54Z</time>
      </trkpt>
      <trkpt lat="44.77309" lon="-0.33209">
        <ele>103</ele>
        <time>2013-11-16T16:20:55Z</time>
      </trkpt>
      <trkpt lat="44.7731" lon="-0.33206">
        <ele>103</ele>
        <time>2013-11-16T16:20:56Z</time>
      </trkpt>
      <trkpt lat="44.77312" lon="-0.33202">
        <ele>103</ele>
        <time>2013-11-16T16:20:57Z</time>
      </trkpt>
      <trkpt lat="44.77313" lon="-0.33197">
        <ele>103</ele>
        <time>2013-11-16T16:20:58Z</time>
      </trkpt>
      <trkpt lat="44.77314" lon="-0.33193">
        <ele>103</ele>
        <time>2013-11-16T16:20:59Z</time>
      </trkpt>
      <trkpt lat="44.77316" lon="-0.33189">
        <ele>103</ele>
        <time>2013-11-16T16:21:00Z</time>
      </trkpt>
      <trkpt lat="44.77325" lon="-0.33152">
        <ele>101</ele>
        <time>2013-11-16T16:21:07Z</time>
      </trkpt>
      <trkpt lat="44.77326" lon="-0.33146">
        <ele>101</ele>
        <time>2013-11-16T16:21:08Z</time>
      </trkpt>
      <trkpt lat="44.77329" lon="-0.33127">
        <ele>101</ele>
        <time>2013-11-16T16:21:11Z</time>
      </trkpt>
      <trkpt lat="44.77333" lon="-0.331">
        <ele>100</ele>
        <time>2013-11-16T16:21:16Z</time>
      </trkpt>
      <trkpt lat="44.77338" lon="-0.33053">
        <ele>99</ele>
        <time>2013-11-16T16:21:24Z</time>
      </trkpt>
      <trkpt lat="44.77345" lon="-0.33019">
        <ele>98</ele>
        <time>2013-11-16T16:21:30Z</time>
      </trkpt>
      <trkpt lat="44.77354" lon="-0.33">
        <ele>98</ele>
        <time>2013-11-16T16:21:35Z</time>
      </trkpt>
      <trkpt lat="44.77357" lon="-0.32998">
        <ele>98</ele>
        <time>2013-11-16T16:21:36Z</time>
      </trkpt>
      <trkpt lat="44.7736" lon="-0.32998">
        <ele>98</ele>
        <time>2013-11-16T16:21:37Z</time>
      </trkpt>
      <trkpt lat="44.77376" lon="-0.32998">
        <ele>98</ele>
        <time>2013-11-16T16:21:43Z</time>
      </trkpt>
      <trkpt lat="44.77396" lon="-0.32991">
        <ele>98</ele>
        <time>2013-11-16T16:21:49Z</time>
      </trkpt>
      <trkpt lat="44.77408" lon="-0.32984">
        <ele>98</ele>
        <time>2013-11-16T16:21:55Z</time>
      </trkpt>
      <trkpt lat="44.77425" lon="-0.32966">
        <ele>98</ele>
        <time>2013-11-16T16:22:02Z</time>
      </trkpt>
      <trkpt lat="44.77441" lon="-0.32949">
        <ele>98</ele>
        <time>2013-11-16T16:22:09Z</time>
      </trkpt>
      <trkpt lat="44.77458" lon="-0.32932">
        <ele>98</ele>
        <time>2013-11-16T16:22:17Z</time>
      </trkpt>
      <trkpt lat="44.77474" lon="-0.32915">
        <ele>98</ele>
        <time>2013-11-16T16:22:26Z</time>
      </trkpt>
      <trkpt lat="44.77489" lon="-0.329">
        <ele>98</ele>
        <time>2013-11-16T16:22:34Z</time>
      </trkpt>
      <trkpt lat="44.77503" lon="-0.32887">
        <ele>99</ele>
        <time>2013-11-16T16:22:41Z</time>
      </trkpt>
      <trkpt lat="44.77518" lon="-0.32873">
        <ele>99</ele>
        <time>2013-11-16T16:22:48Z</time>
      </trkpt>
      <trkpt lat="44.77533" lon="-0.32866">
        <ele>99</ele>
        <time>2013-11-16T16:22:54Z</time>
      </trkpt>
      <trkpt lat="44.77551" lon="-0.32858">
        <ele>98</ele>
        <time>2013-11-16T16:23:01Z</time>
      </trkpt>
      <trkpt lat="44.77566" lon="-0.32853">
        <ele>98</ele>
        <time>2013-11-16T16:23:07Z</time>
      </trkpt>
      <trkpt lat="44.77578" lon="-0.32847">
        <ele>97</ele>
        <time>2013-11-16T16:23:12Z</time>
      </trkpt>
      <trkpt lat="44.77581" lon="-0.32847">
        <ele>97</ele>
        <time>2013-11-16T16:23:13Z</time>
      </trkpt>
      <trkpt lat="44.77584" lon="-0.32846">
        <ele>97</ele>
        <time>2013-11-16T16:23:14Z</time>
      </trkpt>
      <trkpt lat="44.77587" lon="-0.32846">
        <ele>97</ele>
        <time>2013-11-16T16:23:15Z</time>
      </trkpt>
      <trkpt lat="44.7759" lon="-0.32846">
        <ele>97</ele>
        <time>2013-11-16T16:23:16Z</time>
      </trkpt>
      <trkpt lat="44.77601" lon="-0.32839">
        <ele>97</ele>
        <time>2013-11-16T16:23:21Z</time>
      </trkpt>
      <trkpt lat="44.77603" lon="-0.32837">
        <ele>97</ele>
        <time>2013-11-16T16:23:22Z</time>
      </trkpt>
      <trkpt lat="44.77604" lon="-0.32824">
        <ele>97</ele>
        <time>2013-11-16T16:23:27Z</time>
      </trkpt>
      <trkpt lat="44.77604" lon="-0.3282">
        <ele>97</ele>
        <time>2013-11-16T16:23:29Z</time>
      </trkpt>
      <trkpt lat="44.77602" lon="-0.32808">
        <ele>97</ele>
        <time>2013-11-16T16:23:33Z</time>
      </trkpt>
      <trkpt lat="44.77597" lon="-0.32788">
        <ele>97</ele>
        <time>2013-11-16T16:23:39Z</time>
      </trkpt>
      <trkpt lat="44.77593" lon="-0.32758">
        <ele>97</ele>
        <time>2013-11-16T16:23:46Z</time>
      </trkpt>
      <trkpt lat="44.77588" lon="-0.32725">
        <ele>96</ele>
        <time>2013-11-16T16:23:53Z</time>
      </trkpt>
      <trkpt lat="44.77584" lon="-0.32697">
        <ele>95</ele>
        <time>2013-11-16T16:23:59Z</time>
      </trkpt>
      <trkpt lat="44.77579" lon="-0.32671">
        <ele>93</ele>
        <time>2013-11-16T16:24:04Z</time>
      </trkpt>
      <trkpt lat="44.77582" lon="-0.32648">
        <ele>92</ele>
        <time>2013-11-16T16:24:09Z</time>
      </trkpt>
      <trkpt lat="44.77585" lon="-0.32633">
        <ele>91</ele>
        <time>2013-11-16T16:24:13Z</time>
      </trkpt>
      <trkpt lat="44.77587" lon="-0.32622">
        <ele>90</ele>
        <time>2013-11-16T16:24:16Z</time>
      </trkpt>
      <trkpt lat="44.77586" lon="-0.32599">
        <ele>89</ele>
        <time>2013-11-16T16:24:20Z</time>
      </trkpt>
      <trkpt lat="44.77586" lon="-0.32578">
        <ele>88</ele>
        <time>2013-11-16T16:24:23Z</time>
      </trkpt>
      <trkpt lat="44.77584" lon="-0.32562">
        <ele>88</ele>
        <time>2013-11-16T16:24:25Z</time>
      </trkpt>
      <trkpt lat="44.7758" lon="-0.32519">
        <ele>86</ele>
        <time>2013-11-16T16:24:30Z</time>
      </trkpt>
      <trkpt lat="44.77579" lon="-0.32489">
        <ele>85</ele>
        <time>2013-11-16T16:24:34Z</time>
      </trkpt>
      <trkpt lat="44.77572" lon="-0.3247">
        <ele>85</ele>
        <time>2013-11-16T16:24:37Z</time>
      </trkpt>
      <trkpt lat="44.77554" lon="-0.32421">
        <ele>83</ele>
        <time>2013-11-16T16:24:44Z</time>
      </trkpt>
      <trkpt lat="44.77549" lon="-0.32404">
        <ele>82</ele>
        <time>2013-11-16T16:24:49Z</time>
      </trkpt>
      <trkpt lat="44.77546" lon="-0.32396">
        <ele>82</ele>
        <time>2013-11-16T16:24:53Z</time>
      </trkpt>
      <trkpt lat="44.77553" lon="-0.32388">
        <ele>82</ele>
        <time>2013-11-16T16:25:00Z</time>
      </trkpt>
      <trkpt lat="44.77565" lon="-0.32388">
        <ele>82</ele>
        <time>2013-11-16T16:25:05Z</time>
      </trkpt>
      <trkpt lat="44.77591" lon="-0.32389">
        <ele>81</ele>
        <time>2013-11-16T16:25:13Z</time>
      </trkpt>
      <trkpt lat="44.77636" lon="-0.32391">
        <ele>79</ele>
        <time>2013-11-16T16:25:24Z</time>
      </trkpt>
      <trkpt lat="44.77685" lon="-0.32395">
        <ele>77</ele>
        <time>2013-11-16T16:25:36Z</time>
      </trkpt>
      <trkpt lat="44.77705" lon="-0.32394">
        <ele>76</ele>
        <time>2013-11-16T16:25:43Z</time>
      </trkpt>
      <trkpt lat="44.77714" lon="-0.32388">
        <ele>75</ele>
        <time>2013-11-16T16:25:49Z</time>
      </trkpt>
      <trkpt lat="44.77718" lon="-0.3239">
        <ele>75</ele>
        <time>2013-11-16T16:25:55Z</time>
      </trkpt>
      <trkpt lat="44.77722" lon="-0.32392">
        <ele>75</ele>
        <time>2013-11-16T16:25:57Z</time>
      </trkpt>
      <trkpt lat="44.77732" lon="-0.32398">
        <ele>75</ele>
        <time>2013-11-16T16:26:04Z</time>
      </trkpt>
      <trkpt lat="44.77746" lon="-0.32401">
        <ele>74</ele>
        <time>2013-11-16T16:26:12Z</time>
      </trkpt>
      <trkpt lat="44.77759" lon="-0.32402">
        <ele>74</ele>
        <time>2013-11-16T16:26:19Z</time>
      </trkpt>
      <trkpt lat="44.77767" lon="-0.32402">
        <ele>74</ele>
        <time>2013-11-16T16:26:25Z</time>
      </trkpt>
      <trkpt lat="44.77781" lon="-0.32404">
        <ele>73</ele>
        <time>2013-11-16T16:26:32Z</time>
      </trkpt>
      <trkpt lat="44.77798" lon="-0.32404">
        <ele>73</ele>
        <time>2013-11-16T16:26:39Z</time>
      </trkpt>
      <trkpt lat="44.77814" lon="-0.32403">
        <ele>72</ele>
        <time>2013-11-16T16:26:43Z</time>
      </trkpt>
      <trkpt lat="44.77819" lon="-0.32401">
        <ele>72</ele>
        <time>2013-11-16T16:26:44Z</time>
      </trkpt>
      <trkpt lat="44.77826" lon="-0.32369">
        <ele>71</ele>
        <time>2013-11-16T16:26:50Z</time>
      </trkpt>
      <trkpt lat="44.77827" lon="-0.32361">
        <ele>71</ele>
        <time>2013-11-16T16:26:51Z</time>
      </trkpt>
      <trkpt lat="44.77837" lon="-0.32294">
        <ele>69</ele>
        <time>2013-11-16T16:27:00Z</time>
      </trkpt>
      <trkpt lat="44.77849" lon="-0.32275">
        <ele>68</ele>
        <time>2013-11-16T16:27:05Z</time>
      </trkpt>
      <trkpt lat="44.77853" lon="-0.32275">
        <ele>68</ele>
        <time>2013-11-16T16:27:06Z</time>
      </trkpt>
      <trkpt lat="44.77873" lon="-0.32278">
        <ele>67</ele>
        <time>2013-11-16T16:27:11Z</time>
      </trkpt>
      <trkpt lat="44.77903" lon="-0.32287">
        <ele>66</ele>
        <time>2013-11-16T16:27:18Z</time>
      </trkpt>
      <trkpt lat="44.77928" lon="-0.32291">
        <ele>66</ele>
        <time>2013-11-16T16:27:25Z</time>
      </trkpt>
      <trkpt lat="44.7794" lon="-0.3229">
        <ele>66</ele>
        <time>2013-11-16T16:27:29Z</time>
      </trkpt>
      <trkpt lat="44.77952" lon="-0.3227">
        <ele>65</ele>
        <time>2013-11-16T16:27:34Z</time>
      </trkpt>
      <trkpt lat="44.77966" lon="-0.32271">
        <ele>65</ele>
        <time>2013-11-16T16:27:37Z</time>
      </trkpt>
      <trkpt lat="44.77971" lon="-0.32271">
        <ele>65</ele>
        <time>2013-11-16T16:27:38Z</time>
      </trkpt>
      <trkpt lat="44.77988" lon="-0.32276">
        <ele>64</ele>
        <time>2013-11-16T16:27:41Z</time>
      </trkpt>
      <trkpt lat="44.78004" lon="-0.32266">
        <ele>64</ele>
        <time>2013-11-16T16:27:45Z</time>
      </trkpt>
      <trkpt lat="44.78009" lon="-0.32243">
        <ele>63</ele>
        <time>2013-11-16T16:27:49Z</time>
      </trkpt>
      <trkpt lat="44.78012" lon="-0.32228">
        <ele>62</ele>
        <time>2013-11-16T16:27:51Z</time>
      </trkpt>
      <trkpt lat="44.78017" lon="-0.3218">
        <ele>61</ele>
        <time>2013-11-16T16:27:58Z</time>
      </trkpt>
      <trkpt lat="44.78024" lon="-0.32153">
        <ele>60</ele>
        <time>2013-11-16T16:28:04Z</time>
      </trkpt>
      <trkpt lat="44.78024" lon="-0.32147">
        <ele>60</ele>
        <time>2013-11-16T16:28:09Z</time>
      </trkpt>
      <trkpt lat="44.78024" lon="-0.32144">
        <ele>60</ele>
        <time>2013-11-16T16:28:19Z</time>
      </trkpt>
      <trkpt lat="44.78023" lon="-0.32143">
        <ele>60</ele>
        <time>2013-11-16T16:28:34Z</time>
      </trkpt>
      <trkpt lat="44.78024" lon="-0.32142">
        <ele>60</ele>
        <time>2013-11-16T16:28:52Z</time>
      </trkpt>
      <trkpt lat="44.78023" lon="-0.32142">
        <ele>60</ele>
        <time>2013-11-16T16:29:02Z</time>
      </trkpt>
      <trkpt lat="44.78023" lon="-0.32142">
        <ele>60</ele>
        <time>2013-11-16T16:29:05Z</time>
      </trkpt>
      <trkpt lat="44.78011" lon="-0.32137">
        <ele>60</ele>
        <time>2013-11-16T16:29:14Z</time>
      </trkpt>
      <trkpt lat="44.77994" lon="-0.32131">
        <ele>60</ele>
        <time>2013-11-16T16:29:20Z</time>
      </trkpt>
      <trkpt lat="44.77974" lon="-0.32118">
        <ele>60</ele>
        <time>2013-11-16T16:29:27Z</time>
      </trkpt>
      <trkpt lat="44.77951" lon="-0.32106">
        <ele>61</ele>
        <time>2013-11-16T16:29:34Z</time>
      </trkpt>
      <trkpt lat="44.7795" lon="-0.32085">
        <ele>60</ele>
        <time>2013-11-16T16:29:39Z</time>
      </trkpt>
      <trkpt lat="44.77953" lon="-0.32072">
        <ele>60</ele>
        <time>2013-11-16T16:29:41Z</time>
      </trkpt>
      <trkpt lat="44.77959" lon="-0.32042">
        <ele>60</ele>
        <time>2013-11-16T16:29:46Z</time>
      </trkpt>
      <trkpt lat="44.77959" lon="-0.32036">
        <ele>60</ele>
        <time>2013-11-16T16:29:47Z</time>
      </trkpt>
      <trkpt lat="44.77959" lon="-0.3203">
        <ele>60</ele>
        <time>2013-11-16T16:29:48Z</time>
      </trkpt>
      <trkpt lat="44.77959" lon="-0.32025">
        <ele>60</ele>
        <time>2013-11-16T16:29:49Z</time>
      </trkpt>
      <trkpt lat="44.7796" lon="-0.3202">
        <ele>60</ele>
        <time>2013-11-16T16:29:50Z</time>
      </trkpt>
      <trkpt lat="44.7796" lon="-0.32015">
        <ele>60</ele>
        <time>2013-11-16T16:29:51Z</time>
      </trkpt>
      <trkpt lat="44.7796" lon="-0.32009">
        <ele>60</ele>
        <time>2013-11-16T16:29:52Z</time>
      </trkpt>
      <trkpt lat="44.77959" lon="-0.32004">
        <ele>60</ele>
        <time>2013-11-16T16:29:53Z</time>
      </trkpt>
      <trkpt lat="44.77958" lon="-0.31999">
        <ele>60</ele>
        <time>2013-11-16T16:29:54Z</time>
      </trkpt>
      <trkpt lat="44.77956" lon="-0.31994">
        <ele>60</ele>
        <time>2013-11-16T16:29:55Z</time>
      </trkpt>
      <trkpt lat="44.77954" lon="-0.31988">
        <ele>60</ele>
        <time>2013-11-16T16:29:56Z</time>
      </trkpt>
      <trkpt lat="44.77952" lon="-0.31982">
        <ele>60</ele>
        <time>2013-11-16T16:29:57Z</time>
      </trkpt>
      <trkpt lat="44.7795" lon="-0.31977">
        <ele>60</ele>
        <time>2013-11-16T16:29:58Z</time>
      </trkpt>
      <trkpt lat="44.77929" lon="-0.31928">
        <ele>61</ele>
        <time>2013-11-16T16:30:07Z</time>
      </trkpt>
      <trkpt lat="44.77929" lon="-0.31921">
        <ele>61</ele>
        <time>2013-11-16T16:30:08Z</time>
      </trkpt>
      <trkpt lat="44.77928" lon="-0.31915">
        <ele>61</ele>
        <time>2013-11-16T16:30:09Z</time>
      </trkpt>
      <trkpt lat="44.77928" lon="-0.31908">
        <ele>61</ele>
        <time>2013-11-16T16:30:10Z</time>
      </trkpt>
      <trkpt lat="44.77929" lon="-0.31902">
        <ele>61</ele>
        <time>2013-11-16T16:30:11Z</time>
      </trkpt>
      <trkpt lat="44.77929" lon="-0.31895">
        <ele>61</ele>
        <time>2013-11-16T16:30:12Z</time>
      </trkpt>
      <trkpt lat="44.77931" lon="-0.31889">
        <ele>61</ele>
        <time>2013-11-16T16:30:13Z</time>
      </trkpt>
      <trkpt lat="44.77939" lon="-0.31846">
        <ele>63</ele>
        <time>2013-11-16T16:30:20Z</time>
      </trkpt>
      <trkpt lat="44.77949" lon="-0.31796">
        <ele>64</ele>
        <time>2013-11-16T16:30:29Z</time>
      </trkpt>
      <trkpt lat="44.77956" lon="-0.31759">
        <ele>65</ele>
        <time>2013-11-16T16:30:36Z</time>
      </trkpt>
      <trkpt lat="44.77964" lon="-0.31718">
        <ele>66</ele>
        <time>2013-11-16T16:30:44Z</time>
      </trkpt>
      <trkpt lat="44.77969" lon="-0.31695">
        <ele>67</ele>
        <time>2013-11-16T16:30:49Z</time>
      </trkpt>
      <trkpt lat="44.7797" lon="-0.31682">
        <ele>67</ele>
        <time>2013-11-16T16:30:52Z</time>
      </trkpt>
      <trkpt lat="44.77969" lon="-0.31678">
        <ele>67</ele>
        <time>2013-11-16T16:30:53Z</time>
      </trkpt>
      <trkpt lat="44.77959" lon="-0.31675">
        <ele>68</ele>
        <time>2013-11-16T16:30:57Z</time>
      </trkpt>
      <trkpt lat="44.77944" lon="-0.3167">
        <ele>68</ele>
        <time>2013-11-16T16:31:04Z</time>
      </trkpt>
      <trkpt lat="44.77942" lon="-0.31669">
        <ele>68</ele>
        <time>2013-11-16T16:31:05Z</time>
      </trkpt>
      <trkpt lat="44.77927" lon="-0.31659">
        <ele>69</ele>
        <time>2013-11-16T16:31:12Z</time>
      </trkpt>
      <trkpt lat="44.77913" lon="-0.31651">
        <ele>70</ele>
        <time>2013-11-16T16:31:18Z</time>
      </trkpt>
      <trkpt lat="44.77895" lon="-0.31643">
        <ele>70</ele>
        <time>2013-11-16T16:31:26Z</time>
      </trkpt>
      <trkpt lat="44.77879" lon="-0.3164">
        <ele>71</ele>
        <time>2013-11-16T16:31:33Z</time>
      </trkpt>
      <trkpt lat="44.77863" lon="-0.31637">
        <ele>71</ele>
        <time>2013-11-16T16:31:41Z</time>
      </trkpt>
      <trkpt lat="44.77848" lon="-0.31632">
        <ele>72</ele>
        <time>2013-11-16T16:31:48Z</time>
      </trkpt>
      <trkpt lat="44.77835" lon="-0.31627">
        <ele>71</ele>
        <time>2013-11-16T16:31:54Z</time>
      </trkpt>
      <trkpt lat="44.77819" lon="-0.31621">
        <ele>71</ele>
        <time>2013-11-16T16:32:00Z</time>
      </trkpt>
      <trkpt lat="44.7781" lon="-0.31618">
        <ele>70</ele>
        <time>2013-11-16T16:32:05Z</time>
      </trkpt>
      <trkpt lat="44.77804" lon="-0.31616">
        <ele>70</ele>
        <time>2013-11-16T16:32:08Z</time>
      </trkpt>
      <trkpt lat="44.77796" lon="-0.31614">
        <ele>70</ele>
        <time>2013-11-16T16:32:12Z</time>
      </trkpt>
      <trkpt lat="44.77772" lon="-0.31609">
        <ele>69</ele>
        <time>2013-11-16T16:32:20Z</time>
      </trkpt>
      <trkpt lat="44.77755" lon="-0.31601">
        <ele>68</ele>
        <time>2013-11-16T16:32:27Z</time>
      </trkpt>
      <trkpt lat="44.77738" lon="-0.316">
        <ele>68</ele>
        <time>2013-11-16T16:32:34Z</time>
      </trkpt>
      <trkpt lat="44.7772" lon="-0.31605">
        <ele>68</ele>
        <time>2013-11-16T16:32:40Z</time>
      </trkpt>
      <trkpt lat="44.77694" lon="-0.31615">
        <ele>69</ele>
        <time>2013-11-16T16:32:47Z</time>
      </trkpt>
      <trkpt lat="44.7769" lon="-0.31614">
        <ele>69</ele>
        <time>2013-11-16T16:32:48Z</time>
      </trkpt>
      <trkpt lat="44.77686" lon="-0.31614">
        <ele>69</ele>
        <time>2013-11-16T16:32:49Z</time>
      </trkpt>
      <trkpt lat="44.77671" lon="-0.31617">
        <ele>70</ele>
        <time>2013-11-16T16:32:54Z</time>
      </trkpt>
      <trkpt lat="44.7765" lon="-0.31622">
        <ele>70</ele>
        <time>2013-11-16T16:33:00Z</time>
      </trkpt>
      <trkpt lat="44.77632" lon="-0.31621">
        <ele>71</ele>
        <time>2013-11-16T16:33:06Z</time>
      </trkpt>
      <trkpt lat="44.77618" lon="-0.31618">
        <ele>71</ele>
        <time>2013-11-16T16:33:12Z</time>
      </trkpt>
      <trkpt lat="44.77607" lon="-0.31623">
        <ele>70</ele>
        <time>2013-11-16T16:33:17Z</time>
      </trkpt>
      <trkpt lat="44.77595" lon="-0.31622">
        <ele>70</ele>
        <time>2013-11-16T16:33:22Z</time>
      </trkpt>
      <trkpt lat="44.77572" lon="-0.31625">
        <ele>69</ele>
        <time>2013-11-16T16:33:28Z</time>
      </trkpt>
      <trkpt lat="44.77549" lon="-0.31629">
        <ele>68</ele>
        <time>2013-11-16T16:33:34Z</time>
      </trkpt>
      <trkpt lat="44.7753" lon="-0.31625">
        <ele>67</ele>
        <time>2013-11-16T16:33:39Z</time>
      </trkpt>
      <trkpt lat="44.77514" lon="-0.31612">
        <ele>68</ele>
        <time>2013-11-16T16:33:44Z</time>
      </trkpt>
      <trkpt lat="44.77489" lon="-0.31582">
        <ele>69</ele>
        <time>2013-11-16T16:33:52Z</time>
      </trkpt>
      <trkpt lat="44.77476" lon="-0.31569">
        <ele>69</ele>
        <time>2013-11-16T16:33:57Z</time>
      </trkpt>
      <trkpt lat="44.77458" lon="-0.31559">
        <ele>70</ele>
        <time>2013-11-16T16:34:03Z</time>
      </trkpt>
      <trkpt lat="44.77442" lon="-0.3155">
        <ele>70</ele>
        <time>2013-11-16T16:34:08Z</time>
      </trkpt>
      <trkpt lat="44.77418" lon="-0.31539">
        <ele>70</ele>
        <time>2013-11-16T16:34:15Z</time>
      </trkpt>
      <trkpt lat="44.77393" lon="-0.31525">
        <ele>69</ele>
        <time>2013-11-16T16:34:22Z</time>
      </trkpt>
      <trkpt lat="44.77383" lon="-0.31519">
        <ele>68</ele>
        <time>2013-11-16T16:34:25Z</time>
      </trkpt>
      <trkpt lat="44.7738" lon="-0.31517">
        <ele>68</ele>
        <time>2013-11-16T16:34:26Z</time>
      </trkpt>
      <trkpt lat="44.77378" lon="-0.31515">
        <ele>68</ele>
        <time>2013-11-16T16:34:27Z</time>
      </trkpt>
      <trkpt lat="44.77375" lon="-0.31512">
        <ele>67</ele>
        <time>2013-11-16T16:34:28Z</time>
      </trkpt>
      <trkpt lat="44.77372" lon="-0.31509">
        <ele>67</ele>
        <time>2013-11-16T16:34:29Z</time>
      </trkpt>
      <trkpt lat="44.77359" lon="-0.31498">
        <ele>66</ele>
        <time>2013-11-16T16:34:35Z</time>
      </trkpt>
      <trkpt lat="44.77353" lon="-0.31481">
        <ele>66</ele>
        <time>2013-11-16T16:34:41Z</time>
      </trkpt>
      <trkpt lat="44.77353" lon="-0.31478">
        <ele>66</ele>
        <time>2013-11-16T16:34:43Z</time>
      </trkpt>
      <trkpt lat="44.77354" lon="-0.31475">
        <ele>66</ele>
        <time>2013-11-16T16:34:44Z</time>
      </trkpt>
      <trkpt lat="44.77346" lon="-0.31448">
        <ele>67</ele>
        <time>2013-11-16T16:34:50Z</time>
      </trkpt>
      <trkpt lat="44.77337" lon="-0.31422">
        <ele>66</ele>
        <time>2013-11-16T16:34:57Z</time>
      </trkpt>
      <trkpt lat="44.77326" lon="-0.31399">
        <ele>65</ele>
        <time>2013-11-16T16:35:04Z</time>
      </trkpt>
      <trkpt lat="44.77324" lon="-0.31396">
        <ele>65</ele>
        <time>2013-11-16T16:35:05Z</time>
      </trkpt>
      <trkpt lat="44.77315" lon="-0.31371">
        <ele>64</ele>
        <time>2013-11-16T16:35:12Z</time>
      </trkpt>
      <trkpt lat="44.77313" lon="-0.31363">
        <ele>64</ele>
        <time>2013-11-16T16:35:15Z</time>
      </trkpt>
      <trkpt lat="44.77308" lon="-0.3135">
        <ele>65</ele>
        <time>2013-11-16T16:35:21Z</time>
      </trkpt>
      <trkpt lat="44.77307" lon="-0.31341">
        <ele>65</ele>
        <time>2013-11-16T16:35:26Z</time>
      </trkpt>
      <trkpt lat="44.77308" lon="-0.31336">
        <ele>65</ele>
        <time>2013-11-16T16:35:28Z</time>
      </trkpt>
      <trkpt lat="44.77305" lon="-0.31323">
        <ele>66</ele>
        <time>2013-11-16T16:35:35Z</time>
      </trkpt>
      <trkpt lat="44.77303" lon="-0.3132">
        <ele>66</ele>
        <time>2013-11-16T16:35:37Z</time>
      </trkpt>
      <trkpt lat="44.77293" lon="-0.31314">
        <ele>66</ele>
        <time>2013-11-16T16:35:44Z</time>
      </trkpt>
      <trkpt lat="44.77291" lon="-0.31313">
        <ele>66</ele>
        <time>2013-11-16T16:35:49Z</time>
      </trkpt>
      <trkpt lat="44.77291" lon="-0.31312">
        <ele>66</ele>
        <time>2013-11-16T16:36:00Z</time>
      </trkpt>
      <trkpt lat="44.7729" lon="-0.31313">
        <ele>66</ele>
        <time>2013-11-16T16:36:12Z</time>
      </trkpt>
      <trkpt lat="44.77289" lon="-0.31313">
        <ele>66</ele>
        <time>2013-11-16T16:36:28Z</time>
      </trkpt>
      <trkpt lat="44.77288" lon="-0.31311">
        <ele>65</ele>
        <time>2013-11-16T16:36:48Z</time>
      </trkpt>
      <trkpt lat="44.77288" lon="-0.3131">
        <ele>65</ele>
        <time>2013-11-16T16:37:03Z</time>
      </trkpt>
      <trkpt lat="44.77288" lon="-0.31311">
        <ele>65</ele>
        <time>2013-11-16T16:37:16Z</time>
      </trkpt>
      <trkpt lat="44.77288" lon="-0.31312">
        <ele>65</ele>
        <time>2013-11-16T16:37:33Z</time>
      </trkpt>
      <trkpt lat="44.77287" lon="-0.31314">
        <ele>65</ele>
        <time>2013-11-16T16:37:45Z</time>
      </trkpt>
      <trkpt lat="44.77287" lon="-0.31314">
        <ele>65</ele>
        <time>2013-11-16T16:38:00Z</time>
      </trkpt>
      <trkpt lat="44.77287" lon="-0.31314">
        <ele>65</ele>
        <time>2013-11-16T16:38:08Z</time>
      </trkpt>
      <trkpt lat="44.77287" lon="-0.31314">
        <ele>65</ele>
        <time>2013-11-16T16:38:23Z</time>
      </trkpt>
      <trkpt lat="44.77287" lon="-0.31313">
        <ele>65</ele>
        <time>2013-11-16T16:38:36Z</time>
      </trkpt>
      <trkpt lat="44.77287" lon="-0.31313">
        <ele>65</ele>
        <time>2013-11-16T16:38:50Z</time>
      </trkpt>
      <trkpt lat="44.77287" lon="-0.31312">
        <ele>65</ele>
        <time>2013-11-16T16:39:01Z</time>
      </trkpt>
      <trkpt lat="44.77287" lon="-0.31312">
        <ele>65</ele>
        <time>2013-11-16T16:39:10Z</time>
      </trkpt>
      <trkpt lat="44.77287" lon="-0.31312">
        <ele>65</ele>
        <time>2013-11-16T16:39:18Z</time>
      </trkpt>
      <trkpt lat="44.77286" lon="-0.31311">
        <ele>65</ele>
        <time>2013-11-16T16:39:24Z</time>
      </trkpt>
      <trkpt lat="44.77287" lon="-0.3131">
        <ele>65</ele>
        <time>2013-11-16T16:39:32Z</time>
      </trkpt>
      <trkpt lat="44.77287" lon="-0.3131">
        <ele>65</ele>
        <time>2013-11-16T16:39:44Z</time>
      </trkpt>
      <trkpt lat="44.77288" lon="-0.31309">
        <ele>65</ele>
        <time>2013-11-16T16:39:59Z</time>
      </trkpt>
      <trkpt lat="44.77288" lon="-0.3131">
        <ele>65</ele>
        <time>2013-11-16T16:40:07Z</time>
      </trkpt>
      <trkpt lat="44.77292" lon="-0.31311">
        <ele>66</ele>
        <time>2013-11-16T16:40:13Z</time>
      </trkpt>
      <trkpt lat="44.77295" lon="-0.31314">
        <ele>66</ele>
        <time>2013-11-16T16:40:20Z</time>
      </trkpt>
      <trkpt lat="44.77296" lon="-0.31315">
        <ele>66</ele>
        <time>2013-11-16T16:40:32Z</time>
      </trkpt>
      <trkpt lat="44.77292" lon="-0.31313">
        <ele>66</ele>
        <time>2013-11-16T16:40:39Z</time>
      </trkpt>
      <trkpt lat="44.77285" lon="-0.31313">
        <ele>65</ele>
        <time>2013-11-16T16:40:46Z</time>
      </trkpt>
      <trkpt lat="44.77284" lon="-0.31313">
        <ele>65</ele>
        <time>2013-11-16T16:40:53Z</time>
      </trkpt>
      <trkpt lat="44.77281" lon="-0.31312">
        <ele>65</ele>
        <time>2013-11-16T16:41:02Z</time>
      </trkpt>
      <trkpt lat="44.77273" lon="-0.31315">
        <ele>65</ele>
        <time>2013-11-16T16:41:07Z</time>
      </trkpt>
      <trkpt lat="44.77254" lon="-0.31321">
        <ele>66</ele>
        <time>2013-11-16T16:41:15Z</time>
      </trkpt>
      <trkpt lat="44.77236" lon="-0.31327">
        <ele>67</ele>
        <time>2013-11-16T16:41:22Z</time>
      </trkpt>
      <trkpt lat="44.7722" lon="-0.31335">
        <ele>67</ele>
        <time>2013-11-16T16:41:29Z</time>
      </trkpt>
      <trkpt lat="44.77204" lon="-0.31343">
        <ele>68</ele>
        <time>2013-11-16T16:41:36Z</time>
      </trkpt>
      <trkpt lat="44.77186" lon="-0.31352">
        <ele>70</ele>
        <time>2013-11-16T16:41:44Z</time>
      </trkpt>
      <trkpt lat="44.77174" lon="-0.31357">
        <ele>70</ele>
        <time>2013-11-16T16:41:51Z</time>
      </trkpt>
      <trkpt lat="44.7716" lon="-0.31364">
        <ele>71</ele>
        <time>2013-11-16T16:41:59Z</time>
      </trkpt>
      <trkpt lat="44.77145" lon="-0.31369">
        <ele>72</ele>
        <time>2013-11-16T16:42:07Z</time>
      </trkpt>
      <trkpt lat="44.77134" lon="-0.31373">
        <ele>73</ele>
        <time>2013-11-16T16:42:13Z</time>
      </trkpt>
      <trkpt lat="44.77123" lon="-0.31375">
        <ele>74</ele>
        <time>2013-11-16T16:42:19Z</time>
      </trkpt>
      <trkpt lat="44.77111" lon="-0.31379">
        <ele>74</ele>
        <time>2013-11-16T16:42:26Z</time>
      </trkpt>
      <trkpt lat="44.771" lon="-0.31383">
        <ele>75</ele>
        <time>2013-11-16T16:42:33Z</time>
      </trkpt>
      <trkpt lat="44.771" lon="-0.31384">
        <ele>75</ele>
        <time>2013-11-16T16:42:38Z</time>
      </trkpt>
      <trkpt lat="44.771" lon="-0.31383">
        <ele>75</ele>
        <time>2013-11-16T16:42:44Z</time>
      </trkpt>
      <trkpt lat="44.77091" lon="-0.31392">
        <ele>76</ele>
        <time>2013-11-16T16:42:53Z</time>
      </trkpt>
      <trkpt lat="44.7709" lon="-0.31392">
        <ele>76</ele>
        <time>2013-11-16T16:43:00Z</time>
      </trkpt>
      <trkpt lat="44.77089" lon="-0.31393">
        <ele>76</ele>
        <time>2013-11-16T16:43:09Z</time>
      </trkpt>
      <trkpt lat="44.77089" lon="-0.31394">
        <ele>77</ele>
        <time>2013-11-16T16:43:24Z</time>
      </trkpt>
      <trkpt lat="44.77088" lon="-0.31394">
        <ele>77</ele>
        <time>2013-11-16T16:43:31Z</time>
      </trkpt>
      <trkpt lat="44.77088" lon="-0.31394">
        <ele>77</ele>
        <time>2013-11-16T16:43:45Z</time>
      </trkpt>
      <trkpt lat="44.77088" lon="-0.31394">
        <ele>77</ele>
        <time>2013-11-16T16:43:58Z</time>
      </trkpt>
      <trkpt lat="44.77088" lon="-0.31394">
        <ele>77</ele>
        <time>2013-11-16T16:44:08Z</time>
      </trkpt>
      <trkpt lat="44.77088" lon="-0.31394">
        <ele>77</ele>
        <time>2013-11-16T16:44:18Z</time>
      </trkpt>
      <trkpt lat="44.77088" lon="-0.31394">
        <ele>77</ele>
        <time>2013-11-16T16:44:29Z</time>
      </trkpt>
      <trkpt lat="44.77088" lon="-0.31394">
        <ele>77</ele>
        <time>2013-11-16T16:44:39Z</time>
      </trkpt>
      <trkpt lat="44.77088" lon="-0.31394">
        <ele>77</ele>
        <time>2013-11-16T16:44:46Z</time>
      </trkpt>
      <trkpt lat="44.77088" lon="-0.31394">
        <ele>77</ele>
        <time>2013-11-16T16:44:47Z</time>
      </trkpt>
      <trkpt lat="44.77084" lon="-0.31393">
        <ele>77</ele>
        <time>2013-11-16T16:44:51Z</time>
      </trkpt>
      <trkpt lat="44.7707" lon="-0.31398">
        <ele>78</ele>
        <time>2013-11-16T16:45:00Z</time>
      </trkpt>
      <trkpt lat="44.77058" lon="-0.31401">
        <ele>79</ele>
        <time>2013-11-16T16:45:07Z</time>
      </trkpt>
      <trkpt lat="44.77055" lon="-0.31401">
        <ele>79</ele>
        <time>2013-11-16T16:45:09Z</time>
      </trkpt>
      <trkpt lat="44.77039" lon="-0.31405">
        <ele>80</ele>
        <time>2013-11-16T16:45:18Z</time>
      </trkpt>
      <trkpt lat="44.77027" lon="-0.31407">
        <ele>81</ele>
        <time>2013-11-16T16:45:25Z</time>
      </trkpt>
      <trkpt lat="44.77011" lon="-0.31406">
        <ele>81</ele>
        <time>2013-11-16T16:45:32Z</time>
      </trkpt>
      <trkpt lat="44.76996" lon="-0.31408">
        <ele>81</ele>
        <time>2013-11-16T16:45:40Z</time>
      </trkpt>
      <trkpt lat="44.76977" lon="-0.31407">
        <ele>81</ele>
        <time>2013-11-16T16:45:48Z</time>
      </trkpt>
      <trkpt lat="44.76957" lon="-0.31405">
        <ele>80</ele>
        <time>2013-11-16T16:45:56Z</time>
      </trkpt>
      <trkpt lat="44.76937" lon="-0.314">
        <ele>80</ele>
        <time>2013-11-16T16:46:03Z</time>
      </trkpt>
      <trkpt lat="44.76906" lon="-0.31389">
        <ele>81</ele>
        <time>2013-11-16T16:46:13Z</time>
      </trkpt>
      <trkpt lat="44.76891" lon="-0.31387">
        <ele>82</ele>
        <time>2013-11-16T16:46:19Z</time>
      </trkpt>
      <trkpt lat="44.7689" lon="-0.3137">
        <ele>81</ele>
        <time>2013-11-16T16:46:24Z</time>
      </trkpt>
      <trkpt lat="44.76893" lon="-0.31331">
        <ele>81</ele>
        <time>2013-11-16T16:46:32Z</time>
      </trkpt>
      <trkpt lat="44.7689" lon="-0.31303">
        <ele>83</ele>
        <time>2013-11-16T16:46:38Z</time>
      </trkpt>
      <trkpt lat="44.76889" lon="-0.31292">
        <ele>84</ele>
        <time>2013-11-16T16:46:41Z</time>
      </trkpt>
      <trkpt lat="44.76886" lon="-0.31274">
        <ele>86</ele>
        <time>2013-11-16T16:46:47Z</time>
      </trkpt>
      <trkpt lat="44.7689" lon="-0.31254">
        <ele>89</ele>
        <time>2013-11-16T16:46:54Z</time>
      </trkpt>
      <trkpt lat="44.76891" lon="-0.31244">
        <ele>90</ele>
        <time>2013-11-16T16:46:58Z</time>
      </trkpt>
      <trkpt lat="44.76899" lon="-0.3123">
        <ele>91</ele>
        <time>2013-11-16T16:47:06Z</time>
      </trkpt>
      <trkpt lat="44.76916" lon="-0.31226">
        <ele>90</ele>
        <time>2013-11-16T16:47:12Z</time>
      </trkpt>
      <trkpt lat="44.76921" lon="-0.31223">
        <ele>89</ele>
        <time>2013-11-16T16:47:14Z</time>
      </trkpt>
      <trkpt lat="44.76929" lon="-0.31208">
        <ele>88</ele>
        <time>2013-11-16T16:47:22Z</time>
      </trkpt>
      <trkpt lat="44.76931" lon="-0.31207">
        <ele>88</ele>
        <time>2013-11-16T16:47:29Z</time>
      </trkpt>
    </trkseg>
  </trk>
</gpx>